[[{"header":{"parameterUnit":"m.s-1","parameterCategory":1,"la1":30.6,"la2":28.766,"lo1":-90.7593,"lo2":-88.6598,"dy":0.0162,"dx":0.0183,"nx":116,"ny":114,"refTime":"2023-07-03T06:00:00:Z","depth":0,"parameterNumber":2,"parameterNumberName":"U-component_of_WINDS"},"data":[0.0,0.0,0.0,0.0,0.0,0.0,0.0,0.0,0.0,0.0,0.0,0.0,0.0,0.0,0.0,0.0,0.0,0.0,0.0,0.0,0.0,0.0,0.0,0.0,0.0,0.0,0.0,0.0,0.0,0.0,0.0,0.0,0.0,0.0,0.0,0.0,0.0,0.0,0.0,0.0,0.0,0.0,0.0,0.0,0.0,0.0,0.0,0.0,0.0,0.0,0.0,0.0,0.0,0.0,0.0,0.0,0.0,0.0,0.0,0.0,0.0,0.0,0.0,0.0,0.0,0.0,0.0,0.0,0.0,0.0,0.0,0.0,0.0,0.0,0.0,0.0,0.0,0.0,0.0,0.0,0.0,0.0,0.0,0.0,0.0,0.0,0.0,0.0,0.0,0.0,0.0,0.0,0.0,0.0,0.0,0.0,0.0,0.0,0.0,0.0,0.0,0.0,0.0,0.0,0.0,0.0,0.0,0.0,0.0,0.0,0.0,0.0,0.0,0.0,0.0,0.0,0.0,0.0,0.0,0.0,0.0,0.0,0.0,0.0,0.0,0.0,0.0,0.0,0.0,0.0,0.0,0.0,0.0,0.0,0.0,0.0,0.0,0.0,0.0,0.0,0.0,0.0,0.0,0.0,0.0,0.0,0.0,0.0,0.0,0.0,0.0,0.0,0.0,0.0,0.0,0.0,0.0,0.0,0.0,0.0,0.0,0.0,0.0,0.0,0.0,0.0,0.0,0.0,0.0,0.0,0.0,0.0,0.0,0.0,0.0,0.0,0.0,0.0,0.0,0.0,0.0,0.0,0.0,0.0,0.0,0.0,0.0,0.0,0.0,0.0,0.0,0.0,0.0,0.0,0.0,0.0,0.0,0.0,0.0,0.0,0.0,0.0,0.0,0.0,0.0,0.0,0.0,0.0,0.0,0.0,0.0,0.0,0.0,0.0,0.0,0.0,0.0,0.0,0.0,0.0,0.0,0.0,0.0,0.0,0.0,0.0,0.0,0.0,0.0,0.0,0.0,0.0,0.0,0.0,0.0,0.0,0.0,0.0,0.0,0.0,0.0,0.0,0.0,0.0,0.0,0.0,0.0,0.0,0.0,0.0,0.0,0.0,0.0,0.0,0.0,0.0,0.0,0.0,0.0,0.0,0.0,0.0,0.0,0.0,0.0,0.0,0.0,0.0,0.0,0.0,0.0,0.0,0.0,0.0,0.0,0.0,0.0,0.0,0.0,0.0,0.0,0.0,0.0,0.0,0.0,0.0,0.0,0.0,0.0,0.0,0.0,0.0,0.0,0.0,0.0,0.0,0.0,0.0,0.0,0.0,0.0,0.0,0.0,0.0,0.0,0.0,0.0,0.0,0.0,0.0,0.0,0.0,0.0,0.0,0.0,0.0,0.0,0.0,0.0,0.0,0.0,0.0,0.0,0.0,0.0,0.0,0.0,0.0,0.0,0.0,0.0,0.0,0.0,0.0,0.0,0.0,0.0,0.0,0.0,0.0,0.0,0.0,0.0,0.0,0.0,0.0,0.0,0.0,0.0,0.0,0.0,0.0,0.0,0.0,0.0,0.0,0.0,0.0,0.0,0.0,0.0,0.0,0.0,0.0,0.0,0.0,0.0,0.0,0.0,0.0,0.0,0.0,0.0,0.0,0.0,0.0,0.0,0.0,0.0,0.0,0.0,0.0,0.0,0.0,0.0,0.0,0.0,0.0,0.0,0.0,0.0,0.0,0.0,0.0,0.0,0.0,0.0,0.0,0.0,0.0,0.0,0.0,0.0,0.0,0.0,0.0,0.0,0.0,0.0,0.0,0.0,0.0,0.0,0.0,0.0,0.0,0.0,0.0,0.0,0.0,0.0,0.0,0.0,0.0,0.0,0.0,0.0,0.0,0.0,0.0,0.0,0.0,0.0,0.0,0.0,0.0,0.0,0.0,0.0,0.0,0.0,0.0,0.0,0.0,0.0,0.0,0.0,0.0,0.0,0.0,0.0,0.0,0.0,0.0,0.0,0.0,0.0,0.0,0.0,0.0,0.0,0.0,0.0,0.0,0.0,0.0,0.0,0.0,0.0,0.0,0.0,0.0,0.0,0.0,0.0,0.0,0.0,0.0,0.0,0.0,0.0,0.0,0.0,0.0,0.0,0.0,0.0,0.0,0.0,0.0,0.0,0.0,0.0,0.0,0.0,0.0,0.0,0.0,0.0,0.0,0.0,0.0,0.0,0.0,0.0,0.0,0.0,0.0,0.0,0.0,0.0,0.0,0.0,0.0,0.0,0.0,0.0,0.0,0.0,0.0,0.0,0.0,0.0,0.0,0.0,0.0,0.0,0.0,0.0,0.0,0.0,0.0,0.0,0.0,0.0,0.0,0.0,0.0,0.0,0.0,0.0,0.0,0.0,0.0,0.0,0.0,0.0,0.0,0.0,0.0,0.0,0.0,0.0,0.0,0.0,0.0,0.0,0.0,0.0,0.0,0.0,0.0,0.0,0.0,0.0,0.0,0.0,0.0,0.0,0.0,0.0,0.0,0.0,0.0,0.0,0.0,0.0,0.0,0.0,0.0,0.0,0.0,0.0,0.0,0.0,0.0,0.0,0.0,0.0,0.0,0.0,0.0,0.0,0.0,0.0,0.0,0.0,0.0,0.0,0.0,0.0,0.0,0.0,0.0,0.0,0.0,0.0,0.0,0.0,0.0,0.0,0.0,0.0,0.0,0.0,0.0,0.0,0.0,0.0,0.0,0.0,0.0,0.0,0.0,0.0,0.0,0.0,0.0,0.0,0.0,0.0,0.0,0.0,0.0,0.0,0.0,0.0,0.0,0.0,0.0,0.0,0.0,0.0,0.0,0.0,0.0,0.0,0.0,0.0,0.0,0.0,0.0,0.0,0.0,0.0,0.0,0.0,0.0,0.0,0.0,0.0,0.0,0.0,0.0,0.0,0.0,0.0,0.0,0.0,0.0,0.0,0.0,0.0,0.0,0.0,0.0,0.0,0.0,0.0,0.0,0.0,0.0,0.0,0.0,0.0,0.0,0.0,0.0,0.0,0.0,0.0,0.0,0.0,0.0,0.0,0.0,0.0,0.0,0.0,0.0,0.0,0.0,0.0,0.0,0.0,0.0,0.0,0.0,0.0,0.0,0.0,0.0,0.0,0.0,0.0,0.0,0.0,0.0,0.0,0.0,0.0,0.0,0.0,0.0,0.0,0.0,0.0,0.0,0.0,0.0,0.0,0.0,0.0,0.0,0.0,0.0,0.0,0.0,0.0,0.0,0.0,0.0,0.0,0.0,0.0,0.0,0.0,0.0,0.0,0.0,0.0,0.0,0.0,0.0,0.0,0.0,0.0,0.0,0.0,0.0,0.0,0.0,0.0,0.0,0.0,0.0,0.0,0.0,0.0,0.0,0.0,0.0,0.0,0.0,0.0,0.0,0.0,0.0,0.0,0.0,0.0,0.0,0.0,0.0,0.0,0.0,0.0,0.0,0.0,0.0,0.0,0.0,0.0,0.0,0.0,0.0,0.0,0.0,0.0,0.0,0.0,0.0,0.0,0.0,0.0,0.0,0.0,0.0,0.0,0.0,0.0,0.0,0.0,0.0,0.0,0.0,0.0,0.0,0.0,0.0,0.0,0.0,0.0,0.0,0.0,0.0,0.0,0.0,0.0,0.0,0.0,0.0,0.0,0.0,0.0,0.0,0.0,0.0,0.0,0.0,0.0,0.0,0.0,0.0,0.0,0.0,0.0,0.0,0.0,0.0,0.0,0.0,0.0,0.0,0.0,0.0,0.0,0.0,0.0,0.0,0.0,0.0,0.0,0.0,0.0,0.0,0.0,0.0,0.0,0.0,0.0,0.0,0.0,0.0,0.0,0.0,0.0,0.0,0.0,0.0,0.0,0.0,0.0,0.0,0.0,0.0,0.0,0.0,0.0,0.0,0.0,0.0,0.0,0.0,0.0,0.0,0.0,0.0,0.0,0.0,0.0,0.0,0.0,0.0,0.0,0.0,0.0,0.0,0.0,0.0,0.0,0.0,0.0,0.0,0.0,0.0,0.0,0.0,0.0,0.0,0.0,0.0,0.0,0.0,0.0,0.0,0.0,0.0,0.0,0.0,0.0,0.0,0.0,0.0,0.0,0.0,0.0,0.0,0.0,0.0,0.0,0.0,0.0,0.0,0.0,0.0,0.0,0.0,0.0,0.0,0.0,0.0,0.0,0.0,0.0,0.0,0.0,0.0,0.0,0.0,0.0,0.0,0.0,0.0,0.0,0.0,0.0,0.0,0.0,0.0,0.0,0.0,0.0,0.0,0.0,0.0,0.0,0.0,0.0,0.0,0.0,0.0,0.0,0.0,0.0,0.0,0.0,0.0,0.0,0.0,0.0,0.0,0.0,0.0,0.0,0.0,0.0,0.0,0.0,0.0,0.0,0.0,0.0,0.0,0.0,0.0,0.0,0.0,0.0,0.0,0.0,0.0,0.0,0.0,0.0,0.0,0.0,0.0,0.0,0.0,0.0,0.0,0.0,0.0,0.0,0.0,0.0,0.0,0.0,0.0,0.0,0.0,0.0,0.0,0.0,0.0,0.0,0.0,0.0,0.0,0.0,0.0,0.0,0.0,0.0,0.0,0.0,0.0,0.0,0.0,0.0,0.0,0.0,0.0,0.0,0.0,0.0,0.0,0.0,0.0,0.0,0.0,0.0,0.0,0.0,0.0,0.0,0.0,0.0,0.0,0.0,0.0,0.0,0.0,0.0,0.0,0.0,0.0,0.0,0.0,0.0,0.0,0.0,0.0,0.0,0.0,0.0,0.0,0.0,0.0,0.0,0.0,0.0,0.0,0.0,0.0,0.0,0.0,0.0,0.0,0.0,0.0,0.0,0.0,0.0,0.0,0.0,0.0,0.0,0.0,0.0,0.0,0.0,0.0,0.0,0.0,0.0,0.0,0.0,0.0,0.0,0.0,0.0,0.0,0.0,0.0,0.0,0.0,0.0,0.0,0.0,0.0,0.0,0.0,0.0,0.0,0.0,0.0,0.0,0.0,0.0,0.0,0.0,0.0,0.0,0.0,0.0,0.0,0.0,0.0,0.0,0.0,0.0,0.0,0.0,0.0,0.0,0.0,0.0,0.0,0.0,0.0,0.0,0.0,0.0,0.0,0.0,0.0,0.0,0.0,0.0,0.0,0.0,0.0,0.0,0.0,0.0,0.0,0.0,0.0,0.0,0.0,0.0,0.0,0.0,0.0,0.0,0.0,0.0,0.0,0.0,0.0,0.0,0.0,0.0,0.0,0.0,0.0,0.0,0.0,0.0,0.0,0.0,0.0,0.0,0.0,0.0,0.0,0.0,0.0,0.0,0.0,0.0,0.0,0.0,0.0,0.0,0.0,0.0,0.0,0.0,0.0,0.0,0.0,0.0,0.0,0.0,0.0,0.0,0.0,0.0,0.0,0.0,0.0,0.0,0.0,0.0,0.0,0.0,0.0,0.0,0.0,0.0,0.0,0.0,0.0,0.0,0.0,0.0,0.0,0.0,0.0,0.0,0.0,0.0,0.0,0.0,0.0,0.0,0.0,0.0,0.0,0.0,0.0,0.0,0.0,0.0,0.0,0.0,0.0,0.0,0.0,0.0,0.0,0.0,0.0,0.0,0.0,0.0,0.0,0.0,0.0,0.0,0.0,0.0,0.0,0.0,0.0,0.0,0.0,0.0,0.0,0.0,0.0,0.0,0.0,0.0,0.0,0.0,0.0,0.0,0.0,0.0,0.0,0.0,0.0,0.0,0.0,0.0,0.0,0.0,0.0,0.0,0.0,0.0,0.0,0.0,0.0,0.0,0.0,0.0,0.0,0.0,0.0,0.0,0.0,0.0,0.0,0.0,0.0,0.0,0.0,0.0,0.0,0.0,0.0,0.0,0.0,0.0,0.0,0.0,0.0,0.0,0.0,0.0,0.0,0.0,0.0,0.0,0.0,0.0,0.0,0.0,0.0,0.0,0.0,0.0,0.0,0.0,0.0,0.0,0.0,0.0,0.0,0.0,0.0,0.0,0.0,0.0,0.0,0.0,0.0,0.0,0.0,0.0,0.0,0.0,0.0,0.0,0.0,-1.2417,-1.2559,0.0,0.0,0.0,0.0,0.0,0.0,0.0,0.0,0.0,0.0,0.0,0.0,0.0,0.0,0.0,0.0,0.0,0.0,0.0,0.0,0.0,0.0,0.0,0.0,0.0,0.0,0.0,0.0,0.0,0.0,0.0,0.0,0.0,0.0,0.0,0.0,0.0,0.0,0.0,0.0,0.0,-1.9893,-2.0069,-1.9954,0.0,0.0,0.0,0.0,0.0,0.0,0.0,0.0,0.0,0.0,0.0,0.0,0.0,0.0,0.0,0.0,0.0,0.0,0.0,0.0,0.0,0.0,0.0,0.0,0.0,0.0,0.0,0.0,0.0,0.0,0.0,0.0,0.0,0.0,0.0,0.0,0.0,0.0,0.0,0.0,0.0,0.0,0.0,0.0,0.0,0.0,0.0,0.0,0.0,0.0,0.0,0.0,0.0,0.0,0.0,0.0,0.0,0.0,0.0,0.0,0.0,0.0,0.0,0.0,0.0,0.0,0.0,0.0,0.0,0.0,-1.2044,-1.1917,0.0,0.0,0.0,0.0,0.0,0.0,0.0,0.0,0.0,0.0,0.0,0.0,0.0,0.0,0.0,0.0,0.0,0.0,0.0,0.0,0.0,0.0,0.0,0.0,-1.5129,-1.5576,-1.5309,0.0,0.0,0.0,0.0,0.0,0.0,0.0,0.0,0.0,0.0,0.0,0.0,0.0,0.0,-2.2296,-2.1766,-2.0416,-2.0416,0.0,0.0,0.0,0.0,0.0,0.0,0.0,0.0,0.0,0.0,0.0,0.0,0.0,0.0,0.0,0.0,0.0,0.0,0.0,0.0,0.0,0.0,0.0,0.0,0.0,0.0,0.0,0.0,0.0,0.0,0.0,0.0,0.0,0.0,0.0,0.0,0.0,0.0,0.0,0.0,0.0,0.0,0.0,0.0,0.0,0.0,0.0,0.0,0.0,0.0,0.0,0.0,0.0,0.0,0.0,0.0,0.0,0.0,0.0,0.0,0.0,0.0,0.0,-1.3556,-1.3117,-1.2491,-1.2554,-1.2523,-1.2344,-1.1595,-1.1233,-1.1253,-1.0898,0.0,0.0,0.0,0.0,0.0,0.0,0.0,0.0,0.0,0.0,0.0,0.0,0.0,0.0,0.0,0.0,0.0,0.0,0.0,0.0,0.0,-1.5608,-1.5978,-1.556,-1.6371,-1.668,0.0,0.0,0.0,0.0,0.0,0.0,0.0,0.0,0.0,0.0,0.0,-2.114,-2.2538,-2.1989,-2.1444,-2.0894,-2.0894,-2.0167,-1.8879,0.0,0.0,0.0,0.0,0.0,0.0,0.0,0.0,0.0,0.0,0.0,0.0,0.0,0.0,0.0,0.0,0.0,0.0,0.0,0.0,0.0,0.0,0.0,0.0,0.0,0.0,0.0,0.0,0.0,0.0,0.0,0.0,0.0,0.0,0.0,0.0,0.0,0.0,0.0,0.0,0.0,-1.3472,-1.3641,0.0,0.0,0.0,0.0,0.0,0.0,0.0,0.0,0.0,0.0,0.0,0.0,0.0,-1.5828,-1.6622,-1.5782,-1.5065,-1.4532,-1.4047,-1.3211,-1.2077,-1.2512,-1.2246,-1.1553,-1.1177,0.0,-1.1122,-1.085,0.0,0.0,0.0,0.0,0.0,0.0,0.0,0.0,0.0,0.0,0.0,0.0,0.0,0.0,0.0,0.0,0.0,0.0,0.0,0.0,0.0,-1.6358,-1.6837,-1.6959,-1.7638,-1.7785,-1.6954,0.0,0.0,0.0,0.0,0.0,0.0,0.0,0.0,0.0,-2.0655,-2.1852,-2.2463,-2.2062,-2.1579,-2.0975,-2.074,-1.9827,-1.848,-1.8934,0.0,0.0,0.0,0.0,0.0,0.0,0.0,0.0,0.0,0.0,0.0,0.0,0.0,0.0,0.0,0.0,0.0,0.0,0.0,0.0,0.0,0.0,0.0,0.0,0.0,0.0,0.0,0.0,0.0,0.0,0.0,0.0,0.0,0.0,0.0,0.0,0.0,0.0,0.0,-1.3797,-1.4146,-1.4302,-1.4468,-1.4391,0.0,0.0,0.0,0.0,0.0,0.0,0.0,0.0,0.0,-1.6545,-1.5887,-1.5792,-1.6409,-1.5313,-1.4605,-1.4282,-1.4089,-1.3546,-1.2656,-1.2767,-1.2528,-1.2151,-1.1857,-1.1689,-1.1483,-1.0662,-1.0113,-0.9686,0.0,0.0,0.0,0.0,-1.0937,-1.1359,0.0,0.0,0.0,0.0,0.0,0.0,0.0,0.0,0.0,0.0,0.0,0.0,-1.6336,-1.6974,-1.7611,-1.8249,-1.8608,-1.844,-1.7544,-1.6815,0.0,0.0,0.0,0.0,0.0,0.0,0.0,-2.0686,-2.1738,-2.2247,-2.2231,-2.1828,-2.1354,-2.0832,-2.0572,-1.9757,-1.859,-1.9371,-1.8438,-1.6471,0.0,0.0,0.0,0.0,0.0,0.0,0.0,0.0,0.0,0.0,0.0,0.0,0.0,0.0,0.0,0.0,0.0,0.0,0.0,0.0,0.0,0.0,0.0,0.0,0.0,0.0,0.0,0.0,0.0,0.0,0.0,0.0,0.0,0.0,0.0,0.0,0.0,-1.4622,-1.5181,-1.5141,-1.5661,-1.5592,0.0,0.0,0.0,0.0,0.0,0.0,-1.6114,-1.6185,-1.6507,-1.7189,-1.6018,-1.5658,-1.6156,-1.4854,-1.4275,-1.434,-1.3961,-1.3551,-1.3086,-1.2852,-1.2782,-1.2694,-1.2398,-1.2138,-1.1797,-1.0842,-1.0327,-1.0147,-1.0287,-1.0254,-1.0208,-1.1056,-1.1255,-1.1346,0.0,0.0,0.0,0.0,0.0,0.0,0.0,0.0,0.0,0.0,0.0,-1.5186,-1.6293,-1.7382,-1.8288,-1.8817,-1.8878,-1.865,-1.8106,-1.7011,-1.5915,-1.4789,0.0,0.0,0.0,0.0,0.0,-2.1995,-2.2438,-2.2498,-2.2096,-2.0911,-2.0415,-2.0452,-2.0622,-2.0331,-1.9686,-1.9234,-1.7997,-1.6371,0.0,0.0,0.0,0.0,0.0,0.0,0.0,0.0,0.0,0.0,0.0,0.0,0.0,0.0,0.0,0.0,0.0,0.0,0.0,0.0,0.0,0.0,0.0,0.0,0.0,0.0,0.0,0.0,0.0,0.0,0.0,0.0,0.0,0.0,0.0,0.0,0.0,0.0,0.0,-1.635,-1.6891,0.0,0.0,0.0,0.0,-1.5958,-1.6037,-1.6429,-1.7272,-1.6289,-1.6156,-1.7,-1.5939,-1.5773,-1.6624,-1.525,-1.4821,-1.5245,-1.3856,-1.3118,-1.2842,-1.2829,-1.2667,-1.2325,-1.2311,-1.2138,-1.1844,-1.1503,-1.1356,-1.1316,-1.1049,-1.1109,-1.137,-1.1804,-1.2218,-1.2594,0.0,0.0,0.0,0.0,0.0,0.0,0.0,0.0,0.0,-1.4283,-1.4915,-1.5828,-1.7341,-1.8129,-1.8797,-1.9354,-1.9376,-1.8821,-1.7599,-1.6456,-1.5306,-1.419,0.0,0.0,0.0,0.0,-2.0909,-2.1381,-2.1798,-2.2028,-2.2003,-2.0537,-2.0264,-2.0976,-2.0062,-1.9674,-1.9834,-2.0078,-1.8866,-1.6875,-1.6875,-1.5664,0.0,0.0,0.0,0.0,0.0,0.0,0.0,0.0,0.0,0.0,0.0,0.0,0.0,0.0,0.0,0.0,0.0,0.0,0.0,0.0,0.0,0.0,0.0,0.0,0.0,0.0,0.0,0.0,0.0,0.0,0.0,0.0,0.0,0.0,0.0,0.0,0.0,-1.914,-1.9474,0.0,-1.8384,-1.7648,-1.7149,-1.6958,-1.6798,-1.6812,-1.7107,-1.6329,-1.606,-1.6338,-1.5589,-1.5364,-1.5682,-1.4756,-1.4385,-1.449,-1.3987,-1.3714,-1.3601,-1.3407,-1.3267,-1.3153,-1.2966,-1.2712,-1.2499,-1.2318,-1.1937,-1.1416,-1.1309,-1.1336,-1.1436,-1.1792,-1.2033,-1.2228,0.0,0.0,0.0,0.0,0.0,0.0,0.0,0.0,-1.3779,-1.4606,-1.5062,-1.599,-1.7894,-1.8221,-1.8608,-1.9354,-1.8873,-1.8074,-1.7014,-1.568,-1.4687,-1.4143,-1.4619,0.0,0.0,-2.0162,-2.1054,-2.1213,-2.1455,-2.1534,-2.1432,-2.0219,-2.0065,-2.0812,-1.9741,-1.9465,-1.9829,-2.0291,-1.9133,-1.7105,-1.7517,-1.641,-1.4471,0.0,0.0,0.0,0.0,0.0,0.0,0.0,0.0,0.0,0.0,0.0,0.0,0.0,0.0,0.0,0.0,0.0,0.0,0.0,0.0,0.0,0.0,0.0,0.0,0.0,0.0,0.0,0.0,0.0,0.0,0.0,0.0,0.0,0.0,-1.9437,-2.0624,-2.0748,-2.1222,-2.0955,-1.9637,-1.9271,-1.8765,-1.8018,-1.7789,-1.7539,-1.7284,-1.6501,-1.6126,-1.6157,-1.5434,-1.5018,-1.4911,-1.446,-1.4182,-1.4088,-1.4088,-1.4035,-1.3928,-1.4131,-1.4135,-1.403,-1.4209,-1.4084,-1.378,-1.378,-1.3346,-1.2618,-1.2107,-1.187,-1.1904,-1.2211,-1.2325,-1.2378,0.0,0.0,0.0,0.0,0.0,0.0,0.0,-1.3286,-1.3344,-1.4525,-1.4709,-1.5552,-1.78,-1.7585,-1.7706,-1.8765,-1.7328,-1.6378,-1.6336,-1.4744,-1.4097,-1.4744,0.0,0.0,-2.0156,-2.093,-2.1385,-2.1582,-2.1494,-2.1069,-2.0353,-1.9864,-1.9724,-1.9795,-1.9782,-1.9767,-1.9798,-1.9836,-1.8738,-1.7145,-1.8081,-1.6995,-1.4756,0.0,0.0,0.0,0.0,0.0,0.0,0.0,0.0,0.0,0.0,0.0,0.0,0.0,0.0,0.0,0.0,0.0,0.0,0.0,0.0,0.0,0.0,0.0,0.0,0.0,0.0,0.0,0.0,0.0,0.0,0.0,0.0,0.0,-1.894,-2.0952,-2.2058,-2.1163,-2.2014,-2.2166,-2.0646,-2.0532,-2.0108,-1.9073,-1.8984,-1.8574,-1.7803,-1.6715,-1.6174,-1.658,-1.5569,-1.4823,-1.4522,-1.4522,-1.4376,-1.4088,-1.4166,-1.4018,-1.3736,-1.4838,-1.5212,-1.4902,-1.5956,-1.6196,-1.5781,-1.5781,-1.5574,-1.507,-1.3447,-1.2822,-1.2862,-1.3106,-1.3227,-1.3312,0.0,0.0,0.0,0.0,0.0,0.0,0.0,-1.3017,-1.32,-1.3967,-1.4422,-1.5264,-1.6718,-1.7133,-1.7409,-1.7639,-1.6915,-1.6009,-1.5126,-1.4699,-1.4903,0.0,0.0,0.0,-2.0156,-2.1054,-2.1406,-2.115,-2.0821,-2.043,-2.004,-1.9002,-1.9027,-1.9925,-1.9012,-1.9079,-1.9797,-1.9989,-1.9268,-1.7879,-1.7553,-1.6554,-1.5156,0.0,0.0,0.0,0.0,0.0,0.0,0.0,0.0,0.0,0.0,0.0,0.0,0.0,0.0,0.0,0.0,0.0,0.0,0.0,0.0,0.0,0.0,0.0,0.0,0.0,0.0,0.0,0.0,0.0,0.0,0.0,-1.8143,-1.9957,-2.1682,-2.287,-2.3704,-2.4247,-2.3605,-2.2939,-2.2512,-2.0936,-1.9824,-1.9695,-1.7946,-1.6954,-1.696,-1.587,-1.5308,-1.5479,-1.5136,-1.4823,-1.4522,-1.4522,-1.4376,-1.4088,-1.4894,-1.5253,-1.5165,-1.6215,-1.6734,-1.6637,-1.6957,-1.6674,-1.6079,-1.6079,-1.5939,-1.5486,-1.4268,-1.3795,-1.3791,-1.3566,-1.413,-1.5005,0.0,0.0,0.0,0.0,0.0,0.0,0.0,-1.3055,-1.3104,-1.3732,-1.4329,-1.5129,-1.6293,-1.6519,-1.6646,-1.686,-1.5922,-1.5005,-1.4299,-1.4733,-1.5636,0.0,0.0,-1.9943,-2.052,-2.1054,-2.115,-2.0731,-2.0261,-1.9849,-1.9482,-1.9003,-1.9078,-1.9568,-1.9103,-1.9132,-1.9633,-1.9813,-1.9274,-1.8338,-1.7636,-1.6769,-1.585,-1.4805,-1.4512,-1.4619,-1.4204,-1.4297,-1.4473,-1.4165,0.0,0.0,0.0,0.0,0.0,0.0,0.0,0.0,0.0,0.0,0.0,0.0,0.0,0.0,0.0,0.0,0.0,0.0,0.0,0.0,0.0,0.0,0.0,0.0,-1.9136,-2.1096,-2.3514,-2.3723,-2.3967,-2.4585,-2.405,-2.3391,-2.2991,-2.1324,-2.013,-1.9678,-1.7739,-1.6419,-1.6088,-1.5493,-1.5204,-1.5317,-1.5331,-1.545,-1.5662,-1.5441,-1.5483,-1.576,-1.6185,-1.6355,-1.6437,-1.7496,-1.798,-1.8069,-1.847,-1.8344,-1.7748,-1.7587,-1.7391,-1.7113,0.0,0.0,0.0,0.0,-1.458,-1.5674,0.0,0.0,0.0,0.0,0.0,0.0,0.0,-1.3238,-1.3104,-1.3732,-1.4283,-1.4994,-1.6077,-1.5796,-1.5664,-1.6077,-1.4699,-1.3862,-1.3993,-1.5093,0.0,-1.7946,-1.9512,-2.0586,-2.1055,-2.1023,-2.0797,-2.0382,-1.9859,-1.9333,-1.8824,-1.9384,-1.9383,-1.8908,-1.937,-1.9474,-1.9317,-1.9256,-1.8896,-1.8385,-1.7958,-1.7304,-1.6602,-1.5391,-1.5127,-1.5312,-1.4496,-1.4198,-1.4173,-1.4125,0.0,0.0,0.0,0.0,0.0,0.0,0.0,0.0,0.0,0.0,0.0,0.0,0.0,0.0,0.0,0.0,0.0,0.0,0.0,0.0,0.0,0.0,0.0,0.0,-2.0285,-2.1807,-2.4181,-2.3689,-2.3101,-2.3454,-2.3711,-2.3479,-2.2483,-2.1604,-2.0482,-1.9043,-1.7725,-1.6555,-1.553,-1.5537,0.0,0.0,0.0,-1.6593,-1.7432,-1.7017,-1.7204,-1.7962,-1.7679,-1.7496,-1.7496,-1.863,-1.9195,-1.9195,-2.0167,-2.0312,-1.9883,-1.9512,-1.9355,-1.9126,-1.7052,-1.5818,-1.5072,-1.4476,-1.4977,-1.5861,0.0,0.0,0.0,0.0,0.0,0.0,0.0,-1.2968,-1.3104,-1.3732,-1.3909,-1.4226,-1.496,-1.4926,-1.4732,-1.4354,-1.3993,-1.4215,-1.5116,0.0,-1.7935,-1.9221,-2.0588,-2.1383,-2.1491,-2.115,-2.0975,-2.0862,-1.9636,-1.8798,-1.8245,-1.8432,-1.8429,-1.8332,-1.8286,-1.8486,-1.8809,-1.8339,-1.8065,-1.7895,-1.758,-1.717,-1.667,-1.6055,-1.5644,-1.5391,-1.5225,-1.4972,-1.4722,-1.4332,-1.3744,-1.3143,-1.2719,-1.2185,0.0,0.0,0.0,0.0,0.0,0.0,0.0,0.0,0.0,0.0,0.0,0.0,0.0,0.0,0.0,0.0,0.0,0.0,0.0,-1.9213,-2.0931,-2.236,-2.2875,-2.1916,-2.2049,-2.4284,-2.378,-2.2814,-2.1636,-2.035,-1.9068,-1.8026,-1.6614,-1.5769,-1.5732,-1.6671,-1.7252,-1.7318,-1.8311,-1.8779,-1.8693,-1.8248,-1.8063,-1.8046,-1.8493,0.0,-1.8718,-1.9766,-2.0323,-2.0323,-2.0489,-2.0312,-1.9902,-1.9824,-1.9795,-1.956,-1.745,-1.5629,-1.4413,-1.5115,-1.6034,-1.709,0.0,0.0,0.0,0.0,0.0,0.0,0.0,-1.3152,-1.3467,-1.3779,-1.4318,-1.4824,-1.5096,-1.5141,-1.505,-1.4721,-1.4411,-1.471,0.0,-1.7102,-1.8418,-1.9843,-2.099,-2.1582,-2.1582,-2.1213,-2.0894,-2.0649,-1.9492,-1.8612,-1.8066,-1.7824,-1.7667,-1.7654,-1.7514,-1.7767,-1.8222,-1.7956,-1.7821,-1.7875,-1.7235,-1.6731,-1.6253,-1.5832,-1.5542,-1.5303,-1.4799,-1.4426,-1.4141,-1.3889,-1.3456,-1.2943,-1.2529,-1.2167,-1.1789,0.0,0.0,0.0,0.0,0.0,0.0,0.0,0.0,0.0,0.0,0.0,0.0,0.0,0.0,-1.7288,-1.8162,0.0,-2.0066,-2.0517,-2.169,-2.2393,-2.1919,-2.1365,-2.1507,-2.293,-2.2003,-2.1042,-2.0486,-1.915,-1.8232,-1.777,-1.6434,-1.5678,-1.5818,-1.7037,-1.7692,-1.7692,-1.8864,-1.9768,-2.0208,-1.9549,-1.9431,-1.9933,-1.9817,-1.9766,-1.9844,-2.0323,-2.0566,-2.0566,-2.0566,-2.0439,-2.0244,-2.0244,-1.9793,-1.8993,-1.7542,-1.6451,-1.5718,-1.5703,-1.6355,-1.7496,0.0,0.0,0.0,0.0,0.0,0.0,0.0,0.0,-1.4003,-1.4133,-1.4915,-1.5454,-1.5588,-1.5499,-1.541,-1.541,-1.5107,-1.5353,0.0,-1.7464,-1.8693,-2.0273,-2.1164,-2.1582,-2.1582,-2.1102,-2.0634,-2.0162,-1.9126,-1.8288,-1.7773,-1.7383,-1.7083,-1.6936,-1.6807,-1.6992,-1.741,-1.7201,-1.7187,-1.725,-1.6609,-1.6094,-1.5698,-1.512,-1.495,-1.481,-1.403,-1.3429,-1.3052,-1.2917,-1.2609,-1.2212,-1.1691,-1.1502,-1.1328,-1.0705,-1.0722,0.0,0.0,0.0,0.0,0.0,0.0,0.0,0.0,-1.6348,-1.6596,-1.7609,-1.8223,-1.8919,-1.9752,-2.0446,-2.1084,-2.1875,-2.2184,-2.2025,-2.1435,-2.0935,-2.0576,-2.0576,-1.9943,-1.9405,-1.9131,-1.8226,-1.7598,-1.7318,-1.6386,-1.592,-1.6204,-1.7404,-1.8141,-1.8411,-1.9588,-2.0674,-2.1658,-2.0857,-2.1025,-2.2002,-2.1113,-2.0693,-2.0693,-2.0605,-2.0566,-2.0566,-2.0566,-2.0566,-2.0566,-2.0566,-1.9879,-1.8661,-1.7709,-1.7342,-1.718,-1.6355,-1.6601,-1.7496,0.0,0.0,0.0,0.0,0.0,0.0,0.0,0.0,0.0,-1.532,-1.505,-1.5005,-1.5543,-1.5096,-1.4789,-1.4789,-1.5231,0.0,-1.7055,-1.8099,-1.9352,-2.0846,-2.1352,-2.1582,-2.1582,-2.0734,-2.01,-1.9692,-1.8182,-1.7162,-1.6617,-1.6961,-1.6804,-1.6283,-1.6028,-1.5949,-1.5953,-1.5182,-1.4866,-1.4915,-1.5242,-1.535,-1.5134,-1.3948,-1.3565,-1.3562,-1.324,-1.2607,-1.1879,-1.1108,-1.0345,-0.9576,-0.8762,-0.8285,-0.7998,-0.779,-0.8046,-0.8503,-0.924,-1.1455,-1.3843,-1.5241,-1.6116,-1.7246,0.0,-1.9687,-1.9871,-2.1507,-2.1328,-2.1125,-2.1978,-2.195,-2.1894,-2.2363,-2.1889,-2.1425,-2.1284,-1.9488,-1.8141,-1.8141,-1.8956,-1.9039,-1.8056,-1.7777,-1.7225,-1.6109,-1.5927,-1.6292,-1.7412,-1.868,-1.9761,-2.0845,-2.2041,-2.2775,-2.2862,-2.2409,-2.2262,-2.2432,-2.1572,-2.1162,-2.1143,-2.0752,-2.0566,-2.0566,-2.0566,-2.0566,-2.0566,-2.0566,-2.0537,-2.0178,-1.8123,-1.7342,-1.7261,-1.718,-1.718,-1.7585,0.0,0.0,0.0,0.0,0.0,0.0,0.0,0.0,0.0,0.0,-1.5864,-1.5952,-1.6532,-1.6083,-1.5744,-1.5744,-1.5964,0.0,-1.719,-1.8218,-1.92,-2.0131,-2.0862,-2.1244,-2.1244,-2.032,-1.9581,-1.9016,-1.7531,-1.6362,-1.5521,-1.5039,-1.4749,-1.4478,-1.4187,-1.402,-1.3913,-1.3715,-1.3406,-1.3069,-1.2718,-1.2563,-1.2442,-1.1089,-1.0548,-1.0574,-1.106,-1.1178,0.0,-0.9609,-0.9045,-0.8778,-0.8038,-0.7675,-0.7456,-0.7231,-0.7423,-0.8027,-0.961,-1.2087,-1.4631,-1.6277,-1.8108,-1.9764,-2.0565,-2.1005,-2.1359,-2.1629,-2.1866,-2.2056,-2.2449,-2.2567,-2.2399,-2.1936,-2.1478,-2.0773,-1.9405,-1.8319,-1.7338,-1.6422,-1.6915,-1.7117,-1.6662,-1.6574,-1.6386,-1.5825,-1.5832,-1.6386,-1.7598,-1.8864,-2.0034,-2.1293,-2.2492,-2.3135,-2.3135,-2.2725,-2.251,-2.251,-2.1904,-2.1484,-2.123,-2.1045,-2.081,-2.0566,-2.0566,-2.0566,-2.0566,-2.0566,-2.0235,-1.952,-1.79,-1.6927,-1.6355,-1.6355,-1.6764,-1.7496,0.0,0.0,0.0,0.0,0.0,0.0,0.0,0.0,0.0,0.0,-1.6497,-1.6637,-1.7034,-1.671,-1.6522,-1.6522,0.0,0.0,0.0,-1.7972,-1.8693,-1.9339,-2.0012,-2.0304,-2.0107,-1.9322,-1.8451,-1.7475,-1.6305,-1.5096,-1.3797,-1.3176,-1.2677,-1.2388,-1.2104,-1.1971,-1.1929,-1.1961,-1.1696,-1.1279,-1.0576,-1.0324,-1.0138,-0.8972,-0.846,-0.8456,-0.9051,-0.9701,-0.9907,-0.8428,-0.8153,-0.8252,-0.768,-0.7184,-0.6844,-0.6979,-0.7485,-0.8451,-1.0615,-1.3108,-1.5551,-1.7392,-1.9834,-2.1693,-2.1385,-2.1934,-2.2361,-2.1794,-2.2256,-2.259,-2.2246,-2.2389,-2.218,-2.0882,-2.0427,-1.9495,-1.769,-1.7139,-1.6692,-1.5832,-1.5906,-1.613,-1.6401,-1.6101,-1.592,-1.6292,-1.6292,-1.703,-1.8588,-1.9497,-2.0576,-2.1756,-2.2677,-2.3135,-2.3135,-2.2832,-2.2685,-2.2676,-2.2266,-2.1894,-2.1582,-2.1348,-2.1055,-2.0742,-2.0625,-2.0635,-2.0742,-2.0615,-2.0001,-1.8877,-1.7747,-1.6601,-1.5703,-1.5379,-1.5951,-1.7009,0.0,0.0,0.0,0.0,0.0,0.0,0.0,0.0,0.0,0.0,0.0,0.0,0.0,0.0,-1.6522,-1.6522,0.0,0.0,0.0,-1.7353,-1.78,-1.8792,-1.8852,-1.8555,-1.7918,-1.741,-1.6334,-1.462,-1.4313,-1.307,-1.1035,-1.1696,-1.1338,-1.0095,-0.9952,-1.0009,-1.0139,-0.9617,-0.9437,-0.9367,-0.9372,-0.9239,-0.9062,-0.8605,-0.8292,-0.8189,-0.7902,-0.832,-0.8845,-0.7746,-0.7502,-0.7634,-0.7255,-0.6117,-0.5246,-0.6515,-0.7964,-0.9625,-1.1784,-1.4259,-1.6698,-1.8561,-2.0654,-2.224,-2.2592,-2.2956,-2.3227,-2.3063,-2.3105,-2.2755,-2.1587,-2.1391,-2.09,-1.939,-1.8166,-1.7243,-1.6838,-1.5857,-1.5418,-1.6433,-1.6529,-1.6969,-1.8016,-1.6755,-1.6292,-1.7598,-1.7591,-1.868,-2.1025,-2.1203,-2.1756,-2.3047,-2.3047,-2.3135,-2.3135,-2.3125,-2.3125,-2.3115,-2.2695,-2.248,-2.2441,-2.1611,-2.123,-2.1191,-2.0752,-2.081,-2.1182,-2.0742,-2.0001,-1.8877,-1.7747,-1.6601,-1.5538,-1.4489,-1.4817,-1.5861,0.0,0.0,0.0,0.0,0.0,0.0,0.0,0.0,0.0,0.0,0.0,0.0,0.0,0.0,0.0,0.0,-1.6522,-1.6595,0.0,-1.7118,-1.7286,-1.722,-1.7572,-1.7437,-1.6816,-1.588,-1.4865,-1.3903,-1.2632,-1.128,-0.9883,-0.988,-0.9648,-0.9213,-0.9595,-0.9446,-0.897,-0.9216,-0.8531,-0.7348,-0.7287,-0.7287,-0.7192,-0.6642,-0.6394,-0.6347,0.0,-0.7305,-0.8236,-0.6813,-0.6912,-0.761,-0.7114,-0.6847,-0.6965,-0.8287,-0.9907,-1.1685,-1.3577,-1.6283,-1.9061,-2.1101,-2.2822,-2.4055,-2.4084,-2.4175,-2.4084,-2.324,-2.2461,-2.1524,-2.0578,-2.0089,-1.9191,-1.7307,-1.6983,-1.6883,-1.669,-1.6338,-1.6345,-1.7328,-1.7588,-1.7722,-1.7916,-1.7833,-1.797,-1.8422,-1.8728,-1.9579,-2.1203,-2.1293,-2.1845,-2.3047,-2.3135,-2.3135,-2.3135,-2.3135,-2.3135,-2.3135,-2.2715,-2.251,-2.249,-2.1924,-2.167,-2.166,-2.1504,-2.1357,-2.1221,-2.1074,-1.9771,-1.7827,-1.7423,-1.6198,-1.4573,-1.425,-1.4334,-1.4817,0.0,0.0,0.0,0.0,0.0,0.0,0.0,0.0,0.0,0.0,0.0,0.0,0.0,0.0,0.0,0.0,0.0,-1.6522,0.0,0.0,-1.6532,-1.6133,-1.6225,-1.6016,-1.5413,-1.4405,-1.3471,-1.2618,-1.1319,-1.0042,-0.8845,-0.8442,-0.8137,-0.7961,-0.8111,-0.7902,-0.7474,-0.79,-0.7295,-0.6017,-0.606,-0.6057,-0.5959,-0.583,-0.5704,0.0,0.0,-0.7404,-0.8227,-0.7162,-0.745,-0.828,-0.8533,-0.8976,-0.9599,-1.0597,-1.2052,-1.384,-1.6011,-1.8566,-2.0978,-2.2645,-2.4038,-2.4873,-2.4357,-2.426,-2.3918,-2.2582,-2.1492,-2.0339,-1.8766,-1.8112,-1.7092,-1.4974,-1.5049,-1.5474,-1.5808,-1.5808,-1.6436,-1.8002,-1.8396,-1.853,-1.8784,-1.9449,-1.9783,-1.9465,-1.9792,-2.0526,-2.1836,-2.1933,-2.2306,-2.3047,-2.3135,-2.3135,-2.3135,-2.3135,-2.3135,-2.3135,-2.2861,-2.2656,-2.25,-2.208,-2.1963,-2.209,-2.1611,-2.1435,-2.1445,-2.1123,-1.9761,-1.7908,-1.7423,-1.6198,-1.4657,-1.425,-1.4088,-1.4166,0.0,0.0,0.0,0.0,0.0,0.0,0.0,0.0,0.0,0.0,0.0,0.0,0.0,0.0,0.0,0.0,0.0,0.0,0.0,0.0,0.0,-1.5543,-1.4971,-1.4376,-1.3779,-1.3072,-1.2132,-1.0864,-1.0455,-0.9528,-0.7975,-0.7602,-0.7036,-0.6441,-0.5741,-0.5648,-0.5844,-0.5847,-0.5775,-0.5658,-0.5717,-0.5705,-0.5693,-0.634,0.0,0.0,0.0,-0.8486,-0.8849,-0.8783,-0.9078,-0.9703,-1.1335,-1.2299,-1.292,-1.3355,-1.4407,-1.6049,-1.8885,-2.089,-2.2315,-2.306,-2.4058,-2.4591,-2.3445,-2.3189,-2.2757,-2.1144,-2.0319,-1.9039,-1.6308,-1.5587,-1.468,-1.2675,-1.2585,-1.3251,-1.4306,-1.4464,-1.557,-1.8664,-1.9036,-1.9441,-2.0489,-2.1328,-2.1566,-2.0834,-2.0811,-2.1447,-2.3028,-2.3135,-2.3135,-2.3135,-2.3135,-2.3135,-2.3222,-2.3222,-2.3222,-2.3222,-2.3135,-2.293,-2.2529,-2.2129,-2.2168,-2.2471,-2.1211,-2.1123,-2.1816,-2.0957,-2.002,-1.8877,-1.7827,-1.6683,-1.5621,-1.4573,-1.4173,-1.4088,0.0,0.0,0.0,0.0,0.0,0.0,0.0,0.0,0.0,0.0,0.0,0.0,0.0,0.0,0.0,0.0,0.0,0.0,0.0,0.0,0.0,0.0,0.0,0.0,0.0,0.0,0.0,-1.1566,-1.0567,-0.9868,-0.9439,-0.9007,-0.8232,-0.7264,-0.6698,-0.658,-0.6755,-0.6739,-0.6747,-0.6749,0.0,-0.7769,-0.8969,0.0,0.0,0.0,0.0,-1.0196,-1.0585,-1.0281,-1.1184,-1.2563,-1.3491,-1.419,-1.4917,-1.6412,-1.7269,-1.8036,-1.9598,-2.083,-2.1655,-2.1841,-2.2306,-2.2692,-2.2408,-2.2053,-2.1379,-2.0021,-1.8775,-1.7204,-1.4965,-1.4246,-1.3754,-1.2859,-1.3073,-1.3884,-1.5212,-1.5403,-1.63,-1.8683,-1.9036,-1.9441,-2.0489,-2.0771,-2.1131,-2.1547,-2.2169,-2.2659,-2.3047,-2.3135,-2.3135,-2.3135,-2.3135,-2.3551,-2.4372,-2.4382,-2.4382,-2.4372,-2.3551,-2.3086,-2.2969,-2.2861,-2.2881,-2.2939,-2.2295,-2.1963,-2.1846,-2.1289,-2.0216,-1.8957,-1.8718,-1.7407,-1.5703,-1.5372,-1.4817,-1.4088,0.0,0.0,0.0,0.0,0.0,0.0,0.0,0.0,0.0,0.0,0.0,0.0,0.0,0.0,0.0,0.0,0.0,0.0,0.0,0.0,0.0,0.0,0.0,0.0,0.0,0.0,0.0,0.0,0.0,0.0,-1.1174,-1.0555,-0.9869,-0.9004,-0.8422,-0.8045,-0.8008,-0.7995,0.0,0.0,0.0,0.0,0.0,0.0,0.0,0.0,0.0,0.0,0.0,0.0,0.0,-1.523,-1.5419,-1.6078,-1.6987,-1.8135,-1.8544,-1.8913,-2.0044,-2.0905,-2.1319,-2.0851,-2.1129,-2.1366,-2.0933,-2.0318,-1.9456,-1.8091,-1.6694,-1.5171,-1.3415,-1.2849,-1.2423,-1.2042,-1.2478,-1.334,-1.4714,-1.5042,-1.6087,-1.8656,-1.9036,-1.9441,-2.0489,-2.0742,-2.1214,-2.2171,-2.2448,-2.2754,-2.3125,-2.3381,-2.3609,-2.3877,-2.4101,-2.4598,-2.5546,-2.5041,-2.4787,-2.4787,-2.3637,-2.3135,-2.3135,-2.2949,-2.2861,-2.2832,-2.2217,-2.1816,-2.1562,-2.1123,-2.0466,-1.9678,-1.9195,-1.79,-1.6355,-1.5861,-1.5296,-1.4817,0.0,0.0,0.0,0.0,0.0,0.0,0.0,0.0,0.0,0.0,0.0,0.0,0.0,0.0,0.0,0.0,0.0,0.0,0.0,0.0,0.0,0.0,0.0,0.0,0.0,-1.2374,-1.2395,-1.3052,-1.2396,0.0,0.0,0.0,0.0,0.0,0.0,0.0,0.0,0.0,0.0,0.0,0.0,0.0,0.0,0.0,0.0,0.0,0.0,0.0,0.0,0.0,-1.5791,-1.7161,-1.6863,-1.7607,-1.8577,-1.8692,-1.8731,-1.8951,-1.9982,-2.0587,-2.0665,-1.9802,-1.9941,-1.9991,-1.9095,-1.8281,-1.7286,-1.5763,-1.4458,-1.3262,-1.2016,-1.157,-1.1336,-1.1243,-1.159,-1.2377,-1.3719,-1.4291,-1.5618,-1.8426,-1.9027,-1.959,-2.0702,-2.1213,-2.1926,-2.2808,-2.2502,-2.2536,-2.3256,-2.3846,-2.4324,-2.4935,-2.5584,-2.6186,-2.6719,-2.5714,-2.521,-2.5041,-2.3887,-2.3222,-2.3125,-2.2705,-2.2539,-2.2549,-2.1699,-2.1318,-2.1289,-2.084,-2.0537,-2.0323,-1.952,-1.831,-1.7009,-1.6191,-1.5703,-1.5538,0.0,0.0,0.0,0.0,0.0,0.0,0.0,0.0,0.0,0.0,0.0,0.0,0.0,0.0,0.0,0.0,0.0,0.0,0.0,0.0,0.0,0.0,0.0,0.0,-1.3637,-1.3532,-1.3758,-1.4365,-1.4261,-1.425,0.0,0.0,0.0,0.0,0.0,0.0,0.0,0.0,0.0,0.0,0.0,0.0,0.0,0.0,0.0,0.0,0.0,0.0,0.0,0.0,-1.6316,-1.6897,-1.6819,-1.7521,-1.8293,-1.7974,-1.7983,-1.804,-1.8309,-1.8258,-1.8041,-1.7853,-1.7687,-1.7338,-1.677,-1.6005,-1.516,-1.4128,-1.3462,-1.272,-1.171,-1.1263,-1.1369,-1.2365,-1.2197,-1.2392,-1.3831,-1.4714,-1.5761,-1.7357,-1.9131,-2.0613,-2.1659,-2.2563,-2.3295,-2.3928,-2.3886,-2.4028,-2.4494,-2.4609,-2.4944,-2.5418,-2.6887,-2.7749,-2.7844,-2.7602,-2.7105,-2.6224,-2.5041,-2.4049,-2.3125,-2.2705,-2.2705,-2.2988,-2.2139,-2.1777,-2.1738,-2.1299,-2.0413,-1.9362,-2.0079,-1.8532,-1.6026,-1.6764,-1.5876,-1.4489,0.0,0.0,0.0,0.0,0.0,0.0,0.0,0.0,0.0,0.0,0.0,0.0,0.0,0.0,0.0,0.0,0.0,0.0,0.0,0.0,0.0,0.0,0.0,0.0,0.0,-1.4097,-1.4549,-1.5186,0.0,-1.5186,-1.5186,-1.5186,-1.4687,-1.3779,-1.3464,-1.2948,-1.2344,-1.2049,-1.1891,-1.1936,-1.2274,-1.2894,0.0,0.0,0.0,0.0,0.0,0.0,0.0,0.0,-1.4831,-1.5036,-1.6053,-1.6911,-1.7315,-1.621,-1.598,-1.6002,-1.6187,-1.6021,-1.5812,-1.5945,-1.5712,-1.5396,-1.492,0.0,-1.3415,-1.2783,-1.2109,-1.1608,-1.1236,-1.1089,-1.1229,-1.1944,-1.1951,-1.239,-1.3726,-1.504,-1.6696,-1.8945,-2.0752,-2.2475,-2.3962,-2.4186,-2.448,-2.5254,-2.4891,-2.4773,-2.5228,-2.6074,-2.6776,-2.7323,-2.8409,-2.8937,-2.8937,-2.8426,-2.7844,-2.7279,-2.5619,-2.4542,-2.3963,-2.3169,-2.2832,-2.2783,-2.2158,-2.1758,-2.1514,-2.1064,-2.0437,-1.9844,-1.9766,-1.8461,-1.6519,-1.6519,-1.6198,-1.5801,0.0,0.0,0.0,0.0,0.0,0.0,0.0,0.0,-1.7271,-1.7146,-1.7229,-1.7063,-1.6367,-1.6293,0.0,0.0,0.0,0.0,0.0,0.0,0.0,0.0,0.0,0.0,0.0,0.0,0.0,-1.5776,-1.5776,0.0,0.0,0.0,0.0,0.0,-1.405,-1.3742,-1.3296,-1.3296,-1.32,0.0,0.0,-1.4083,0.0,0.0,0.0,0.0,0.0,0.0,0.0,0.0,-1.3489,-1.358,-1.4907,-1.5657,-1.5698,-1.4221,-1.3973,-1.4172,-1.4269,-1.4239,-1.4229,-1.438,-1.4173,-1.3745,-1.3314,-1.2608,-1.1931,-1.167,-1.1094,-1.0648,-1.0942,-1.0889,-1.0942,-1.1356,-1.1648,-1.2417,-1.4053,-1.5855,-1.8274,-2.1557,-2.3498,-2.529,-2.7154,-2.6616,-2.6557,-2.7507,-2.6892,-2.6324,-2.598,-2.7415,-2.8468,-2.8863,-2.949,-2.9729,-2.9616,-2.8876,-2.8287,-2.7917,-2.63,-2.5284,-2.4787,-2.3786,-2.312,-2.2627,-2.2207,-2.1777,-2.1348,-2.0996,-2.0654,-2.0157,-1.9362,-1.8149,-1.6846,-1.6273,-1.6273,-1.6535,0.0,0.0,0.0,0.0,0.0,0.0,0.0,0.0,-1.7105,-1.6637,-1.6993,-1.6883,-1.5808,-1.5676,0.0,0.0,0.0,0.0,0.0,0.0,0.0,0.0,0.0,0.0,0.0,0.0,0.0,-1.6423,-1.6423,0.0,0.0,0.0,0.0,0.0,0.0,-1.4617,-1.4525,-1.4525,0.0,0.0,0.0,0.0,0.0,0.0,0.0,0.0,0.0,0.0,0.0,0.0,0.0,-1.3936,-1.3378,-1.3353,-1.3336,-1.2352,0.0,0.0,-1.3189,-1.3354,-1.3658,-1.3691,-1.3108,-1.2493,-1.2079,0.0,-1.0789,-1.1032,-1.0806,-1.0648,-1.0942,-1.0555,-1.0468,-1.1289,-1.1638,-1.2783,-1.5692,-1.8171,-2.0953,-2.4472,-2.7377,-2.9692,-3.1157,-3.0816,-3.0825,-3.1539,-3.1302,-3.0001,-2.7313,-2.8201,-2.8825,-2.8925,-2.949,-2.9541,-2.9013,-2.9439,-2.886,-2.7394,-2.7699,-2.6767,-2.4777,-2.4284,-2.3727,-2.3057,-2.2637,-2.2217,-2.1816,-2.1787,-2.0704,-1.9116,-1.9036,-1.7738,-1.5944,-1.6846,-1.5959,-1.4699,0.0,0.0,0.0,0.0,0.0,0.0,0.0,-1.668,-1.6752,-1.6522,-1.6386,-1.6102,-1.5632,-1.4949,0.0,0.0,0.0,0.0,0.0,0.0,0.0,0.0,0.0,0.0,0.0,0.0,-1.6238,-1.6522,-1.6522,0.0,0.0,0.0,0.0,0.0,0.0,-1.4698,-1.4698,-1.4698,0.0,0.0,0.0,0.0,0.0,0.0,0.0,0.0,0.0,0.0,-1.4365,-1.4136,0.0,0.0,-1.2742,-1.2399,0.0,0.0,-1.1448,-1.1545,-1.1687,-1.1783,-1.1836,-1.1963,-1.1538,-1.1037,-1.1094,0.0,-1.0381,-1.0675,-1.0641,-1.0658,-1.0715,-1.0541,-1.0683,-1.1532,-1.2102,-1.3605,-1.6834,-1.9555,-2.2811,-2.7188,-2.9822,-3.2071,-3.4032,-3.317,-3.2182,-3.148,-3.1662,-3.1282,-3.0057,-2.9882,-2.9664,-2.944,-2.934,-2.9327,-2.9453,-2.9679,-2.9512,-2.8799,-2.833,-2.7671,-2.6767,-2.5931,-2.505,-2.4104,-2.3665,-2.3056,-2.2217,-2.1699,-2.1192,-2.0552,-1.8735,-1.8036,-1.787,-1.6754,-1.6198,-1.6064,0.0,0.0,0.0,0.0,0.0,0.0,-1.6238,-1.638,-1.6423,-1.6238,-1.5864,-1.5454,-1.5096,-1.4457,-1.4143,-1.4422,0.0,0.0,0.0,0.0,0.0,0.0,0.0,0.0,0.0,0.0,-1.6522,-1.6522,-1.6522,-1.6281,0.0,0.0,-1.5454,-1.5197,0.0,0.0,0.0,0.0,0.0,0.0,0.0,0.0,0.0,0.0,0.0,0.0,0.0,0.0,0.0,0.0,0.0,0.0,0.0,0.0,0.0,0.0,-1.0784,-1.0499,-1.0925,-1.0832,-1.0608,-1.0484,-1.0292,-1.0133,-1.0173,-1.0141,-1.0227,-1.0608,-1.0752,-1.0752,-1.0752,-1.0937,-1.1333,-1.2012,-1.3287,-1.5329,-1.8622,-2.1855,-2.553,-2.9968,-3.2289,-3.4374,-3.6551,-3.5534,-3.3878,-3.1882,-3.2425,-3.2673,-3.2204,-3.1598,-3.1034,-3.062,-3.0232,-3.0128,-3.0387,-3.0556,-3.0556,-3.0387,-2.9424,-2.8851,-2.8445,-2.7429,-2.6378,-2.5284,-2.5035,-2.4169,-2.2938,-2.2189,-2.1838,-2.1448,-1.8815,-1.8475,-1.9164,-1.7008,-1.6437,-1.6698,0.0,0.0,0.0,0.0,0.0,0.0,0.0,-1.6107,-1.6281,-1.5676,-1.5588,-1.5129,-1.3956,-1.4329,-1.4468,-1.3862,0.0,0.0,0.0,0.0,0.0,0.0,0.0,0.0,0.0,0.0,-1.6522,-1.6522,-1.6522,-1.6522,-1.6466,-1.5864,-1.5908,-1.6479,0.0,0.0,0.0,0.0,0.0,0.0,0.0,0.0,0.0,0.0,0.0,0.0,0.0,0.0,0.0,0.0,0.0,0.0,0.0,0.0,0.0,0.0,-1.1215,-1.11,-1.1108,-1.0875,-1.0371,-0.953,-0.9706,-0.9942,-0.9406,-0.97,-1.0281,-1.0868,-1.0989,-1.0989,-1.0989,-1.1682,-1.2315,-1.2793,-1.5341,-1.835,-2.1493,-2.5583,-2.9465,-3.2889,-3.5133,-3.7097,-3.8819,-3.8226,-3.6578,-3.3697,-3.4741,-3.4786,-3.3163,-3.3172,-3.2962,-3.2579,-3.2593,-3.2303,-3.1778,-3.2303,-3.2303,-3.1778,-3.1401,-3.0592,-2.9451,-2.8524,-2.7522,-2.6472,-2.6472,-2.5607,-2.4156,-2.3682,-2.2613,-2.1031,-1.9528,-1.8966,-1.8886,-1.7747,-1.6601,-1.5748,0.0,0.0,0.0,0.0,0.0,0.0,0.0,0.0,-1.582,-1.5632,-1.5588,-1.5454,-1.5084,-1.4824,-1.4606,-1.4422,0.0,0.0,0.0,0.0,0.0,0.0,0.0,0.0,0.0,0.0,-1.6522,-1.6522,-1.6522,-1.6522,-1.6522,-1.6281,-1.6337,-1.6479,-1.6281,-1.6337,0.0,0.0,0.0,0.0,0.0,0.0,-1.7668,0.0,0.0,0.0,0.0,0.0,0.0,0.0,0.0,0.0,0.0,0.0,0.0,0.0,0.0,0.0,-1.1,-1.0741,-1.0467,-0.9774,-0.9499,-0.953,-0.9775,-0.9846,-1.022,-1.1653,-1.1963,-1.2217,-1.3084,-1.3932,-1.4908,-1.6115,-1.8361,-2.0999,-2.3903,-2.7534,-3.0957,-3.3925,-3.7067,-3.8757,-3.8221,-3.7963,-3.7002,-3.5018,-3.5265,-3.527,-3.4786,-3.4756,-3.4124,-3.2664,-3.2277,-3.2166,-3.2303,-3.251,-3.2496,-3.2317,-3.1589,-3.1005,-3.0605,-2.9704,-2.8688,-2.7602,-2.7602,-2.6862,-2.5678,-2.4143,-2.3366,-2.2941,-2.0123,-1.9199,-1.9237,-1.7831,-1.6601,-1.5711,0.0,0.0,0.0,0.0,0.0,0.0,0.0,0.0,-1.5864,-1.5632,-1.5588,-1.5499,-1.5276,-1.5152,-1.5062,-1.5062,0.0,0.0,0.0,0.0,0.0,0.0,0.0,0.0,0.0,-1.6281,-1.6281,-1.6522,-1.6522,-1.6522,-1.6522,-1.6522,-1.6522,-1.6522,-1.6522,-1.6522,0.0,0.0,0.0,0.0,0.0,0.0,-1.6685,0.0,0.0,0.0,0.0,0.0,0.0,0.0,0.0,0.0,0.0,0.0,0.0,0.0,-1.315,-1.2567,0.0,-1.1295,-1.0899,-1.0157,-1.0073,0.0,-1.045,-1.0659,-1.1182,-1.2474,-1.2889,-1.3355,-1.453,-1.578,-1.7173,-1.887,-2.1176,-2.3877,-2.6931,-3.0046,-3.3039,-3.5816,-3.8263,-3.9105,-3.752,-3.7662,-3.7175,-3.5619,-3.5504,-3.5504,-3.5504,-3.5504,-3.5038,-3.4096,-3.3739,-3.3611,-3.3685,-3.3927,-3.376,-3.3101,-3.2395,-3.175,-3.118,-3.0432,-2.9564,-2.8767,-2.8767,-2.8108,0.0,-2.5117,-2.4223,-2.3667,-2.0912,-1.9648,-1.921,-1.7823,-1.6601,-1.5621,0.0,0.0,0.0,0.0,0.0,0.0,0.0,0.0,0.0,0.0,0.0,-1.5454,-1.488,-1.532,0.0,0.0,0.0,0.0,0.0,0.0,0.0,0.0,0.0,0.0,-1.6479,-1.5964,-1.5952,-1.6522,-1.6522,-1.6522,-1.6552,-1.6522,-1.6522,-1.6552,-1.6522,-1.6479,0.0,0.0,0.0,0.0,0.0,0.0,0.0,0.0,0.0,0.0,0.0,0.0,0.0,0.0,0.0,0.0,0.0,0.0,0.0,0.0,0.0,0.0,0.0,-1.2367,-1.1575,-1.0718,-1.1191,-1.1809,-1.132,-1.1905,0.0,-1.3397,-1.3866,-1.4555,-1.5506,-1.7302,-1.9242,-2.123,-2.3877,-2.6856,-3.0183,-3.2934,-3.5574,-3.8242,-3.8802,-3.8352,-3.6798,-3.7301,-3.7115,-3.5619,-3.5424,-3.5454,-3.5564,-3.5499,-3.5798,-3.6537,-3.6552,-3.6237,-3.5579,-3.6111,-3.5554,-3.3959,-3.3461,-3.2488,-3.1206,-3.0751,-3.0281,-2.9792,-2.9792,-2.9197,-2.814,-2.6497,-2.4974,-2.3503,-2.187,-2.024,-1.8834,-1.7674,-1.6601,-1.5455,0.0,0.0,0.0,0.0,0.0,0.0,0.0,0.0,0.0,0.0,0.0,-1.6238,-1.6107,-1.6194,0.0,0.0,0.0,0.0,0.0,0.0,0.0,0.0,0.0,0.0,-1.6522,-1.638,-1.638,-1.6522,-1.6522,-1.671,-1.7118,-1.668,-1.671,-1.7076,-1.668,-1.6238,0.0,0.0,0.0,0.0,0.0,0.0,0.0,0.0,0.0,0.0,-1.3077,-1.3096,0.0,0.0,0.0,0.0,0.0,0.0,0.0,0.0,-1.3574,-1.3601,-1.3384,0.0,-1.2218,-1.1781,-1.1855,-1.2074,0.0,-1.2406,-1.2974,-1.4268,0.0,0.0,-1.8341,-2.0476,-2.2583,-2.4604,-2.6834,-2.8989,-3.0931,-3.4119,-3.6695,-3.7925,-3.8556,-3.8126,-3.6062,-3.6495,-3.6523,-3.5569,-3.4773,-3.4911,-3.6222,-3.5575,-3.5771,-3.7165,-3.7195,-3.6881,-3.6267,-3.5654,-3.4868,-3.3959,-3.2458,-3.1522,-3.118,-3.0343,-2.9917,-2.9792,-2.9792,-2.9624,-2.9238,-2.6827,-2.5585,-2.4996,-2.2301,-2.0005,-1.8135,-1.7523,-1.6124,-1.4412,0.0,0.0,0.0,0.0,0.0,0.0,0.0,0.0,0.0,0.0,0.0,0.0,0.0,0.0,0.0,0.0,0.0,0.0,0.0,0.0,0.0,0.0,0.0,-1.6238,-1.6466,-1.6238,-1.6355,-1.6879,-1.6879,-1.7146,-1.7666,-1.7105,-1.7034,-1.7284,-1.6673,-1.6059,0.0,0.0,0.0,0.0,-1.5088,0.0,0.0,0.0,0.0,0.0,-1.251,-1.2608,0.0,-1.2881,-1.2881,-1.2881,0.0,0.0,0.0,0.0,-1.3496,-1.375,-1.3555,-1.3106,-1.2656,-1.2498,-1.3019,-1.3594,-1.3764,0.0,0.0,0.0,0.0,0.0,0.0,0.0,-2.5176,-2.7403,-2.9162,-3.0931,-3.3023,-3.5609,-3.7567,-3.8311,-3.8419,-3.7927,-3.6734,-3.6585,-3.6119,-3.489,-3.4535,-3.4723,-3.5354,-3.5125,-3.5583,-3.6971,-3.6985,-3.6821,-3.6492,-3.5492,-3.4438,-3.331,-3.2158,-3.1219,-3.057,-3.0264,-2.977,-2.9028,-2.9028,-2.8779,-2.8108,-2.6169,-2.5202,-2.487,-2.2633,-2.0218,-1.7946,-1.7747,-1.6095,-1.4088,0.0,0.0,0.0,0.0,0.0,0.0,0.0,0.0,0.0,0.0,0.0,0.0,0.0,0.0,0.0,0.0,0.0,0.0,0.0,0.0,0.0,0.0,0.0,-1.5964,-1.6479,-1.6008,-1.6244,-1.7312,-1.7312,-1.7585,-1.8106,-1.7544,-1.7227,-1.7122,-1.6365,-1.5722,0.0,-1.5549,-1.5363,-1.4818,-1.4226,0.0,0.0,0.0,0.0,0.0,0.0,0.0,0.0,-1.2881,-1.2968,-1.3065,-1.3065,0.0,0.0,0.0,0.0,0.0,-1.3728,-1.3342,-1.2988,-1.3057,-1.4185,-1.529,-1.529,0.0,0.0,0.0,0.0,0.0,0.0,-2.4688,-2.7089,-2.9557,-3.1082,-3.2894,-3.5594,-3.7178,-3.8212,-3.8587,-3.8181,-3.7682,-3.7339,-3.6658,-3.5567,-3.4081,-3.4184,-3.4298,-3.4185,-3.4481,-3.5273,-3.6626,-3.6388,-3.6261,-3.6261,-3.527,-3.4002,-3.2393,-3.1894,-3.1022,-2.9817,-3.0281,-2.9628,-2.8096,-2.8096,-2.7533,-2.6389,-2.5294,-2.4567,-2.4127,-2.2755,-2.0583,-1.812,-1.7836,-1.6193,-1.4148,0.0,0.0,0.0,0.0,0.0,0.0,0.0,0.0,0.0,0.0,0.0,0.0,0.0,0.0,0.0,0.0,0.0,0.0,0.0,0.0,0.0,-1.6522,-1.6423,-1.6423,-1.6522,-1.6423,-1.6655,-1.7312,-1.7312,-1.7585,-1.8106,-1.7544,-1.6982,-1.6382,-1.5237,-1.4882,-1.5101,-1.4299,-1.3923,-1.3727,-1.2674,0.0,0.0,0.0,0.0,0.0,0.0,0.0,0.0,-1.2881,-1.3238,-1.3637,-1.3637,0.0,0.0,0.0,0.0,0.0,-1.4328,-1.3932,-1.3496,-1.3857,-1.4877,-1.5774,-1.5774,0.0,0.0,0.0,0.0,0.0,0.0,-2.5697,-2.7766,-3.0319,-3.2923,-3.5326,-3.7276,-3.8294,-3.8403,-3.7201,-3.7481,-3.7042,-3.512,-3.4603,-3.4283,-3.4027,-3.2618,-3.2636,-3.4721,-3.4185,-3.484,-3.7172,-3.5922,-3.527,-3.527,-3.4313,-3.2983,-3.1389,-3.0585,-3.0009,-2.9792,-2.988,-2.9271,-2.8096,-2.8096,-2.7533,-2.6389,-2.5294,-2.4745,-2.4471,-2.1969,-2.0123,-1.8721,-1.6986,-1.5576,-1.4422,0.0,0.0,0.0,0.0,0.0,0.0,0.0,0.0,0.0,0.0,0.0,0.0,0.0,0.0,0.0,0.0,0.0,0.0,0.0,0.0,0.0,-1.6522,-1.6522,-1.6522,-1.6522,-1.6522,-1.6909,-1.7747,-1.7747,-1.8027,-1.8496,-1.7354,-1.6025,-1.4616,-1.4256,-1.3898,-1.3645,-1.3366,-1.3296,-1.3261,0.0,0.0,0.0,0.0,0.0,0.0,0.0,0.0,0.0,0.0,-1.3779,-1.4283,-1.4283,0.0,0.0,0.0,0.0,0.0,-1.4142,-1.4023,-1.3779,-1.3525,-1.4749,-1.6099,-1.6151,-1.7587,0.0,0.0,0.0,0.0,0.0,-2.7865,-3.0293,-3.301,-3.5103,-3.6741,-3.775,-3.7802,-3.7618,-3.7343,-3.683,-3.6193,-3.5381,-3.4765,-3.4044,-3.3018,-3.2372,-3.231,-3.2891,-3.2812,-3.3404,-3.4751,-3.4101,-3.3451,-3.2949,-3.2513,-3.1937,-3.118,-3.0279,-2.9792,-2.9792,-2.9792,-2.887,-2.7209,-2.7209,-2.6295,-2.4638,-2.4135,-2.3511,-2.2756,-2.1535,-1.9829,-1.7796,-1.5922,-1.4936,-1.4476,0.0,0.0,0.0,0.0,0.0,0.0,0.0,0.0,0.0,0.0,0.0,0.0,0.0,0.0,0.0,0.0,0.0,0.0,0.0,0.0,-1.6238,-1.6064,-1.6194,-1.638,-1.6522,-1.6522,-1.6951,-1.7907,-1.7907,-1.8052,-1.8274,-1.6484,-1.4824,-1.3349,-1.3453,-1.3114,-1.2562,-1.2893,-1.3009,-1.3036,0.0,0.0,0.0,0.0,0.0,0.0,0.0,0.0,0.0,0.0,0.0,0.0,0.0,0.0,0.0,-1.5302,-1.4904,-1.4424,-1.4227,-1.4063,-1.3828,-1.3422,0.0,-1.6424,-1.6589,-1.8694,0.0,0.0,0.0,0.0,0.0,-2.965,-3.2387,-3.505,-3.6551,-3.7583,-3.8072,-3.7619,-3.737,-3.7768,-3.6384,-3.5442,-3.5533,-3.462,-3.3398,-3.1902,-3.1954,-3.1823,-3.122,-3.1814,-3.2287,-3.2621,-3.2593,-3.2177,-3.118,-3.097,-3.0908,-3.0833,-3.0139,-2.9792,-2.9792,-2.9534,-2.8371,-2.6483,-2.6224,-2.4967,-2.3047,-2.2775,-2.212,-2.1203,-2.0666,-1.8986,-1.6559,-1.5151,-1.4583,-1.4476,0.0,0.0,0.0,0.0,0.0,0.0,0.0,0.0,0.0,0.0,0.0,0.0,0.0,0.0,0.0,0.0,0.0,0.0,0.0,0.0,-1.541,-1.4835,-1.5365,-1.5908,-1.6479,-1.6522,-1.6795,-1.7353,-1.7353,-1.7079,-1.6506,-1.443,-1.3555,-1.3729,-1.2867,-1.2688,-1.2967,-1.3,-1.3009,-1.2976,-1.2739,0.0,0.0,0.0,0.0,0.0,0.0,0.0,0.0,0.0,0.0,0.0,0.0,0.0,-1.6492,-1.7015,-1.6028,-1.4797,-1.5269,-1.4471,-1.3678,-1.433,-1.5727,-1.6974,-1.7169,-1.9991,0.0,-2.4134,0.0,-2.6788,-2.7912,-3.0163,-3.2596,-3.4858,-3.6464,-3.7772,-3.8798,-3.8802,-3.8504,-3.7898,-3.6291,-3.4931,-3.4192,-3.2519,-3.1381,-3.1233,-3.0522,-3.0369,-3.1193,-3.2074,-3.2577,-3.2593,-3.2593,-3.2177,-3.118,-3.0355,-2.9934,-2.9934,-2.9869,-2.9792,-2.9792,-2.8688,-2.7614,-2.6472,-2.5378,-2.4211,-2.3047,-2.1845,-2.1391,-2.1114,-1.8864,-1.6936,-1.5449,-1.5134,-1.4756,-1.4476,0.0,0.0,0.0,0.0,0.0,0.0,0.0,0.0,0.0,0.0,0.0,0.0,0.0,0.0,0.0,0.0,0.0,0.0,0.0,-1.5231,-1.5096,-1.5231,-1.5499,-1.5864,-1.6479,-1.6522,-1.6752,-1.7312,-1.6912,-1.6225,-1.5271,-1.4121,-1.3449,-1.3222,-1.2844,-1.2677,-1.2636,-1.2918,-1.2885,-1.2687,-1.3304,-1.3402,0.0,0.0,0.0,0.0,0.0,0.0,0.0,0.0,-1.4915,-1.5676,-1.6051,-1.6337,-1.6473,-1.6308,-1.5811,-1.5232,-1.5061,-1.5099,-1.5271,-1.5677,-1.694,0.0,0.0,-2.0381,-2.2688,-2.4055,-2.643,-2.8764,-3.0446,-3.2286,-3.4089,-3.5898,-3.7405,-3.8526,-3.8887,-3.8526,-3.7684,-3.6369,-3.517,-3.4031,-3.29,-3.207,-3.1431,-3.0868,-3.101,-3.1211,-3.1193,-3.2105,-3.2321,-3.1742,-3.1742,-3.1254,-3.0343,-2.9238,-2.8767,-2.8767,-2.9456,-2.9443,-2.8767,-2.8267,-2.7105,-2.5378,-2.4235,-2.3027,-2.1845,-2.0666,-1.9761,-1.8864,-1.7217,-1.6135,-1.5631,-1.5337,-1.5164,-1.4997,0.0,0.0,0.0,0.0,0.0,0.0,0.0,0.0,0.0,0.0,0.0,0.0,0.0,0.0,0.0,0.0,0.0,0.0,-1.532,-1.4732,-1.4606,-1.4994,-1.5039,-1.5231,-1.5644,-1.5832,-1.6213,-1.6744,-1.599,-1.5173,-1.4345,-1.3645,-1.3219,-1.2985,-1.2833,-1.2753,-1.2788,-1.3301,-1.331,-1.3168,-1.4168,-1.4525,0.0,0.0,0.0,0.0,0.0,0.0,0.0,0.0,-1.4824,-1.5365,-1.5788,-1.5932,-1.5876,-1.5676,-1.5454,-1.532,-1.5264,-1.5753,-1.6512,-1.7335,0.0,0.0,-2.0792,-2.2104,-2.3542,-2.5154,-2.7662,-3.0106,-3.1962,-3.3102,-3.4286,-3.5808,-3.7313,-3.827,-3.8187,-3.7488,-3.6544,-3.5353,-3.3994,-3.2759,-3.1796,-3.1483,-3.1126,-3.0854,-3.1407,-3.1739,-3.1623,-3.2249,-3.2177,-3.1254,-3.118,-3.0594,-2.9287,-2.8349,-2.7584,-2.6887,-2.7156,-2.717,-2.6943,-2.6628,-2.5449,-2.3594,-2.2378,-2.1425,-2.0666,-1.9405,-1.8226,-1.7037,-1.6109,-1.5832,-1.5792,-1.5504,-1.5398,-1.5311,0.0,0.0,0.0,0.0,0.0,0.0,0.0,0.0,0.0,0.0,0.0,0.0,0.0,0.0,0.0,0.0,0.0,0.0,-1.4744,-1.4143,-1.3826,-1.3815,-1.3826,-1.3826,-1.3826,-1.4387,-1.4971,-1.5588,-1.4411,-1.3815,-1.3779,-1.2799,-1.2626,-1.3205,-1.2806,-1.295,-1.3541,-1.4234,-1.4492,-1.453,-1.5138,-1.5572,-1.5827,0.0,0.0,0.0,0.0,0.0,0.0,0.0,-1.419,-1.4709,-1.4698,-1.4698,-1.4835,-1.541,-1.5186,-1.496,-1.6077,-1.6478,-1.7082,-1.9287,0.0,0.0,-2.4775,-2.5451,-2.6027,-2.782,-2.9247,-3.0565,-3.2019,-3.229,-3.278,-3.4269,-3.5774,-3.6757,-3.6719,-3.58,-3.5201,-3.5149,-3.2849,-3.1167,-3.118,-3.0355,-3.0216,-3.1106,-3.118,-3.1596,-3.2522,-3.2593,-3.2164,-3.1228,-3.1167,-3.0164,-2.8084,-2.7663,-2.6301,-2.409,-2.2494,-2.2737,-2.4503,-2.3458,-2.2233,-2.0953,-1.9892,-1.9488,-1.9306,-1.8141,-1.6943,-1.573,-1.573,-1.573,-1.5697,-1.5504,-1.5398,-1.5317,0.0,0.0,0.0,0.0,0.0,0.0,0.0,0.0,0.0,0.0,0.0,0.0,0.0,0.0,0.0,0.0,0.0,0.0,-1.4744,-1.4514,-1.4236,-1.3815,-1.419,-1.4576,-1.4858,-1.4935,-1.4774,-1.4318,-1.4003,-1.3815,-1.3779,-1.3473,-1.3834,-1.4665,-1.4534,-1.4336,-1.4175,-1.4726,-1.4493,-1.3887,-1.4821,-1.5553,-1.6122,0.0,0.0,0.0,0.0,0.0,0.0,0.0,0.0,0.0,-1.456,-1.4698,-1.4744,-1.4926,-1.5398,-1.6065,-1.6687,-1.8135,0.0,-2.1203,0.0,0.0,0.0,-2.638,0.0,0.0,-3.0268,-3.1157,-3.2104,-3.3136,-3.415,-3.5131,-3.5693,-3.5793,-3.5149,-3.4423,-3.3413,-3.1972,-3.1137,-3.0551,-3.0241,-2.9921,-3.0216,-3.1106,-3.1815,-3.2427,-3.2922,-3.3029,-3.2396,-3.0937,-2.9967,-2.8408,-2.6291,-2.4949,-2.3113,-2.0649,-1.9411,-1.9423,-2.0503,-1.9312,-1.8224,-1.7154,-1.6019,-1.549,-1.5396,-1.4124,-1.3386,-1.3011,-1.3011,-1.3011,-1.3006,-1.2934,-1.3576,-1.427,0.0,0.0,0.0,0.0,0.0,0.0,0.0,0.0,0.0,0.0,0.0,0.0,0.0,0.0,0.0,0.0,0.0,0.0,0.0,-1.4468,-1.423,-1.4031,-1.4148,-1.4408,-1.4813,-1.4718,-1.4594,-1.4363,-1.4125,-1.3947,-1.3815,-1.425,-1.4821,-1.5452,-1.5614,-1.5429,-1.4909,-1.5081,-1.4683,-1.3922,-1.4479,-1.5279,-1.6085,0.0,0.0,0.0,0.0,0.0,0.0,0.0,0.0,0.0,-1.3884,0.0,-1.4422,-1.4892,-1.5823,-1.6972,-1.8202,-1.9879,0.0,-2.3038,-2.4649,-2.6324,-2.7947,-2.808,-2.8379,-3.0145,-3.0886,-3.141,-3.2138,-3.3254,-3.4216,-3.47,-3.503,-3.4864,-3.3717,-3.2856,-3.1809,-3.0254,-2.9732,-2.9378,-2.9164,-2.9126,-2.9676,-3.0913,-3.1487,-3.211,-3.3016,-3.2647,-3.1681,-3.0081,-2.855,-2.6607,-2.4253,-2.2225,-2.006,-1.7629,-1.5776,-1.495,-1.5124,-1.6022,-1.5643,-1.4046,-1.3318,-1.3052,-1.2956,-1.2221,-1.1945,-1.1945,-1.1945,-1.1945,-1.1945,-1.1945,-1.2721,-1.3802,0.0,0.0,0.0,0.0,0.0,0.0,0.0,0.0,0.0,0.0,0.0,0.0,0.0,0.0,0.0,0.0,0.0,0.0,0.0,0.0,-1.4063,-1.433,-1.3912,-1.3903,-1.4287,-1.438,-1.4785,-1.5433,-1.4782,-1.4376,-1.414,-1.5219,-1.5796,-1.584,-1.6355,-1.6225,-1.5656,-1.5345,-1.4914,-1.432,-1.415,-1.4783,-1.5711,-1.5321,0.0,0.0,0.0,0.0,0.0,0.0,0.0,0.0,-1.2949,-1.3395,-1.4093,-1.5173,-1.6321,-1.78,-2.0108,-2.1664,0.0,-2.4722,-2.6783,0.0,-2.9909,-3.0247,-3.0438,-3.1031,-3.1269,-3.1574,-3.2235,-3.2981,-3.3481,-3.3515,-3.3954,-3.3799,-3.2327,-3.1166,-3.0113,-2.9188,-2.8426,-2.7971,-2.7949,-2.7949,-2.8802,-3.0528,-3.0395,-3.0959,-3.2587,-3.1544,-3.0151,-2.8424,-2.6632,-2.4428,-2.173,-1.9314,-1.6974,-1.4765,-1.2189,-1.037,-0.9464,-1.3239,-1.3732,-1.156,-1.156,-1.1556,-1.1556,-1.1556,-1.1556,-1.1556,-1.1556,-1.1556,-1.1556,-1.1556,-1.2425,-1.3509,0.0,0.0,0.0,0.0,0.0,0.0,0.0,0.0,0.0,0.0,0.0,0.0,0.0,0.0,0.0,0.0,0.0,0.0,0.0,0.0,-1.476,-1.372,-1.4799,-1.5423,-1.5527,-1.6363,-1.6977,-1.7342,-1.5762,-1.5529,-1.6487,-1.7275,-1.7613,-1.7572,-1.7803,-1.7282,-1.6188,-1.5245,-1.4482,-1.3926,-1.3886,-1.4296,-1.4946,-1.5296,-1.5269,0.0,0.0,0.0,0.0,0.0,0.0,0.0,-1.3477,-1.3791,-1.4403,-1.5277,-1.6956,-1.8951,-2.071,-2.3155,0.0,0.0,-2.802,-2.9926,-3.0746,-3.121,-3.1334,-3.0886,-3.1765,-3.2679,-3.2835,-3.3451,-3.3867,-3.3545,-3.2641,-3.1574,-3.0616,-2.8906,-2.7328,-2.6223,-2.6569,-2.6756,-2.6493,-2.7073,-2.8106,-2.9691,-2.9356,-2.9185,-2.9443,-2.8924,-2.7346,-2.4533,-2.2388,-2.0132,-1.7502,-1.5576,-1.3386,-1.1177,-1.0554,-0.9502,-0.8379,-0.9081,-0.9217,-0.8851,-0.8832,-0.8821,-0.8821,-0.8821,-0.8821,-0.8821,-0.8821,-0.8821,-0.8821,-0.8821,-0.9702,-1.0909,0.0,0.0,0.0,0.0,0.0,0.0,0.0,0.0,0.0,0.0,0.0,0.0,0.0,0.0,0.0,0.0,0.0,0.0,0.0,0.0,-1.4914,-1.4633,-1.5641,-1.6327,-1.671,-1.7616,-1.8412,-1.912,-1.8499,-1.8254,-1.8498,-1.9461,-1.9563,-1.897,-1.9016,-1.8064,-1.6361,-1.5747,-1.5003,-1.4236,-1.4236,-1.4519,-1.4991,-1.5282,-1.5192,-1.4826,-1.4584,0.0,0.0,0.0,0.0,0.0,0.0,0.0,-1.5082,-1.5744,-1.7745,-2.0015,-2.143,0.0,0.0,-2.757,0.0,-2.9231,-3.0165,-3.0867,-3.1341,-3.1471,-3.2261,-3.3035,-3.3283,-3.3579,-3.3563,-3.2956,-3.1691,-3.0296,-2.8852,-2.7085,-2.5585,-2.4831,-2.4536,-2.4596,-2.5122,-2.5375,-2.5946,-2.7191,-2.7054,-2.6678,-2.6013,-2.5837,-2.4215,-2.0869,-1.9232,-1.7196,-1.4553,-1.2704,-1.1104,-0.9727,-0.9229,-0.8634,-0.7952,-0.7875,-0.7888,-0.7972,-0.8048,-0.8038,-0.8038,-0.8038,-0.8038,-0.8038,-0.8038,-0.8038,-0.8038,-0.8038,-0.9158,-1.0775,0.0,0.0,0.0,0.0,0.0,0.0,0.0,0.0,0.0,0.0,0.0,0.0,0.0,0.0,0.0,0.0,0.0,0.0,0.0,0.0,0.0,-1.5732,-1.6522,-1.7191,-1.7938,-1.8701,-1.9762,-2.1002,-2.1685,-2.1662,-2.0971,-2.1744,-2.1416,-2.0171,-2.0089,-1.8803,-1.6659,-1.639,-1.5706,-1.4835,-1.4744,-1.4898,-1.5196,-1.5196,-1.5132,-1.4993,-1.457,-1.4475,-1.4475,-1.4153,0.0,0.0,0.0,0.0,-1.5796,-1.6287,-1.83,-2.0647,-2.19,0.0,-2.7063,-2.8586,-2.8501,0.0,-2.9248,-3.0075,-3.0959,-3.2146,-3.2721,-3.316,-3.3669,-3.3687,-3.3389,-3.2538,-3.123,-2.9607,-2.7575,-2.5677,-2.4165,-2.3546,-2.2674,-2.2434,-2.342,-2.3285,-2.3424,-2.4067,-2.4133,-2.3578,-2.2234,-2.2685,-2.1235,-1.7472,-1.6822,-1.5244,-1.2541,-1.037,-0.9288,-0.9266,-0.843,-0.7997,-0.8041,-0.8018,-0.8031,-0.7972,-0.8048,-0.8038,-0.8038,-0.8038,-0.8038,-0.8038,-0.8038,-0.8038,-0.8038,-0.8038,-0.9295,-1.1189,0.0,0.0,0.0,0.0,0.0,0.0,0.0,0.0,0.0,0.0,0.0,0.0,0.0,0.0,0.0,0.0,0.0,0.0,-1.4744,0.0,0.0,-1.5269,-1.7289,-1.8744,-1.9401,-2.0588,-2.1806,-2.3083,-2.4039,-2.4738,-2.5151,-2.4275,-2.2933,-2.1275,-2.0902,-1.9679,-1.7773,-1.6337,-1.5603,-1.541,-1.4926,-1.4743,-1.4799,-1.4799,-1.4751,-1.4749,-1.4682,-1.4879,-1.5163,-1.5108,-1.541,0.0,0.0,0.0,-1.6206,-1.6368,-1.8113,-2.0188,0.0,0.0,-2.7063,0.0,-2.8907,-2.8983,-2.942,-2.9889,-3.0653,-3.2109,-3.2991,-3.3613,-3.3901,-3.432,-3.4321,-3.3464,-3.1434,-2.944,-2.8017,-2.5047,-2.2367,-2.0834,-2.1196,-2.1252,-2.0708,-2.1263,-2.1543,-2.1377,-2.0953,-1.9727,-1.7608,-1.9696,-1.8947,-1.4555,-1.5255,-1.4174,-1.094,-0.8654,-0.7712,-0.8215,-0.8072,-0.7976,-0.8007,-0.7986,-0.8048,-0.7972,-0.8048,-0.8038,-0.8038,-0.8038,-0.8038,-0.8038,-0.8038,-0.8038,-0.8038,-0.8038,-0.8717,-1.0066,0.0,0.0,0.0,0.0,0.0,0.0,0.0,0.0,0.0,0.0,0.0,0.0,0.0,0.0,0.0,-1.6522,-1.5644,-1.4948,-1.4558,-1.4969,-1.5554,-1.6232,-1.7564,-1.8778,-1.9829,-2.134,-2.2672,-2.388,-2.4994,-2.5713,-2.598,-2.4745,-2.3581,-2.2452,-2.1038,-1.9337,-1.7552,-1.6487,-1.5849,-1.5588,-1.5688,-1.57,-1.57,-1.57,-1.5511,-1.5186,-1.5186,-1.5325,-1.5464,-1.5464,-1.5811,-1.6207,-1.5637,0.0,0.0,0.0,-1.7604,-2.0065,-2.3163,-2.4855,-2.615,0.0,-2.801,-2.7828,-2.8178,-2.8952,-2.9919,-3.1028,-3.2106,-3.3284,-3.4802,-3.4827,-3.4334,-3.3474,-3.0875,-2.8155,-2.5797,-2.2882,-2.035,-1.8636,-1.8735,-1.8815,-1.8426,-1.9046,-1.8957,-1.7726,-1.8629,-1.7942,-1.4816,-1.6062,-1.4711,-1.0171,-1.048,-0.9553,-0.6913,-0.5721,-0.5317,-0.5713,-0.5647,-0.5616,-0.5786,-0.5779,-0.6533,-0.7972,-0.8048,-0.8038,-0.8041,-0.7952,-0.7959,-0.7959,-0.7959,-0.7959,-0.7945,-0.7946,-0.8956,-1.0641,0.0,0.0,0.0,0.0,0.0,0.0,0.0,0.0,0.0,0.0,0.0,0.0,0.0,0.0,0.0,0.0,-1.5522,-1.4797,-1.4494,-1.5145,-1.5969,-1.6883,-1.7615,-1.8585,-1.9934,-2.1499,-2.2875,-2.4002,-2.5207,-2.5709,-2.5512,-2.4191,-2.3134,-2.2323,-2.039,-1.8494,-1.672,-1.6375,-1.599,-1.5632,-1.6238,-1.6522,-1.6522,-1.6522,-1.6238,-1.582,-1.582,-1.582,-1.582,-1.582,-1.6008,-1.6182,-1.5732,-1.5588,0.0,0.0,0.0,0.0,0.0,0.0,-2.5178,-2.7045,-2.7114,-2.6825,-2.721,-2.7997,-2.8959,-3.0087,-3.1049,-3.2354,-3.4442,-3.4565,-3.4052,-3.3144,-3.0026,-2.6579,-2.3371,-2.0328,-1.7856,-1.6508,-1.6211,-1.6283,-1.6696,-1.6763,-1.6289,-1.5009,-1.6254,-1.535,-1.1552,-1.1106,-0.9763,-0.7115,-0.5836,-0.4489,-0.3019,-0.2744,-0.2766,-0.2995,-0.2764,-0.3179,-0.3987,-0.3985,-0.5503,-0.8031,-0.8045,-0.7952,-0.7952,-0.7969,-0.7769,-0.7356,-0.7356,-0.7637,-0.7991,-0.8146,-0.9378,-1.1237,0.0,0.0,0.0,0.0,0.0,0.0,0.0,0.0,0.0,0.0,0.0,0.0,-1.6595,-1.6522,-1.6522,-1.6522,-1.5908,-1.5287,-1.4743,-1.573,-1.6372,-1.6455,-1.7575,0.0,-1.9869,-2.1097,-2.231,-2.3452,-2.4655,-2.4925,-2.4244,-2.2592,-2.1169,-1.9925,-1.8792,-1.7282,-1.5584,-1.5644,-1.5611,-1.5632,-1.6238,-1.6522,-1.6522,-1.6522,-1.6466,-1.6466,-1.6466,-1.6466,-1.6466,-1.6466,-1.6095,-1.5632,-1.5632,-1.5588,-1.5588,0.0,0.0,0.0,0.0,-2.365,0.0,-2.6286,-2.6725,-2.6825,-2.721,-2.7352,-2.7918,-2.9747,-3.0222,-3.0616,-3.1719,-3.3015,-3.3596,-3.2606,-2.9054,-2.5112,-2.1436,-1.7617,-1.4893,-1.4362,-1.3988,-1.4305,-1.5577,-1.4576,-1.3939,-1.4197,-1.3161,-1.0779,-0.6754,-0.4413,-0.4355,-0.7042,-0.2686,-0.0358,-0.018,-0.018,-0.018,-0.018,-0.018,-0.1563,-0.4019,-0.4014,-0.5511,-0.8017,-0.8035,-0.7985,-0.7985,-0.7989,-0.7056,-0.5522,-0.5522,-0.6457,-0.7918,-0.9056,-1.0045,-1.1185,0.0,0.0,0.0,0.0,0.0,0.0,0.0,0.0,0.0,0.0,0.0,0.0,0.0,-1.6522,-1.6522,-1.6522,-1.5964,-1.5499,-1.5276,-1.5676,-1.6053,-1.6434,-1.7272,-1.8048,-1.8865,-2.0293,-2.1485,-2.2307,-2.3431,-2.3465,-2.2364,-2.0721,-1.8865,-1.6865,-1.662,-1.6146,-1.5487,-1.5143,-1.5231,-1.5632,-1.6238,-1.6522,-1.6522,-1.6522,-1.6522,-1.6522,-1.6522,-1.6522,-1.6522,-1.6522,-1.6095,-1.5543,-1.5141,-1.5017,-1.5219,-1.6311,-1.7437,0.0,0.0,0.0,0.0,-2.4743,-2.5118,-2.5132,-2.5285,-2.5504,-2.6034,-2.7187,-2.7939,-2.8619,-2.9268,-3.0809,-3.1229,-2.8909,-2.5712,-2.2082,-1.7974,-1.5575,-1.3689,-1.2155,-1.3135,-1.3608,-1.2628,-1.3425,-1.3047,-1.0815,-1.1612,-1.0659,-0.6986,-0.0504,0.2807,0.2067,0.0688,-0.0,-0.0,-0.0,-0.0,-0.0,-0.0,-0.054,-0.1404,-0.1421,-0.1927,-0.2946,-0.4652,-0.5454,-0.5541,-0.7146,-0.735,-0.6831,-0.6731,-0.7627,-0.9095,-0.9225,-1.0875,-1.3207,0.0,0.0,0.0,0.0,0.0,0.0,0.0,0.0,0.0,-1.7933,0.0,0.0,0.0,0.0,-1.6522,-1.6522,-1.5964,-1.5676,-1.5908,-1.5908,-1.6095,-1.6466,-1.7074,-1.7664,-1.8269,-1.9692,-2.0775,-2.1382,-2.2323,-2.2104,-2.0783,-1.9159,-1.7266,-1.519,-1.5055,-1.4851,-1.4612,-1.4693,-1.5062,-1.5632,-1.6051,-1.6194,-1.6194,-1.6194,-1.6064,-1.5932,-1.6337,-1.638,-1.6238,-1.6423,-1.6095,-1.5543,-1.5152,-1.5017,-1.5353,-1.7027,-1.7786,-1.857,-2.0645,0.0,0.0,-2.3127,-2.3631,-2.3794,-2.3425,-2.3817,-2.4423,-2.4829,-2.5605,-2.6243,-2.6313,-2.6939,-2.6922,-2.5419,-2.2431,-1.8892,-1.4908,-1.3215,-1.1746,-1.0155,-1.1513,-1.208,-1.0965,-1.169,-1.1544,-1.0001,-1.0157,-0.8688,-0.4916,0.2257,0.6518,0.7056,0.2523,-0.0,-0.0,-0.0,-0.0,-0.0,-0.0,-0.0,-0.0,-0.0,-0.0,-0.0193,-0.3592,-0.5083,-0.5196,-0.6743,-0.7508,-0.7581,-0.8037,-0.8792,-0.964,-1.0537,-1.2249,-1.4331,0.0,0.0,0.0,0.0,0.0,0.0,0.0,0.0,-1.7907,-1.7394,0.0,0.0,0.0,0.0,0.0,-1.6466,-1.5908,-1.582,-1.6423,-1.6466,-1.6466,-1.6522,-1.7074,-1.7632,-1.8179,-1.9344,-2.0207,-2.0763,-2.1374,-2.0948,-1.9609,-1.8044,-1.6512,-1.5121,-1.4216,-1.3464,-1.2908,-1.4168,-1.505,-1.5632,-1.5588,-1.5588,-1.5588,-1.5588,-1.5231,-1.488,-1.6064,-1.6151,-1.5744,-1.6306,-1.6132,-1.5635,-1.5635,-1.5623,-1.594,-1.7626,-1.808,-1.8453,0.0,0.0,0.0,-2.1521,-2.2404,-2.2951,-2.1822,-2.245,-2.3167,-2.301,-2.3437,-2.3631,-2.2858,-2.1523,-2.0977,-2.221,-1.9251,-1.561,-1.2356,-1.041,-0.8995,-0.826,-0.8894,-0.9719,-1.0723,-0.9349,-0.9453,-1.1964,-0.8427,-0.4315,-0.0244,0.3898,0.6402,0.7087,0.2515,-0.0,-0.0,-0.0,-0.0,-0.0,-0.0174,-0.0178,-0.0,-0.0,-0.0,-0.0278,-0.502,-0.7075,-0.7088,-0.7053,-0.7259,-0.7604,-0.9202,-0.9526,-0.9674,-1.2988,-1.4208,-1.4476,0.0,0.0,0.0,0.0,0.0,0.0,-1.8968,-1.8458,-1.7907,0.0,0.0,0.0,-1.6522,-1.6095,-1.5864,-1.5864,-1.5287,-1.5197,-1.582,-1.5864,-1.6051,-1.6466,-1.7074,-1.7465,-1.7632,-1.8729,-1.9351,-1.9484,-2.0062,-1.9649,-1.8377,-1.7652,-1.6067,-1.3912,-1.4296,-1.4064,-1.3507,-1.4801,-1.5688,-1.6194,-1.5776,-1.5588,-1.5588,-1.5588,-1.5499,-1.5454,-1.6238,-1.6685,-1.6945,-1.7092,-1.7011,-1.6836,-1.6836,-1.6514,-1.642,-1.7761,-1.7851,-1.7693,-1.8602,0.0,0.0,0.0,0.0,0.0,-2.1091,-2.1286,-2.1574,-2.1843,-2.2422,-2.2527,-2.137,-2.0141,-1.8596,-1.6387,-1.4374,-1.2347,-1.0307,-0.8969,-0.8192,-0.8267,-0.9316,-0.9942,-0.9751,-1.0589,-1.0269,-0.8095,-0.4128,-0.1236,-0.0077,0.1146,0.3194,0.6432,0.228,-0.0,-0.0,-0.0,-0.0,-0.0,-0.3458,-0.3364,-0.0,-0.0,-0.0,-0.0278,-0.5039,-0.7057,-0.7076,-0.7121,-0.783,-0.8909,-0.9118,-1.0577,-1.2729,-1.375,-1.5545,-1.7645,0.0,0.0,0.0,0.0,0.0,0.0,-1.8341,-1.7987,-1.7585,0.0,0.0,0.0,-1.6522,-1.5732,-1.532,-1.5588,-1.5062,-1.4971,-1.5543,-1.582,-1.6249,-1.6873,-1.7426,-1.784,-1.8066,-1.8907,-1.9346,-1.9346,-1.9673,-1.9258,-1.8236,-1.7533,-1.6266,-1.4531,-1.4923,-1.4858,-1.455,-1.5531,-1.6194,-1.6436,-1.582,-1.5708,-1.5928,-1.5928,-1.6081,-1.6416,-1.726,-1.7835,-1.8183,-1.8432,-1.8507,-1.8431,-1.815,-1.7831,-1.766,-1.8343,-1.8113,-1.7776,-1.8311,-1.9006,-1.9489,-1.9234,0.0,0.0,-1.9165,-1.933,-1.9517,-1.9094,-1.9634,-1.985,-1.8806,-1.7614,-1.5996,-1.3477,-1.1621,-1.017,-0.9039,-0.8412,-0.7403,-0.5915,-0.6353,-0.6503,-0.5526,-0.65,-0.586,-0.2784,-0.0228,0.1128,0.1116,0.044,0.1164,0.3574,0.1311,-0.0,-0.0,-0.1732,-0.2627,-0.2648,-0.3645,-0.3746,-0.2874,-0.0899,-0.1095,-0.3014,-0.4712,-0.6317,-0.7834,-0.7658,-0.8232,-0.9331,-1.0569,-1.2287,-1.4142,-1.5554,-1.7293,-1.8982,0.0,0.0,0.0,0.0,-1.8855,-1.8458,-1.7463,-1.7312,-1.7118,0.0,-1.6522,-1.6522,-1.6522,-1.5466,-1.5017,-1.5543,-1.5096,-1.5017,-1.5543,-1.6244,-1.6848,-1.7363,-1.7965,-1.853,-1.897,-1.9535,-1.9798,-1.9798,-1.9742,-1.9346,-1.861,-1.7668,-1.6802,-1.602,0.0,0.0,-1.5708,-1.6386,-1.6727,-1.6744,-1.6046,-1.6065,-1.6566,-1.6596,-1.6965,-1.7596,-1.881,-1.9321,-1.9527,-2.0267,-2.0538,-2.0462,-1.9731,-1.9462,-1.9364,-1.9034,-1.8585,-1.8234,-1.8584,-1.8693,-1.8665,-1.8279,-1.8896,0.0,-1.7087,-1.7359,-1.7623,-1.606,-1.6429,-1.6835,-1.6126,-1.4974,-1.3726,-1.2424,-1.0465,-0.8799,-0.7986,-0.7569,-0.5992,-0.2331,-0.17,-0.0925,0.0543,0.0698,0.1307,0.2953,0.3013,0.3045,0.3029,0.1444,0.0433,-0.0,-0.0361,-0.0579,-0.058,-0.418,-0.6073,-0.6227,-0.2536,-0.2703,-0.6162,-0.2473,-0.3034,-0.6894,-0.4706,-0.5681,-0.8865,-0.8734,-0.8932,-0.9679,-1.2741,-1.4178,-1.4842,-1.8009,-1.9265,-1.9376,0.0,0.0,0.0,0.0,0.0,-1.8027,-1.7394,-1.7312,-1.7118,-1.6552,-1.6522,-1.6522,-1.6522,-1.5876,-1.5454,-1.5588,-1.5499,-1.5454,-1.5588,-1.6613,-1.7262,-1.7375,-1.8342,-1.887,-1.8983,-1.9535,-1.9798,-1.9798,-1.9371,-1.8879,-1.8269,-1.7652,-1.6761,-1.5718,-1.6144,-1.6299,-1.6293,-1.7301,-1.8082,-1.8561,-1.7304,-1.7115,-1.7569,-1.7929,-1.8176,-1.8446,-1.9765,-2.0513,-2.1094,-2.2406,-2.3224,-2.3498,-2.2312,-2.1623,-2.0933,-1.9253,-1.8394,-1.7748,-1.6834,-1.6903,-1.7368,-1.7838,-1.799,0.0,-1.8218,-1.7931,-1.7594,-1.7241,-1.7353,-1.728,-1.6514,-1.5302,-1.3697,-1.1477,-0.9856,-0.8001,-0.5689,-0.317,-0.1319,-0.0543,0.062,0.233,0.4854,0.4854,0.4795,0.5162,0.5211,0.512,0.4881,0.4549,0.3004,0.0068,-0.28,-0.4365,-0.432,-0.3914,-0.4614,-0.6291,-0.5695,-0.4016,-0.1481,-0.4132,-0.5811,-0.6505,-0.7188,-0.7994,-0.883,-1.1078,-1.2062,-1.2258,-1.3209,-1.516,-1.7692,-1.9472,-2.069,-2.141,0.0,0.0,0.0,0.0,0.0,0.0,-1.6133,-1.6275,-1.6373,-1.6095,-1.6324,-1.6522,-1.6522,-1.5952,-1.5588,-1.5588,-1.5588,-1.5695,-1.5956,-1.6872,-1.7626,-1.8179,-1.8731,-1.9145,-1.9409,-1.9673,-1.9798,-1.9798,-1.9277,-1.887,-1.8575,-1.7759,-1.7007,-1.6446,-1.6769,-1.7055,-1.7463,-1.8281,-1.9266,-2.0194,-1.8995,-1.8882,-1.9467,-1.9703,-2.0405,-2.1383,-2.2064,-2.308,-2.4263,-2.5404,-2.5676,-2.5357,-2.4272,-2.3546,-2.2644,-2.0501,-1.9345,-1.8507,-1.7438,-1.6977,-1.6961,-1.7569,-1.7928,0.0,0.0,-1.7317,-1.7113,-1.6358,-1.6182,-1.6144,-1.5995,-1.5286,-1.4021,-1.1914,-0.9655,-0.7275,-0.4901,-0.1934,0.0778,0.2884,0.3746,0.4748,0.6013,0.6019,0.5845,0.5781,0.5633,0.557,0.5624,0.5483,0.374,0.0134,-0.3496,-0.5379,-0.5378,-0.4725,-0.4925,-0.605,-0.6355,-0.5314,-0.3248,-0.5504,-0.6499,-0.6489,-0.7873,-0.8935,-0.9925,-1.1812,-1.3686,-1.5414,-1.6035,-1.7388,-1.926,-2.0951,-2.2243,-2.3048,-1.9006,0.0,0.0,0.0,0.0,0.0,0.0,-1.5244,-1.5712,-1.6061,-1.6417,-1.6799,-1.7145,-1.6541,-1.6175,-1.6429,-1.6212,-1.636,-1.7057,-1.7488,-1.8113,-1.9001,-1.9107,-1.9334,-1.9648,-1.9748,-1.9798,-1.9798,-1.9175,-1.8865,-1.8839,-1.7665,-1.7188,-1.7299,-1.7368,-1.7901,-1.8746,-1.939,-2.0474,-2.1721,-2.1028,-2.1039,-2.1451,-2.1485,-2.2632,-2.4288,-2.4746,-2.601,-2.7554,-2.8231,-2.7843,-2.6884,-2.5839,-2.5036,-2.3983,-2.1498,-2.0193,-1.9287,-1.8284,-1.7364,-1.6787,-1.7401,-1.7878,-1.782,0.0,0.0,0.0,-1.5322,-1.5029,-1.5137,-1.5469,-1.5149,-1.4342,-1.2683,-1.0033,-0.7513,-0.5544,-0.3158,0.0078,0.4484,0.5381,0.5475,0.5421,0.578,0.5935,0.5665,0.4865,0.448,0.4654,0.4846,0.3455,0.0134,-0.3493,-0.5403,-0.5393,-0.5603,-0.5744,-0.581,-0.5701,-0.5899,-0.6278,-0.6215,-0.644,-0.6962,-0.8216,-0.9668,-1.1252,-1.2732,-1.5118,-1.8017,-1.8747,-1.9511,-2.0437,-2.2402,-2.3654,-2.4258,-1.9006,-1.8535,0.0,0.0,0.0,0.0,0.0,-1.5418,-1.6186,-1.777,-1.7545,-1.7834,-1.9496,-1.859,-1.8276,-1.9496,-1.8508,-1.8331,-1.962,-1.9141,-1.8891,-1.9087,-1.9468,-1.9522,-1.912,-1.9572,-1.9798,-1.9798,-1.8767,-1.8298,-1.8273,-1.7125,-1.6837,-1.7312,-1.7719,-1.8639,-1.9873,-2.0891,-2.2014,-2.3138,-2.3599,-2.3358,-2.2722,-2.288,-2.3685,-2.4995,-2.7083,-2.8571,-2.956,-2.9581,-2.937,-2.8728,-2.6798,-2.5508,-2.4072,-2.0918,-1.9698,-1.8954,-1.7342,-1.6535,-1.6337,-1.7089,-1.6804,-1.6497,-1.6919,0.0,-1.6572,-1.6056,0.0,-1.5998,-1.6037,0.0,0.0,-1.2816,-1.1744,-1.0319,-0.7924,-0.7472,-0.5357,-0.008,0.1892,0.2986,0.3247,0.4953,0.5864,0.546,0.244,0.065,0.0672,0.2408,0.2342,0.0067,-0.3489,-0.5393,-0.5379,-0.5521,-0.5676,-0.571,-0.4198,-0.4469,-0.6287,-0.601,-0.6693,-0.8185,-0.9622,-1.0931,-1.2331,-1.5782,-1.7523,-1.8007,-1.8931,-2.0246,-2.2007,-2.399,-2.485,-2.4801,-1.8612,-1.8263,0.0,0.0,0.0,0.0,0.0,-1.5671,-1.703,-1.8173,-1.8636,-1.9207,-2.0017,-1.9614,-1.9475,-2.0031,-1.9225,-1.9239,-2.0473,-1.957,-1.9337,-2.0078,-1.9888,-1.9698,-1.9484,-1.9685,-1.9798,-1.9798,-1.8731,-1.838,-1.8608,-1.7169,-1.6951,-1.7773,-1.8413,-1.9493,-2.0898,-2.209,-2.3231,-2.4308,-2.4504,-2.4404,-2.4126,-2.4136,-2.4986,-2.6563,-2.9341,-3.0257,-3.0267,-3.0716,-3.0216,-2.9137,-2.7695,-2.6114,-2.4313,-2.1964,-2.0358,-1.9107,-1.7526,-1.6904,-1.6717,-1.6598,-1.6995,-1.7221,-1.6717,-1.6941,-1.7222,-1.6933,0.0,0.0,0.0,0.0,0.0,0.0,-1.2528,-1.1166,-0.9832,-0.8877,-0.6864,-0.2955,-0.1449,0.0751,0.4485,0.3988,0.3928,0.5299,0.2992,0.2008,0.3102,0.3939,0.3105,0.0067,-0.2138,-0.3951,-0.5379,-0.5433,-0.5511,-0.5474,-0.3747,-0.3313,-0.4291,-0.6379,-0.7645,-0.8452,-1.0916,-1.287,-1.4462,-1.7408,-1.9249,-2.0257,-2.1019,-2.1958,-2.2922,-2.3706,-2.466,-2.5203,-1.8805,0.0,0.0,-1.5507,-1.5017,0.0,-1.4797,-1.6414,-1.8004,-1.916,-1.9892,-2.0514,-2.1012,-2.0912,-2.0884,-2.104,-2.0613,-2.0656,-2.1366,-2.052,-2.0159,-2.0545,-2.0374,-2.0049,-1.9597,-2.0028,-2.0207,-2.0042,-1.9127,-1.8852,-1.9221,-1.7652,-1.7504,-1.8531,-1.9275,-2.0431,-2.1876,-2.3081,-2.4124,-2.4998,-2.4943,-2.5,-2.5115,-2.5463,-2.6313,-2.7698,-3.064,-3.1187,-3.06,-3.1177,-3.0359,-2.892,-2.7998,-2.6194,-2.4104,-2.2578,-2.0964,-1.9421,-1.8388,-1.792,-1.7655,-1.7277,-1.7779,-1.8078,-1.7012,-1.7265,-1.7663,-1.7445,-1.7031,0.0,0.0,0.0,-1.5504,-1.467,0.0,-1.1783,-1.1217,-0.9899,-0.8084,-0.5496,-0.39,-0.13,0.3285,0.2139,0.1818,0.3691,0.2278,0.2573,0.5225,0.4745,0.3219,0.0601,-0.0333,-0.1999,-0.4422,-0.4414,-0.4724,-0.5222,-0.4311,-0.3877,-0.4046,-0.7333,-0.9039,-0.9496,-1.2311,-1.462,-1.6561,-1.8784,-2.0579,-2.1975,-2.2546,-2.3027,-2.3323,-2.3463,-2.4225,-2.4931,-2.0061,-1.8907,-1.7705,-1.6474,-1.5853,-1.5965,-1.7124,-1.7774,-1.9065,-2.1485,-2.1225,-2.1537,-2.3314,-2.2954,-2.2835,-2.3432,-2.3477,-2.3201,-2.2665,-2.2538,-2.1765,-2.0112,-2.0936,-2.069,-1.9033,-2.0668,-2.1312,-2.0746,-2.0148,-1.9858,-1.983,-1.8617,-1.8584,-1.957,-2.033,-2.1466,-2.2911,-2.386,-2.4561,-2.5022,-2.5203,-2.5293,-2.5457,-2.7016,-2.7601,-2.7904,-3.049,-3.1148,-3.0792,-3.0836,-2.9699,-2.8211,-2.7365,-2.5255,-2.2913,-2.2207,-2.1028,-1.9881,-1.9844,-1.9525,-1.9316,-1.9669,-1.9174,-1.8564,-1.8564,-1.7965,-1.7429,-1.7383,-1.7031,-1.6865,-1.7305,-1.6281,-1.5195,-1.4756,-1.3793,0.0,0.0,-1.1205,-1.0014,-0.8085,-0.5129,-0.3129,-0.285,-0.1081,-0.0,-0.021,-0.1313,0.0218,0.5158,0.3215,0.1867,0.1732,0.1732,0.0532,-0.1866,-0.1933,-0.2903,-0.4932,-0.6289,-0.6966,-0.7052,-0.8948,-1.0645,-1.2152,-1.3899,-1.6038,-1.8343,-2.0175,-2.1329,-2.2002,-2.2775,-2.2923,-2.2805,-2.3827,-2.3896,-2.339,-2.0131,0.0,-1.8658,-1.672,-1.691,-1.788,-1.9609,-2.1041,-2.2525,-2.4194,-2.4911,-2.5516,-2.6171,-2.6033,-2.5871,-2.56,-2.4717,-2.4138,-2.3885,-2.261,-2.1807,-2.1602,-2.1549,-2.1479,-2.1368,-2.1511,-2.1765,-2.2051,-2.1038,-2.0745,-2.1039,-1.9139,-1.8983,-2.0325,-2.0442,-2.1289,-2.2726,-2.4059,-2.4839,-2.5184,-2.5141,-2.5373,-2.5869,-2.6708,-2.7345,-2.8023,-2.9688,-2.9962,-2.9458,-2.8886,-2.7371,-2.5629,-2.4706,-2.2797,-2.0926,-2.113,-2.0639,-2.0222,-2.1087,-2.1441,-2.1521,-2.1307,-2.0591,-1.9683,-1.8797,-1.7995,-1.757,-1.7995,-1.7757,-1.7583,-1.8032,-1.6683,-1.5379,-1.5047,-1.3527,-1.2287,0.0,-1.1162,-0.9585,-0.7076,-0.5921,-0.5231,-0.5196,-0.4424,-0.3979,-0.3939,-0.3195,-0.1051,0.2817,0.3754,0.4159,0.4151,0.3,0.1397,-0.06,-0.1797,-0.3753,-0.634,-0.7066,-0.8318,-0.9933,-1.196,-1.333,-1.4261,-1.6195,-1.7897,-1.9286,-2.1136,-2.1987,-2.2196,-2.2867,-2.2501,-2.1795,-2.2468,-2.2477,-2.1997,-2.1138,-2.092,-2.0141,-1.7768,-1.8721,-2.0332,-2.1816,-2.3773,-2.5389,-2.6245,-2.727,-2.7814,-2.7645,-2.755,-2.7211,-2.6562,-2.5839,-2.5078,-2.442,-2.3541,-2.2871,-2.2373,-2.2185,-2.2107,-2.2234,-2.231,-2.2583,-2.3041,-2.226,-2.2031,0.0,0.0,0.0,-2.064,-2.072,-2.1375,-2.2464,-2.3968,-2.4818,-2.5115,-2.4981,-2.5125,-2.5449,-2.6051,-2.7022,-2.8198,-2.9072,-2.8621,-2.7404,-2.5982,-2.3955,-2.197,-2.1355,-1.9802,-1.8489,-1.9885,-1.991,-1.9859,-2.1338,-2.2227,-2.2612,-2.2273,-2.1273,-2.0129,-1.9272,-1.8011,-1.7392,-1.8537,-1.8342,-1.8155,-1.8795,-1.7357,-1.6048,-1.5868,-1.4307,-1.2821,0.0,-1.0864,-0.8765,-0.5521,-0.536,-0.5681,-0.6108,-0.6112,-0.5983,-0.5787,-0.4084,-0.1881,0.1016,0.2575,0.3599,0.4076,0.2499,0.114,0.0066,-0.1981,-0.4877,-0.8691,-0.9695,-1.0847,-1.2199,-1.4119,-1.5309,-1.6053,-1.7701,-1.9054,-2.0104,-2.1462,-2.2133,-2.2372,-2.2865,-2.2454,-2.1445,-2.161,-2.1306,-2.0849,-2.3018,-2.2766,-2.2076,-1.9763,-2.1341,-2.3147,-2.3861,-2.6086,-2.7673,-2.769,-2.8343,-2.8554,-2.7874,-2.7594,-2.7178,-2.6426,-2.6761,-2.618,-2.4294,-2.524,-2.4832,-2.2498,-2.2912,-2.2745,-2.1825,-2.3046,-2.3744,-2.3782,-2.3659,-2.3596,0.0,0.0,0.0,0.0,-2.114,-2.1657,-2.2166,-2.3635,-2.4463,-2.479,-2.4813,-2.4654,-2.4476,-2.5211,-2.6626,-2.8256,-2.844,-2.6982,-2.4577,-2.2117,-1.942,-1.7101,-1.7433,-1.6425,-1.5634,-1.8209,-1.8676,-1.8789,-2.0525,-2.1749,-2.254,-2.2465,-2.1141,-1.9907,-1.9844,-1.8061,-1.7032,-1.9002,-1.8844,-1.8675,-1.9577,-1.8247,-1.7021,-1.7004,-1.5945,-1.4458,-1.2205,-1.0427,-0.7921,-0.374,-0.398,-0.4799,-0.5717,-0.6103,-0.6143,-0.579,-0.4273,-0.2488,-0.0486,-0.0485,-0.0,0.1313,0.0138,-0.0407,-0.0262,-0.2593,-0.6479,-1.1909,-1.3865,-1.4496,-1.3986,-1.555,-1.6806,-1.7804,-1.862,-1.9674,-2.0901,-2.1403,-2.1945,-2.2475,-2.2971,-2.2653,-2.1859,-2.1359,-2.0639,-1.998,-2.367,-2.3822,-2.399,-2.3359,-2.3775,-2.4739,-2.6317,-2.8339,-2.9848,-3.0324,-3.0975,-3.1142,-3.0353,-2.9826,-2.9026,-2.768,-2.7189,-2.6498,-2.5511,-2.5228,-2.4798,-2.4192,-2.4433,-2.4503,-2.43,-2.4759,-2.5034,-2.5112,-2.4153,-2.3679,-2.3589,0.0,0.0,0.0,-2.0132,-2.0617,-2.1953,-2.313,-2.3994,-2.4599,-2.4893,-2.5234,-2.5542,-2.5408,-2.5585,-2.5772,-2.4818,-2.2524,-1.9509,-1.6609,-1.295,-1.0019,-1.197,-1.1777,-1.1172,-1.3395,-1.529,-1.7025,-1.827,-1.9553,-2.0617,-2.1047,-1.9909,-1.872,-1.8981,-1.8163,-1.7951,-2.0065,-1.982,-1.9526,-2.0415,-1.8805,-1.7199,-1.6773,-1.5861,-1.4751,-1.3314,-1.1945,-0.9675,-0.5858,-0.7096,-0.7718,-0.6307,-0.6047,-0.6161,-0.6675,-0.6588,-0.6184,-0.5339,-0.5866,-0.5748,-0.4634,-0.4958,-0.5058,-0.486,-0.7573,-1.1284,-1.5925,-1.5967,-1.6553,-1.7673,-1.9058,-2.0306,-2.1387,-2.2121,-2.2585,-2.2956,-2.35,-2.3838,-2.3932,-2.3997,-2.3399,-2.2327,-2.1202,-2.036,-1.998,-2.4732,-2.5301,-2.6085,-2.6365,-2.706,-2.7808,-2.8278,-2.9797,-3.0873,-3.0937,-3.1453,-3.1442,-3.0358,-2.9799,-2.9284,-2.8646,-2.7643,-2.702,-2.6863,-2.627,-2.5787,-2.5548,-2.5262,-2.5154,-2.5204,-2.5199,-2.5433,-2.6033,-2.4487,-2.3836,-2.4067,0.0,0.0,0.0,-1.9958,-2.0391,-2.1563,-2.3231,-2.4397,-2.5031,-2.5208,-2.5095,0.0,-2.4529,-2.3581,-2.2254,-2.1053,-1.8458,-1.489,-1.0102,-0.6369,-0.3895,-0.4984,-0.4923,-0.4902,-0.743,-0.9347,-1.101,-1.2684,-1.3947,-1.5169,-1.6756,-1.5771,-1.5157,-1.7623,-1.7449,-1.7627,-2.06,-2.0824,-2.0729,-2.1778,-2.0357,-1.8854,-1.8451,-1.7532,-1.667,-1.5949,-1.4528,-1.2569,-0.9773,-1.0713,-1.1089,-0.9857,-0.8379,-0.7756,-0.8459,-0.897,-0.9304,-0.9472,-1.0403,-1.0955,-1.0953,-1.1348,-1.1346,-1.101,-1.3277,-1.5839,-1.8651,-1.8335,-1.8931,-2.0192,-2.0975,-2.1671,-2.2297,-2.2643,-2.2998,-2.3303,-2.3875,-2.4277,-2.4542,-2.5048,-2.4616,-2.3654,-2.2975,-2.187,-2.0834,-2.6228,-2.7051,-2.8023,-2.8502,-3.0038,-3.0846,-2.9724,-3.0715,-3.1317,-3.0434,-3.0768,-3.0538,-2.9228,-2.8638,-2.8591,-2.8978,-2.7915,-2.7406,-2.7959,-2.7482,-2.7062,-2.6772,-2.5816,-2.5338,-2.537,-2.5097,-2.5448,-2.6467,-2.4707,-2.4144,-2.465,0.0,0.0,0.0,-2.0174,-2.051,-2.1147,-2.3506,-2.483,-2.5341,-2.5367,-2.4539,-2.3304,-2.3033,-2.1206,-1.8664,-1.7662,-1.4818,-1.0504,-0.3694,-0.0196,0.1512,0.2502,0.2827,0.2256,-0.0808,-0.2166,-0.3083,-0.5237,-0.6503,-0.789,-1.0264,-1.0067,-1.0663,-1.5724,-1.6478,-1.7197,-2.1183,-2.1848,-2.2137,-2.327,-2.2089,-2.0892,-2.0651,-1.9933,-1.9275,-1.8997,-1.7513,-1.5929,-1.4421,-1.4313,0.0,-1.4378,-1.164,-1.014,-1.0823,-1.1391,-1.2202,-1.3298,-1.4413,-1.5692,-1.7047,-1.786,-1.8043,-1.7612,-1.8945,-2.0044,-2.0894,-2.1118,-2.1525,-2.2136,-2.2267,-2.2352,-2.2423,-2.2508,-2.2965,-2.3603,-2.412,-2.4648,-2.523,-2.6231,-2.6238,-2.5641,-2.5665,-2.4467,-2.2719,-2.8801,-2.9071,-2.9089,-2.8448,-2.9421,-3.0228,-2.9826,-3.1431,-3.2205,-3.0746,-3.0693,-3.0471,-2.9493,-2.845,-2.76,-2.7062,-2.6791,-2.6841,-2.7394,-2.6917,-2.7074,-2.8124,-2.7176,-2.6475,-2.6094,-2.622,-2.6102,-2.5779,-2.4941,-2.4577,-2.465,-2.2122,-2.0841,-2.0624,-1.9664,-1.9849,-2.1025,-2.2801,-2.3473,-2.3454,-2.4344,-2.4225,-2.3322,-2.1456,-1.9246,-1.7051,-1.5979,-1.1813,-0.5928,-0.0262,0.3693,0.655,0.8093,0.8689,0.8205,0.5397,0.3703,0.2634,0.1874,0.0154,-0.1594,-0.2141,-0.4709,-0.8218,-1.2406,-1.6127,-1.9628,-2.2971,-2.335,-2.3283,-2.3883,-2.2177,-2.0681,-2.0643,-2.044,-2.0342,-2.0253,-1.9337,-1.8375,-1.7556,-1.6629,-1.5974,-1.5781,-1.318,-1.2103,-1.3632,-1.3985,-1.5133,-1.7588,-1.8567,-1.969,-2.1029,-2.1628,-2.2247,-2.3033,-2.3171,-2.3706,-2.4508,-2.4426,-2.4443,-2.4585,-2.518,-2.5743,-2.635,-2.6914,-2.7556,-2.8215,-2.834,-2.845,-2.8503,-2.8159,-2.8225,-2.8367,-2.7345,-2.704,-2.6757,-2.9939,-2.9711,-2.9506,-2.9736,-3.0168,-3.0331,-3.0065,-3.1158,-3.1459,-2.9849,-2.9605,-2.9158,-2.8071,-2.7687,-2.7467,-2.7352,-2.7055,-2.7118,-2.767,-2.7564,-2.7699,-2.7998,-2.7797,-2.7244,-2.6322,-2.6164,-2.6093,-2.6123,-2.4824,-2.4534,-2.5156,-2.3256,-2.2165,-2.174,-2.0786,-2.1299,-2.2793,-2.3194,-2.3628,-2.4144,-2.4668,-2.4137,-2.2828,-2.0978,-1.8199,-1.5081,-1.3319,-0.867,-0.2507,0.2507,0.5637,0.7716,0.9134,0.9681,0.9402,0.7503,0.654,0.5901,0.516,0.4242,0.3062,0.1734,-0.1717,-0.6672,-1.4295,-1.8014,-2.0752,-2.4024,-2.4246,-2.3809,-2.3638,-2.2688,-2.2039,-2.2445,-2.2506,-2.2664,-2.3059,-2.1957,-2.0931,-2.0361,-1.8993,-1.8134,-1.7999,-1.6715,-1.6011,-1.6066,-1.6971,-1.8119,-1.9521,-2.1509,-2.2793,-2.3082,-2.486,-2.5791,-2.5782,-2.6122,-2.628,-2.6264,-2.5779,-2.5517,-2.555,-2.6021,-2.6446,-2.6823,-2.7528,-2.8233,-2.8922,-2.9246,-2.9637,-2.999,-2.998,-3.0179,-3.0328,-2.9623,-2.9545,-2.9247,-3.0565,-3.0148,-2.99,-3.0623,-3.0724,-3.047,-2.9967,-3.0455,-3.0372,-2.8952,-2.8525,-2.7906,-2.676,-2.6917,-2.7281,-2.772,-2.7356,-2.7293,-2.772,-2.7993,-2.7987,-2.7696,-2.7823,-2.7377,-2.6399,-2.5712,-2.5659,-2.6168,-2.4758,-2.4607,-2.5581,-2.4575,-2.3607,-2.2671,-2.2278,-2.2786,-2.3881,-2.3576,-2.39,-2.4665,-2.4808,-2.3827,-2.2147,-2.0542,-1.7525,-1.3772,-1.0765,-0.631,-0.1227,0.3082,0.5863,0.7716,0.89,0.9357,0.9316,0.8399,0.7609,0.674,0.5668,0.5364,0.4731,0.2343,-0.1499,-0.7083,-1.6613,-1.9843,-2.1661,-2.4662,-2.4714,-2.406,-2.3245,-2.3078,-2.3327,-2.3961,-2.4213,-2.4526,-2.5108,-2.3958,-2.2857,-2.2274,-2.0854,-1.9893,-1.9945,-2.0085,-1.9709,-1.8692,-1.9819,-2.0673,-2.0929,-2.3668,-2.5058,-2.4649,-2.7346,-2.8562,-2.8014,-2.8275,-2.8188,-2.7739,-2.6623,-2.6197,-2.6345,-2.6531,-2.6812,-2.7136,-2.7729,-2.8363,-2.9036,-2.9562,-3.0308,-3.1164,-3.1546,-3.1916,-3.2181,-3.1728,-3.1514,-3.0971,-3.1101,-3.097,-3.0651,-2.9738,-2.9918,-2.998,-2.9125,-2.9568,-2.9694,-2.9,-2.8409,-2.788,-2.7268,-2.6804,-2.6634,-2.6684,-2.6634,-2.6634,-2.6684,-2.6762,-2.7227,-2.794,-2.699,-2.6533,-2.6594,-2.5344,-2.4701,-2.4761,-2.5224,-2.5476,-2.561,-2.55,-2.4433,-2.2713,-2.3183,-2.2873,-2.2033,-2.3057,-2.3289,-2.2968,-2.3525,-2.2965,-2.1539,-1.9525,-1.7203,-1.4335,-0.9254,-0.6109,-0.3931,-0.0604,0.3655,0.7794,0.9385,1.0021,1.0062,0.9352,0.6939,0.4199,0.2821,0.1831,0.0686,-0.1062,-0.5891,-1.1405,-1.5903,-1.9816,-2.3018,-2.4968,-2.4781,-2.406,-2.3245,-2.3078,-2.3141,-2.3367,-2.3892,-2.438,-2.4463,-2.3836,-2.3181,-2.2602,-2.1406,-2.0643,-2.0668,-2.1238,-2.1746,-2.2177,-2.1963,-2.2196,-2.3065,-2.5018,-2.6267,-2.6714,-2.8544,-2.9998,-3.0995,-2.9685,-2.9301,-2.9889,-2.8053,-2.7506,-2.8163,-2.7826,-2.8424,-2.9736,-2.9842,-3.028,-3.0954,-3.1021,-3.184,-3.3059,-3.2541,-3.3151,-3.4186,-3.2939,-3.2453,-3.2155,-3.0794,-3.0793,-3.0588,-2.9552,-2.9378,-2.9389,-2.9466,-2.9641,-2.9578,-2.9001,-2.8448,-2.7896,-2.7344,-2.6791,-2.6533,-2.6533,-2.6533,-2.6506,-2.658,-2.7163,-2.7516,-2.7553,-2.7234,-2.6751,-2.6033,-2.5394,-2.5085,-2.5085,-2.6557,-2.7256,-2.7283,-2.7367,-2.6344,-2.4418,-2.3484,-2.3183,-2.3407,-2.3143,-2.3082,-2.3251,-2.349,-2.2831,-2.156,-2.0307,-1.7914,-1.4959,-1.2486,-0.9038,-0.5478,-0.4058,0.088,0.663,0.7258,0.5898,0.3927,0.2853,0.1278,-0.0451,-0.2149,-0.3726,-0.5532,-0.8083,-1.3207,-1.7947,-1.8963,-2.1555,-2.393,-2.4682,-2.4581,-2.406,-2.3245,-2.3078,-2.3301,-2.3817,-2.4477,-2.4845,-2.4488,-2.4231,-2.3568,-2.2259,-2.1603,-2.1277,-2.1299,-2.225,-2.3111,-2.3699,-2.3982,-2.4141,-2.4198,-2.6275,-2.784,-2.8622,-2.9662,-3.0825,-3.2107,-3.1195,-3.0794,-3.0912,-2.9651,-2.9193,-2.9446,-2.8909,-2.9243,-3.0225,-3.0225,-3.061,-3.119,-3.119,-3.207,-3.3364,-3.3117,-3.3677,-3.4479,-3.3547,-3.2882,-3.2163,-3.0645,-3.0611,-3.0515,-2.964,-2.9336,-2.9315,-2.9729,-2.9792,-2.9641,-2.9239,-2.8699,-2.8072,-2.7356,-2.6929,-2.6697,-2.6546,-2.6533,-2.6464,-2.6437,-2.7263,-2.7513,-2.7078,-2.7196,-2.6752,-2.563,-2.5465,-2.5308,-2.5106,-2.6867,-2.768,-2.752,-2.7674,-2.6839,-2.5255,-2.3864,-2.3448,-2.3763,-2.2993,-2.2859,-2.3096,-2.2907,-2.2343,-2.1608,-2.0534,-1.8486,-1.5976,-1.4958,-1.1942,-0.833,-0.7444,-0.3813,0.0689,0.2908,0.1783,-0.0958,-0.3732,-0.5231,-0.6438,-0.8455,-1.013,-1.1878,-1.4637,-1.8757,-2.2076,-2.1648,-2.2762,-2.3865,-2.3879,-2.3781,-2.3573,-2.316,-2.3078,-2.3314,-2.3895,-2.4617,-2.4901,-2.4307,-2.409,-2.339,-2.1978,-2.1559,-2.1453,-2.1592,-2.2651,-2.3594,-2.4152,-2.5046,-2.5293,-2.4673,-2.6978,-2.8657,-2.9389,-3.0564,-3.1753,-3.2918,-3.2347,-3.194,-3.1751,-3.0711,-3.0322,-3.049,-2.9846,-2.9716,-3.0038,-3.0208,-3.0518,-3.0958,-3.1274,-3.2275,-3.3639,-3.375,-3.4347,-3.5031,-3.4121,-3.3181,-3.2018,-3.0748,-3.0582,-3.0441,-2.9859,-2.9779,-2.9779,-2.9792,-2.9792,-2.9792,-2.9779,-2.9277,-2.8499,-2.7406,-2.7268,-2.7055,-2.6584,-2.6533,-2.6365,-2.5936,-2.6627,-2.6872,-2.6515,-2.6598,-2.6288,-2.5615,-2.5465,-2.5076,-2.4405,-2.5614,-2.5977,-2.5419,-2.5576,-2.527,-2.4597,-2.4567,-2.36,-2.1961,-2.248,-2.2379,-2.186,-2.1184,-2.1246,-2.1525,-1.9798,-1.8586,-1.7568,-1.5367,-1.4175,-1.3223,-1.0689,-1.116,-1.1453,-0.4002,-0.153,-0.2638,-0.8894,-1.1873,-1.37,-1.6165,-1.7149,-1.7939,-1.9865,-2.1199,-2.2318,-2.3175,-2.2988,-2.2587,-2.2356,-2.2322,-2.2485,-2.2977,-2.3078,-2.3128,-2.3315,-2.3866,-2.4166,-2.3678,-2.3068,-2.2419,-2.1887,-2.1202,-2.1028,-2.1615,-2.2339,-2.3007,-2.3659,-2.4861,-2.5293,-2.456,-2.6963,-2.8494,-2.873,-3.1148,-3.2898,-3.3788,-3.2999,-3.2596,-3.257,-3.0962,-3.0574,-3.1253,-3.0566,-2.9978,-2.9451,-3.0021,-3.0293,-3.0377,-3.1363,-3.2743,-3.4224,-3.4639,-3.544,-3.6215,-3.4801,-3.3478,-3.1967,-3.0862,-3.0907,-3.0626,-2.9416,-2.9528,-2.9792,-2.9792,-2.9453,-2.934,-2.9741,-2.8963,-2.8235,-2.7883,-2.7507,-2.7055,-2.6584,-2.6101,-2.6115,-2.6607,-2.6558,-2.6666,-2.7233,-2.6832,-2.6288,-2.5615,-2.5843,-2.5622,-2.495,-2.6701,-2.7122,-2.6196,-2.5803,-2.5001,-2.3924,-2.3924,-2.3378,-2.2437,-2.225,-2.1799,-2.1173,-2.0589,-2.0196,-1.9852,-1.9296,-1.8467,-1.7407,-1.6254,-1.5145,-1.4192,-1.3523,-1.305,-1.2513,-1.1316,-0.9977,-0.9594,-1.3199,-1.4294,-1.4985,-1.7521,-1.8544,-1.9215,-2.0809,-2.1227,-2.1277,-2.1562,-2.1432,-2.1495,-2.2178,-2.2309,-2.2472,-2.2977,-2.3078,-2.3135,-2.3137,-2.3488,-2.3352,-2.233,-2.2088,-2.1822,-2.1189,-2.1269,-2.1677,-2.23,-2.3297,-2.402,-2.423,-2.5325,-2.5805,-2.5272,-2.7674,-2.9646,-3.0828,-3.2102,-3.337,-3.4605,-3.4005,-3.3598,-3.3403,-3.2307,-3.1149,-2.9955,-2.9351,-2.8966,-2.8826,-2.9406,-2.9935,-3.041,-3.2021,-3.3266,-3.4224,-3.4622,-3.544,-3.6086,-3.3576,-3.1716,-3.0236,-3.076,-3.0708,-3.0455,-2.9416,-2.9365,-2.9465,-2.9465,-2.8988,-2.875,-2.9114,-2.8549,-2.8021,-2.7821,-2.7494,-2.6967,-2.6201,-2.6324,-2.6491,-2.6667,-2.6884,-2.7169,-2.7604,-2.6946,-2.6288,-2.5615,-2.6014,-2.5863,-2.5221,-2.6454,-2.6735,-2.6068,-2.5211,-2.4403,-2.3595,-2.3595,-2.301,-2.1991,-2.1652,-2.103,-2.0184,-1.9377,-1.9079,-1.9046,-1.8636,-1.8003,-1.733,-1.6916,-1.6016,-1.504,-1.5554,-1.4934,-1.4192,-1.5624,-1.5303,-1.4601,-1.5776,-1.6154,-1.6577,-1.8581,-1.9629,-2.0434,-2.1307,-2.116,-2.0681,-2.0461,-2.0386,-2.0652,-2.1769,-2.1995,-2.2234,-2.2927,-2.3078,-2.3078,-2.3078,-2.3058,-2.2652,-2.1612,-2.1424,-2.125,-2.0875,-2.1545,-2.2164,-2.2328,-2.3447,-2.3935,-2.3431,-2.4696,-2.5298,-2.4819,-2.764,-2.9863,-3.1026,-3.2156,-3.3322,-3.4532,-3.422,-3.4013,-3.3978,-3.3087,-3.1404,-2.8963,-2.8601,-2.8061,-2.7369,-2.8275,-2.9009,-2.9696,-3.1696,-3.3043,-3.3827,-3.4429,-3.4738,-3.4533,-3.203,-2.9699,-2.7583,-3.0601,-3.0243,-3.006,-2.9845,-2.9315,-2.8925,-2.8925,-2.8423,-2.8059,-2.8024,-2.7961,-2.7808,-2.726,-2.7243,-2.6848,-2.5753,-2.6907,-2.724,-2.6356,-2.7513,-2.8068,-2.7694,-2.6961,-2.6288,-2.5615,-2.6014,-2.5863,-2.5221,-2.5221,-2.5182,-2.5067,-2.4074,-2.3595,-2.3595,-2.3551,-2.2585,-2.0955,-2.0868,-2.0121,-1.8942,-1.7887,-1.8016,-1.8824,-1.7811,-1.7388,-1.7388,-1.7388,-1.6724,-1.5939,-1.692,-1.6872,-1.6554,-1.7492,-1.7743,-1.7622,-1.6781,-1.7398,-1.8498,-1.9385,-2.0459,-2.1368,-2.1368,-2.0991,-2.0464,-1.9924,-1.9798,-2.0125,-2.1255,-2.1493,-2.1832,-2.2924,-2.304,-2.3015,-2.3015,-2.2585,-2.202,-2.1506,-2.0953,-2.0717,-2.0861,-2.1884,-2.2415,-2.1868,-2.282,-2.3008,-2.1825,-2.3286,-2.3997,-2.3527,-2.7018,-2.9247,-2.9694,-3.1551,-3.2934,-3.3781,-3.3781,-3.3884,-3.4028,-3.3223,-3.1188,-2.8151,-2.8147,-2.7089,-2.537,-2.6732,-2.7648,-2.842,-3.0701,-3.2189,-3.3043,-3.3886,-3.3276,-3.1724,-2.9957,-2.7187,-2.4091,-3.1897,-3.0847,-2.9846,-2.9844,-2.9315,-2.8925,-2.8925,-2.8109,-2.7391,-2.7015,-2.6902,-2.6719,-2.6251,-2.6445,-2.6637,-2.6622,-2.6868,-2.721,-2.7583,-2.7655,-2.7875,-2.8368,-2.7215,-2.6288,-2.5615,-2.6014,-2.5863,-2.5221,-2.5221,-2.4792,-2.3948,-2.3724,-2.3595,-2.3595,-2.3098,-2.2412,-2.1476,-2.057,-1.9514,-1.8401,-1.81,-1.7655,-1.7142,-1.7352,-1.7388,-1.7388,-1.7388,-1.7472,-1.7656,-1.8338,-1.8462,-1.8473,-1.9059,-1.9254,-1.915,-1.8359,-1.8387,-1.8762,-1.9556,-1.9995,-2.02,-2.02,-2.01,-1.9974,-1.9836,-1.9798,-2.0125,-2.1255,-2.1493,-2.1832,-2.2924,-2.2786,-2.251,-2.251,-2.1694,-2.1004,-2.0932,-2.0363,-2.0386,-2.1355,-2.1686,-2.2196,-2.2974,-2.2865,-2.271,-2.2889,-2.3187,-2.3777,-2.4656,-2.699,-2.8843,-2.9978,-3.19,-3.3124,-3.3651,-3.3651,-3.3,-3.1688,-3.1073,-2.9328,-2.6601,-2.5562,-2.4854,-2.4463,-2.5824,-2.6842,-2.7841,-3.0833,-3.1907,-3.1758,-3.2196,-3.1166,-2.9049,-2.5476,-2.2433,-1.9865,-3.1097,-3.0199,-2.9315,-2.9063,-2.8762,-2.8461,-2.821,-2.7457,-2.671,-2.5947,-2.6009,-2.5908,-2.5493,-2.5812,-2.6429,-2.7209,-2.7635,-2.796,-2.8183,-2.8365,-2.8503,-2.8622,-2.7021,-2.5974,-2.5615,-2.5686,-2.5699,-2.5577,-2.5051,-2.4552,-2.3948,-2.3709,-2.3595,-2.3551,-2.2965,-2.2346,-2.1594,-2.0187,-1.9188,-1.853,-1.8028,-1.7463,-1.6974,-1.7539,-1.7601,-1.7413,-1.7664,-1.7953,-1.8292,-1.8844,-1.8983,-1.9071,-1.9635,-1.9798,-1.9695,-1.9307,-1.9202,-1.9307,-1.9695,-1.9987,-2.02,-2.02,-2.0449,-2.063,-2.0682,-2.0925,-2.1457,-2.2628,-2.2604,-2.2609,-2.3495,-2.2908,-2.2309,-2.2309,-2.138,-2.0718,-2.0718,-2.0162,-2.0284,-2.1524,-2.1885,-2.231,-2.2963,-2.3138,-2.3145,-2.2871,-2.3242,-2.3837,-2.4558,-2.6472,-2.8295,-2.9956,-3.1638,-3.2707,-3.3123,-3.3012,-3.2059,-3.0389,-2.958,-2.7862,-2.5342,-2.4235,-2.3392,-2.2874,-2.4313,-2.5287,-2.6036,-2.8701,-2.9396,-2.881,-2.8704,-2.6943,-2.4227,-2.2283,-1.9515,-1.653,-2.9774,-2.9168,-2.8662,-2.8185,-2.8034,-2.7821,-2.7356,-2.6816,-2.6164,-2.5146,-2.5455,-2.5562,-2.5028,-2.558,-2.6422,-2.7749,-2.8684,-2.9055,-2.8699,-2.9256,-2.934,-2.8771,-2.6737,-2.5615,-2.5615,-2.5269,-2.5297,-2.5762,-2.4871,-2.4348,-2.4266,-2.3794,-2.3595,-2.3551,-2.2875,-2.2239,-2.158,-1.984,-1.9068,-1.8895,-1.8003,-1.7576,-1.7564,-1.8129,-1.8041,-1.7689,-1.8166,-1.838,-1.8518,-1.8982,-1.9096,-1.9221,-1.966,-1.9798,-1.9798,-1.9798,-1.9798,-1.9798,-1.9798,-2.0225,-2.0743,-2.0927,-2.1393,-2.1785,-2.2043,-2.2487,-2.3156,-2.4277,-2.4028,-2.3734,-2.4231,-2.3238,-2.2349,-2.241,-2.1443,-2.0781,-2.0945,-2.0413,-2.0487,-2.159,-2.2193,-2.2548,-2.2548,-2.3398,-2.3541,-2.2518,-2.3326,-2.3941,-2.4117,-2.5869,-2.7699,-2.9507,-3.0939,-3.1842,-3.2286,-3.1982,-3.0981,-2.9318,-2.8226,-2.6315,-2.3811,-2.2847,-2.1834,-2.0807,-2.2303,-2.3169,-2.3738,-2.5459,-2.5739,-2.4973,-2.4731,-2.2329,-1.8912,-1.8637,-1.6067,-1.2401,-3.0499,-2.9319,-2.821,-2.8122,-2.772,-2.7381,-2.7293,-2.6816,-2.6164,-2.5146,-2.58,-2.5995,-2.5075,-2.6438,-2.7762,-2.8734,-2.9566,-3.0047,-2.9981,-2.9773,-2.9535,-2.943,-2.6976,-2.5615,-2.5615,-2.4891,-2.4536,-2.4672,-2.4471,-2.4158,-2.3709,-2.3638,-2.3595,-2.3551,-2.2363,-2.1805,-2.156,-1.9794,-1.8994,-1.902,-1.8844,-1.8493,-1.8141,-1.8694,-1.8795,-1.8781,-1.8869,-1.9183,-1.956,-1.966,-1.9685,-1.9698,-1.9773,-1.9798,-1.9798,-1.9798,-1.9798,-1.9798,-1.9798,-2.0225,-2.098,-2.206,-2.2392,-2.2591,-2.3255,-2.346,-2.3719,-2.436,-2.4391,-2.4327,-2.4288,-2.3339,-2.2656,-2.2908,-2.1694,-2.0991,-2.192,-2.1581,-2.1517,-2.2165,-2.2326,-2.2559,-2.3083,-2.2827,-2.2703,-2.2975,-2.3115,-2.369,-2.4644,-2.609,-2.728,-2.7998,-2.9692,-3.0616,-3.0839,-3.0593,-2.9377,-2.7156,-2.5948,-2.3721,-2.0726,-1.9027,-1.8409,-1.8785,-1.9682,-2.0846,-2.2068,-2.2725,-2.2163,-2.0937,-2.2165,-1.9942,-1.5506,-1.1236,-0.722,-0.3971,-2.9776,-2.8641,-2.757,-2.7268,-2.7256,-2.718,-2.6879,-2.6697,-2.6164,-2.5146,-2.5603,-2.576,-2.5052,-2.6384,-2.7717,-2.8911,-2.9827,-3.0464,-3.0896,-3.0116,-2.9579,-2.9579,-2.738,-2.5935,-2.5514,-2.4465,-2.4116,-2.4389,-2.4116,-2.3837,-2.3595,-2.3595,-2.3595,-2.3551,-2.2665,-2.2053,-2.1622,-2.0175,-1.9351,-1.8983,-1.8983,-1.8694,-1.8292,-1.9133,-1.9271,-1.907,-1.9346,-1.9597,-1.9798,-1.9798,-1.9798,-1.9798,-1.9798,-1.9798,-1.9798,-1.9798,-2.0024,-2.0338,-2.0627,-2.1161,-2.1859,-2.2786,-2.3621,-2.4389,-2.5091,-2.5537,-2.5981,-2.6582,-2.6122,-2.554,-2.5522,-2.4163,-2.3221,-2.3683,-2.2267,-2.1393,-2.2196,-2.1832,-2.1706,-2.2265,-2.2318,-2.2539,-2.3109,-2.2913,-2.2987,-2.3552,-2.3602,-2.4079,-2.5184,-2.5855,-2.6687,-2.7657,-2.8999,-2.9735,-2.9752,-2.8601,-2.7029,-2.507,-2.2907,-2.0881,-1.8915,-1.7432,-1.6911,-1.7187,-1.7882,-1.8408,-1.8927,-1.9552,-1.8786,-1.7319,-1.8412,-1.5339,-0.9924,-0.6284,-0.2801,0.0397,-2.8365,-2.7536,-2.6753,-2.6339,-2.6716,-2.6954,-2.6596,-2.6533,-2.6233,-2.5441,-2.5642,-2.5735,-2.5648,-2.6657,-2.7877,-2.9213,-3.0072,-3.0837,-3.1467,-3.0313,-2.9579,-2.9579,-2.7515,-2.5997,-2.5231,-2.4157,-2.3794,-2.4184,-2.3794,-2.3595,-2.3595,-2.3595,-2.3595,-2.3551,-2.2965,-2.2346,-2.1622,-2.0496,-1.9694,-1.9196,-1.9033,-1.8844,-1.8668,-1.9497,-1.9649,-1.9458,-1.9902,-2.0144,-2.0232,-2.0093,-2.0144,-2.0181,-1.9901,-1.9901,-2.0029,-2.0013,-2.0501,-2.1104,-2.1405,-2.2043,-2.2813,-2.367,-2.4938,-2.6145,-2.6913,-2.7595,-2.8188,-2.8727,-2.7845,-2.6953,-2.678,-2.5024,-2.3843,-2.4371,-2.2904,-2.197,-2.2786,-2.2309,-2.2083,-2.2636,-2.2585,-2.2673,-2.3027,-2.3263,-2.3527,-2.3966,-2.423,-2.4732,-2.5548,-2.5724,-2.6314,-2.7446,-2.8387,-2.8645,-2.8099,-2.6351,-2.4669,-2.2971,-1.99,-1.799,-1.7016,-1.5771,-1.5289,-1.5502,-1.615,-1.6342,-1.6113,-1.6309,-1.5428,-1.397,-1.424,-1.0695,-0.4974,-0.173,0.1036,0.3471,-2.6543,-2.5975,-2.5699,-2.5661,-2.6138,-2.6584,-2.6533,-2.6533,-2.6452,-2.6383,-2.6427,-2.6731,-2.7391,-2.8322,-2.9199,-3.0133,-3.097,-3.1409,-3.1482,-3.0313,-2.9579,-2.9579,-2.7081,-2.5345,-2.4687,-2.3954,-2.3638,-2.3681,-2.3638,-2.3595,-2.3595,-2.3595,-2.3595,-2.3551,-2.2965,-2.2346,-2.1622,-2.0496,-1.9902,-1.9698,-1.9221,-1.9296,-1.9698,-1.9773,-2.0181,-2.0644,-2.0733,-2.1113,-2.1459,-2.093,-2.1113,-2.1363,-2.0181,-2.0258,-2.0714,-2.065,-2.1355,-2.2083,-2.1619,-2.2382,-2.3628,-2.4956,-2.6313,-2.7549,-2.8278,-2.8996,-2.9445,-2.9505,-2.8928,-2.824,-2.7552,-2.5805,-2.4573,-2.4958,-2.3495,-2.2811,-2.4406,-2.3703,-2.3226,-2.3803,-2.3401,-2.3027,-2.3078,-2.3615,-2.3954,-2.4004,-2.4921,-2.5511,-2.5586,-2.6101,-2.6544,-2.679,-2.7631,-2.7086,-2.5031,-2.4186,-2.2834,-2.0916,-1.7389,-1.519,-1.4261,-1.2839,-1.2575,-1.3171,-1.4048,-1.4765,-1.5147,-1.3375,-1.1972,-1.0947,-1.0138,-0.7107,-0.257,0.3454,0.5924,0.6356,-2.5595,-2.4741,-2.428,-2.428,-2.4774,-2.5345,-2.5857,-2.6226,-2.6533,-2.6533,-2.6905,-2.7351,-2.767,-2.8608,-2.9476,-3.0225,-3.0645,-3.1076,-3.1452,-3.0672,-2.9609,-2.8382,-2.6587,-2.5495,-2.5241,-2.4163,-2.3595,-2.3595,-2.3595,-2.3595,-2.3595,-2.3595,-2.3595,-2.3595,-2.3377,-2.2905,-2.2285,-2.1875,-2.0996,-1.9941,-2.0083,-2.0057,-1.9966,-2.0317,-2.0818,-2.1342,-2.1342,-2.1245,-2.1161,-2.1293,-2.1245,-2.1064,-2.0597,-2.0597,-2.0764,-2.0701,-2.1763,-2.2963,-2.2743,-2.3655,-2.497,-2.6369,-2.8016,-2.9415,-2.9719,-3.0313,-3.0672,-3.0238,-2.9654,-2.8976,-2.8148,-2.699,-2.613,-2.6122,-2.4833,-2.4092,-2.4732,-2.4456,-2.4004,-2.3527,-2.3891,-2.4042,-2.3703,-2.418,-2.4644,-2.4971,-2.5372,-2.5749,-2.6113,-2.6408,-2.6312,-2.6049,-2.5841,-2.5521,-2.5065,-2.3219,-2.1371,-1.9449,-1.5823,-1.3685,-1.2893,-1.2058,-1.1813,-1.208,-1.2728,-1.3205,-1.3375,-1.2565,-1.1668,-1.0616,-0.9231,-0.6674,-0.3182,0.103,0.3407,0.4653,-2.3974,-2.3137,-2.2667,-2.2819,-2.3392,-2.4092,-2.4821,-2.554,-2.595,-2.595,-2.662,-2.7247,-2.7504,-2.8581,-2.9652,-3.0601,-3.0996,-3.1317,-3.1807,-3.0799,-2.952,-2.7964,-2.6422,-2.5615,-2.5615,-2.4103,-2.34,-2.3595,-2.34,-2.34,-2.3595,-2.3595,-2.3595,-2.3595,-2.3595,-2.3275,-2.2694,-2.2694,-2.1875,-2.0549,-2.0952,-2.0871,-2.0563,-2.0965,-2.1486,-2.1993,-2.1993,-2.1866,-2.1724,-2.196,-2.1866,-2.1595,-2.121,-2.1063,-2.104,-2.0967,-2.2098,-2.3477,-2.3941,-2.5039,-2.6286,-2.7276,-2.9013,-3.0507,-3.0507,-3.1046,-3.1405,-3.0926,-3.0313,-2.9684,-2.9083,-2.8037,-2.7152,-2.6872,-2.5716,-2.4883,-2.5046,-2.4921,-2.4594,-2.3979,-2.4456,-2.4669,-2.4293,-2.4745,-2.5209,-2.5573,-2.5774,-2.6038,-2.6508,-2.6533,-2.6276,-2.5887,-2.501,-2.4618,-2.4719,-2.1912,-1.9576,-1.7746,-1.4138,-1.205,-1.1198,-1.072,-1.067,-1.0975,-1.1643,-1.2081,-1.2305,-1.1996,-1.1391,-1.0634,-0.8983,-0.6889,-0.4414,-0.095,0.1033,0.2541,-2.1549,-2.1003,-2.0899,-2.1306,-2.2238,-2.3011,-2.3418,-2.4263,-2.482,-2.482,-2.5445,-2.6214,-2.7134,-2.838,-2.9855,-3.1449,-3.2171,-3.2507,-3.2579,-3.0706,-2.928,-2.8607,-2.6677,-2.5615,-2.56,-2.3684,-2.2981,-2.3595,-2.2981,-2.2996,-2.3595,-2.3595,-2.3595,-2.3595,-2.3595,-2.329,-2.2694,-2.2694,-2.23,-2.1697,-2.1697,-2.1697,-2.1697,-2.1697,-2.21,-2.2694,-2.2694,-2.3098,-2.3508,-2.292,-2.3098,-2.3363,-2.2132,-2.165,-2.1577,-2.1526,-2.2407,-2.3737,-2.5066,-2.6466,-2.7501,-2.7501,-2.9028,-3.0507,-3.0507,-3.1046,-3.1482,-3.1482,-3.0986,-3.0507,-3.0507,-2.8684,-2.7221,-2.7221,-2.5847,-2.5008,-2.5523,-2.5159,-2.5021,-2.5523,-2.5146,-2.4833,-2.4833,-2.5297,-2.5598,-2.5598,-2.6138,-2.6533,-2.6521,-2.6533,-2.6533,-2.6521,-2.5511,-2.448,-2.3514,-1.9951,-1.731,-1.5576,-1.219,-1.0009,-0.8882,-0.8524,-0.8923,-0.9776,-1.0656,-1.1493,-1.2224,-1.1236,-1.0783,-1.064,-0.8951,-0.7484,-0.5819,-0.1638,-0.0,0.0567,-2.1199,-2.0428,-2.0218,-2.0357,-2.1174,-2.2101,-2.2799,-2.403,-2.5,-2.5508,-2.6289,-2.7134,-2.791,-2.8797,-3.0007,-3.1471,-3.1713,-3.1656,-3.1218,-3.0603,-2.9373,-2.731,-2.6168,-2.539,-2.4881,-2.3445,-2.2981,-2.3595,-2.2981,-2.2996,-2.3595,-2.3595,-2.3595,-2.3595,-2.3595,-2.3508,-2.3334,-2.3334,-2.295,-2.2406,-2.2406,-2.2406,-2.2406,-2.2406,-2.277,-2.3334,-2.3334,-2.3201,-2.3009,-2.3246,-2.3157,-2.292,-2.2543,-2.2359,-2.2373,-2.2841,-2.3898,-2.5061,-2.5952,-2.72,-2.8261,-2.8261,-2.9744,-3.1106,-3.0612,-3.139,-3.2093,-3.1571,-3.1317,-3.1038,-3.047,-2.9327,-2.8277,-2.7659,-2.6659,-2.5887,-2.5636,-2.5812,-2.5749,-2.5121,-2.5598,-2.5812,-2.541,-2.5875,-2.6201,-2.6201,-2.6433,-2.6345,-2.5875,-2.6239,-2.6345,-2.5862,-2.4376,-2.3538,-2.3514,-2.0234,-1.7564,-1.5576,-1.219,-1.0009,-0.8882,-0.9228,-0.9442,-0.9847,-1.1993,-1.3022,-1.3237,-1.2938,-1.2858,-1.2558,-0.9976,-0.8456,-0.7435,-0.5226,-0.254,0.0162,-2.0585,-1.9951,-1.9827,-2.0425,-2.112,-2.2067,-2.3365,-2.4343,-2.5198,-2.6002,-2.6569,-2.7159,-2.7864,-2.8869,-3.0131,-3.1817,-3.2176,-3.1806,-3.062,-3.0308,-2.8978,-2.6336,-2.5824,-2.5181,-2.4238,-2.3206,-2.2862,-2.3236,-2.2862,-2.2996,-2.3595,-2.3595,-2.3595,-2.3595,-2.3595,-2.3595,-2.3595,-2.3595,-2.3377,-2.3054,-2.3054,-2.3054,-2.3054,-2.3054,-2.3275,-2.3595,-2.3595,-2.3377,-2.3098,-2.3465,-2.3377,-2.3009,-2.2799,-2.2833,-2.3119,-2.346,-2.4535,-2.5661,-2.6337,-2.7342,-2.8188,-2.8188,-2.9669,-3.1016,-3.0597,-3.1345,-3.1928,-3.127,-3.1345,-3.1261,-3.0543,-2.9643,-2.8812,-2.8298,-2.7229,-2.6339,-2.5988,-2.6239,-2.6214,-2.5548,-2.605,-2.6395,-2.5963,-2.6319,-2.6533,-2.6533,-2.6533,-2.637,-2.5963,-2.6264,-2.6302,-2.595,-2.4155,-2.3223,-2.3514,-2.041,-1.7789,-1.5576,-1.2512,-1.0479,-0.9452,-1.0013,-1.0434,-1.0881,-1.2934,-1.398,-1.4243,-1.3882,-1.3673,-1.3448,-1.0858,-0.9432,-0.8519,-0.6857,-0.4706,-0.2464,-1.9944,-1.9732,-2.0025,-2.1387,-2.2028,-2.2942,-2.4746,-2.5127,-2.5494,-2.641,-2.6505,-2.673,-2.7425,-2.8654,-3.0222,-3.2237,-3.3057,-3.2646,-3.0603,-2.9879,-2.8317,-2.5689,-2.5555,-2.4896,-2.355,-2.2966,-2.2739,-2.2798,-2.2739,-2.2996,-2.3595,-2.3595,-2.3595,-2.3595,-2.3595,-2.3595,-2.3595,-2.3595,-2.3595,-2.3595,-2.3595,-2.3595,-2.3595,-2.3595,-2.3595,-2.3595,-2.3595,-2.3595,-2.361,-2.367,-2.3729,-2.3687,-2.3139,-2.3363,-2.3861,-2.3848,-2.4717,-2.5814,-2.6428,-2.71,-2.7625,-2.7625,-2.8966,-3.0357,-3.0417,-3.0911,-3.1195,-3.0612,-3.1001,-3.1183,-3.0481,-2.966,-2.9052,-2.887,-2.7577,-2.6589,-2.6533,-2.6533,-2.6533,-2.6533,-2.6533,-2.6533,-2.6533,-2.6533,-2.6533,-2.6533,-2.6533,-2.6508,-2.6445,-2.6496,-2.6508,-2.6445,-2.4601,-2.3661,-2.3661,-2.07,-1.808,-1.574,-1.3346,-1.1609,-1.0538,-1.1197,-1.1877,-1.2665,-1.3664,-1.4605,-1.5234,-1.4314,-1.3882,-1.3665,-1.1668,-1.026,-0.9064,-0.7134,-0.6513,-0.6312,-2.0473,-2.1085,-2.2009,-2.342,-2.4284,-2.5169,-2.633,-2.6296,-2.641,-2.7156,-2.6845,-2.6953,-2.8143,-2.8934,-3.0012,-3.1512,-3.2727,-3.2586,-3.0633,-2.9872,-2.834,-2.5706,-2.5121,-2.4223,-2.2906,-2.2783,-2.2921,-2.34,-2.2921,-2.2996,-2.3595,-2.3595,-2.3595,-2.3595,-2.3595,-2.3595,-2.3595,-2.3595,-2.3595,-2.3595,-2.3595,-2.3595,-2.3595,-2.3595,-2.3595,-2.3595,-2.3595,-2.3595,-2.3684,-2.4223,-2.4747,-2.512,-2.5027,-2.5084,-2.5275,-2.5815,-2.616,-2.6525,-2.7179,-2.7458,-2.7625,-2.7625,-2.8293,-2.9146,-2.9669,-2.9894,-3.0103,-3.0432,-3.0627,-3.0339,-2.9083,-2.9477,-2.9411,-2.7628,-2.7367,-2.7229,-2.6589,-2.6533,-2.6533,-2.6533,-2.6533,-2.6533,-2.6533,-2.6533,-2.6533,-2.6533,-2.6533,-2.6264,-2.5799,-2.6214,-2.6251,-2.5799,-2.5071,-2.4636,-2.4636,-2.2381,-1.9792,-1.6798,-1.5175,-1.3933,-1.3112,-1.328,-1.3563,-1.4088,-1.546,-1.6132,-1.628,-1.607,-1.5508,-1.4657,-1.2677,-1.084,-0.9145,-0.7923,-0.7081,-0.6599,-2.1534,-2.257,-2.392,-2.5728,-2.6706,-2.7683,-2.885,-2.8292,-2.794,-2.8462,-2.7636,-2.7515,-2.8764,-2.9225,-2.9907,-3.1175,-3.2261,-3.2033,-3.0119,-2.9351,-2.7973,-2.5691,-2.4986,-2.4163,-2.3131,-2.3116,-2.3131,-2.3161,-2.3131,-2.3281,-2.3595,-2.3595,-2.3595,-2.3595,-2.3595,-2.3595,-2.3595,-2.3595,-2.3595,-2.3595,-2.3595,-2.3595,-2.3595,-2.3595,-2.3595,-2.3595,-2.3595,-2.3819,-2.4148,-2.4462,-2.5076,-2.5555,-2.5241,-2.557,-2.6078,-2.6108,-2.6572,-2.7126,-2.752,-2.7625,-2.7625,-2.7625,-2.7844,-2.8293,-2.8966,-2.9355,-2.9579,-2.9594,-3.0073,-3.0186,-2.9186,-2.9346,-2.9268,-2.8085,-2.7473,-2.6973,-2.6589,-2.6533,-2.6533,-2.6533,-2.6533,-2.6533,-2.6533,-2.6533,-2.6533,-2.6533,-2.6533,-2.6327,-2.6025,-2.6302,-2.6395,-2.6013,-2.5366,-2.5004,-2.5004,-2.3458,-2.1826,-2.0188,-1.8258,-1.7063,-1.6711,-1.7068,-1.718,-1.718,-1.8409,-1.8624,-1.8144,-1.751,-1.6788,-1.5905,-1.376,-1.2024,-1.0548,-0.9583,-0.8732,-0.8012,-2.2396,-2.3804,-2.5608,-2.7931,-2.9044,-3.0065,-3.1377,-3.0524,-2.9652,-2.9615,-2.8517,-2.8164,-2.915,-2.9406,-2.9995,-3.1095,-3.1749,-3.1333,-2.9528,-2.865,-2.7454,-2.5676,-2.4866,-2.4178,-2.361,-2.3595,-2.334,-2.2832,-2.334,-2.3595,-2.3595,-2.3595,-2.3595,-2.3595,-2.3595,-2.3595,-2.3595,-2.3595,-2.3595,-2.3595,-2.3595,-2.3595,-2.3595,-2.3595,-2.3595,-2.3595,-2.3595,-2.4118,-2.4761,-2.4881,-2.5405,-2.5854,-2.53,-2.5884,-2.6647,-2.6093,-2.6722,-2.7625,-2.7625,-2.7625,-2.7625,-2.7625,-2.7625,-2.7775,-2.8293,-2.8846,-2.9116,-2.8682,-2.9535,-3.0093,-2.9357,-2.9215,-2.9087,-2.8675,-2.7538,-2.662,-2.6395,-2.6382,-2.6276,-2.6189,-2.6264,-2.642,-2.6521,-2.6533,-2.6533,-2.6533,-2.6533,-2.6533,-2.6533,-2.6533,-2.6533,-2.6533,-2.5664,-2.5229,-2.5229,-2.4409,-2.4024,-2.4024,-2.191,-2.0792,-2.0424,-2.0889,-2.0855,-2.0565,-2.1241,-2.1039,-2.0181,-1.8856,-1.7937,-1.726,-1.508,-1.3484,-1.2298,-1.1403,-1.0656,-0.9933,-2.1997,-2.4256,-2.6909,-2.9619,-3.094,-3.2019,-3.3028,-3.205,-3.0842,-2.9744,-2.8921,-2.8525,-2.8621,-2.954,-3.0435,-3.1151,-3.1275,-3.0799,-2.9512,-2.8244,-2.695,-2.5661,-2.4403,-2.3684,-2.3595,-2.3595,-2.355,-2.3475,-2.355,-2.3595,-2.3595,-2.3595,-2.3595,-2.3595,-2.3595,-2.3595,-2.3595,-2.3595,-2.3595,-2.3595,-2.3595,-2.3595,-2.3595,-2.3595,-2.3595,-2.3595,-2.3595,-2.4403,-2.5555,-2.6138,-2.6767,-2.729,-2.72,-2.734,-2.7475,-2.7385,-2.749,-2.7625,-2.7625,-2.7625,-2.7625,-2.7625,-2.7625,-2.764,-2.7679,-2.7835,-2.7993,-2.8502,-2.919,-2.9327,-2.8035,-2.9045,-2.9459,-2.7498,-2.7406,-2.7102,-2.5908,-2.5711,-2.5548,-2.5096,-2.5435,-2.5912,-2.6483,-2.6533,-2.6533,-2.6533,-2.6533,-2.6533,-2.6533,-2.6533,-2.6533,-2.6533,-2.6383,-2.6314,-2.6314,-2.6164,-2.6082,-2.6082,-2.575,-2.4685,-2.2981,-2.2299,-2.2168,-2.2481,-2.2205,-2.2026,-2.1776,-2.0407,-1.9259,-1.8317,-1.6833,-1.5026,-1.3302,-1.2513,-1.2099,-1.2018,-2.3226,-2.559,-2.8167,-3.0535,-3.1678,-3.2583,-3.3406,-3.2068,-3.0627,-2.9699,-2.8667,-2.8157,-2.8462,-2.9585,-3.0518,-3.1151,-3.119,-3.0699,-2.9496,-2.8148,-2.6855,-2.5646,-2.4328,-2.3595,-2.3595,-2.3595,-2.3595,-2.3595,-2.3595,-2.3595,-2.3595,-2.3595,-2.3595,-2.3595,-2.3595,-2.3595,-2.3595,-2.3595,-2.3595,-2.3595,-2.3595,-2.3595,-2.3595,-2.3595,-2.3595,-2.3595,-2.3595,-2.4223,-2.5106,-2.539,-2.6183,-2.6961,-2.6587,-2.6976,-2.755,-2.7126,-2.729,-2.7625,-2.7625,-2.7625,-2.7625,-2.7625,-2.7625,-2.7625,-2.7625,-2.7874,-2.8233,-2.8547,-2.94,-2.9888,-2.93,-2.9389,-2.9219,-2.8216,-2.7512,-2.6815,-2.6181,-2.5799,-2.5696,-2.591,-2.6057,-2.6557,-2.7776,-2.704,-2.6714,-2.7162,-2.6782,-2.6533,-2.6533,-2.6533,-2.6533,-2.6533,-2.6533,-2.6533,-2.6533,-2.6533,-2.6533,-2.6533,-2.6533,-2.6013,-2.5181,-2.4402,-2.4186,-2.4366,-2.3562,-2.3261,-2.3258,-2.2046,-2.1185,-2.0382,-1.9,-1.7442,-1.5826,-1.5466,-1.5046,-1.4601]},{"header":{"parameterUnit":"m.s-1","parameterCategory":1,"la1":30.6,"la2":28.766,"lo1":-90.7593,"lo2":-88.6598,"dy":0.0162,"dx":0.0183,"nx":116,"ny":114,"refTime":"2023-07-03T06:00:00:Z","depth":0,"parameterNumber":3,"parameterNumberName":"V-component_of_WINDS"},"data":[0.0,0.0,0.0,0.0,0.0,0.0,0.0,0.0,0.0,0.0,0.0,0.0,0.0,0.0,0.0,0.0,0.0,0.0,0.0,0.0,0.0,0.0,0.0,0.0,0.0,0.0,0.0,0.0,0.0,0.0,0.0,0.0,0.0,0.0,0.0,0.0,0.0,0.0,0.0,0.0,0.0,0.0,0.0,0.0,0.0,0.0,0.0,0.0,0.0,0.0,0.0,0.0,0.0,0.0,0.0,0.0,0.0,0.0,0.0,0.0,0.0,0.0,0.0,0.0,0.0,0.0,0.0,0.0,0.0,0.0,0.0,0.0,0.0,0.0,0.0,0.0,0.0,0.0,0.0,0.0,0.0,0.0,0.0,0.0,0.0,0.0,0.0,0.0,0.0,0.0,0.0,0.0,0.0,0.0,0.0,0.0,0.0,0.0,0.0,0.0,0.0,0.0,0.0,0.0,0.0,0.0,0.0,0.0,0.0,0.0,0.0,0.0,0.0,0.0,0.0,0.0,0.0,0.0,0.0,0.0,0.0,0.0,0.0,0.0,0.0,0.0,0.0,0.0,0.0,0.0,0.0,0.0,0.0,0.0,0.0,0.0,0.0,0.0,0.0,0.0,0.0,0.0,0.0,0.0,0.0,0.0,0.0,0.0,0.0,0.0,0.0,0.0,0.0,0.0,0.0,0.0,0.0,0.0,0.0,0.0,0.0,0.0,0.0,0.0,0.0,0.0,0.0,0.0,0.0,0.0,0.0,0.0,0.0,0.0,0.0,0.0,0.0,0.0,0.0,0.0,0.0,0.0,0.0,0.0,0.0,0.0,0.0,0.0,0.0,0.0,0.0,0.0,0.0,0.0,0.0,0.0,0.0,0.0,0.0,0.0,0.0,0.0,0.0,0.0,0.0,0.0,0.0,0.0,0.0,0.0,0.0,0.0,0.0,0.0,0.0,0.0,0.0,0.0,0.0,0.0,0.0,0.0,0.0,0.0,0.0,0.0,0.0,0.0,0.0,0.0,0.0,0.0,0.0,0.0,0.0,0.0,0.0,0.0,0.0,0.0,0.0,0.0,0.0,0.0,0.0,0.0,0.0,0.0,0.0,0.0,0.0,0.0,0.0,0.0,0.0,0.0,0.0,0.0,0.0,0.0,0.0,0.0,0.0,0.0,0.0,0.0,0.0,0.0,0.0,0.0,0.0,0.0,0.0,0.0,0.0,0.0,0.0,0.0,0.0,0.0,0.0,0.0,0.0,0.0,0.0,0.0,0.0,0.0,0.0,0.0,0.0,0.0,0.0,0.0,0.0,0.0,0.0,0.0,0.0,0.0,0.0,0.0,0.0,0.0,0.0,0.0,0.0,0.0,0.0,0.0,0.0,0.0,0.0,0.0,0.0,0.0,0.0,0.0,0.0,0.0,0.0,0.0,0.0,0.0,0.0,0.0,0.0,0.0,0.0,0.0,0.0,0.0,0.0,0.0,0.0,0.0,0.0,0.0,0.0,0.0,0.0,0.0,0.0,0.0,0.0,0.0,0.0,0.0,0.0,0.0,0.0,0.0,0.0,0.0,0.0,0.0,0.0,0.0,0.0,0.0,0.0,0.0,0.0,0.0,0.0,0.0,0.0,0.0,0.0,0.0,0.0,0.0,0.0,0.0,0.0,0.0,0.0,0.0,0.0,0.0,0.0,0.0,0.0,0.0,0.0,0.0,0.0,0.0,0.0,0.0,0.0,0.0,0.0,0.0,0.0,0.0,0.0,0.0,0.0,0.0,0.0,0.0,0.0,0.0,0.0,0.0,0.0,0.0,0.0,0.0,0.0,0.0,0.0,0.0,0.0,0.0,0.0,0.0,0.0,0.0,0.0,0.0,0.0,0.0,0.0,0.0,0.0,0.0,0.0,0.0,0.0,0.0,0.0,0.0,0.0,0.0,0.0,0.0,0.0,0.0,0.0,0.0,0.0,0.0,0.0,0.0,0.0,0.0,0.0,0.0,0.0,0.0,0.0,0.0,0.0,0.0,0.0,0.0,0.0,0.0,0.0,0.0,0.0,0.0,0.0,0.0,0.0,0.0,0.0,0.0,0.0,0.0,0.0,0.0,0.0,0.0,0.0,0.0,0.0,0.0,0.0,0.0,0.0,0.0,0.0,0.0,0.0,0.0,0.0,0.0,0.0,0.0,0.0,0.0,0.0,0.0,0.0,0.0,0.0,0.0,0.0,0.0,0.0,0.0,0.0,0.0,0.0,0.0,0.0,0.0,0.0,0.0,0.0,0.0,0.0,0.0,0.0,0.0,0.0,0.0,0.0,0.0,0.0,0.0,0.0,0.0,0.0,0.0,0.0,0.0,0.0,0.0,0.0,0.0,0.0,0.0,0.0,0.0,0.0,0.0,0.0,0.0,0.0,0.0,0.0,0.0,0.0,0.0,0.0,0.0,0.0,0.0,0.0,0.0,0.0,0.0,0.0,0.0,0.0,0.0,0.0,0.0,0.0,0.0,0.0,0.0,0.0,0.0,0.0,0.0,0.0,0.0,0.0,0.0,0.0,0.0,0.0,0.0,0.0,0.0,0.0,0.0,0.0,0.0,0.0,0.0,0.0,0.0,0.0,0.0,0.0,0.0,0.0,0.0,0.0,0.0,0.0,0.0,0.0,0.0,0.0,0.0,0.0,0.0,0.0,0.0,0.0,0.0,0.0,0.0,0.0,0.0,0.0,0.0,0.0,0.0,0.0,0.0,0.0,0.0,0.0,0.0,0.0,0.0,0.0,0.0,0.0,0.0,0.0,0.0,0.0,0.0,0.0,0.0,0.0,0.0,0.0,0.0,0.0,0.0,0.0,0.0,0.0,0.0,0.0,0.0,0.0,0.0,0.0,0.0,0.0,0.0,0.0,0.0,0.0,0.0,0.0,0.0,0.0,0.0,0.0,0.0,0.0,0.0,0.0,0.0,0.0,0.0,0.0,0.0,0.0,0.0,0.0,0.0,0.0,0.0,0.0,0.0,0.0,0.0,0.0,0.0,0.0,0.0,0.0,0.0,0.0,0.0,0.0,0.0,0.0,0.0,0.0,0.0,0.0,0.0,0.0,0.0,0.0,0.0,0.0,0.0,0.0,0.0,0.0,0.0,0.0,0.0,0.0,0.0,0.0,0.0,0.0,0.0,0.0,0.0,0.0,0.0,0.0,0.0,0.0,0.0,0.0,0.0,0.0,0.0,0.0,0.0,0.0,0.0,0.0,0.0,0.0,0.0,0.0,0.0,0.0,0.0,0.0,0.0,0.0,0.0,0.0,0.0,0.0,0.0,0.0,0.0,0.0,0.0,0.0,0.0,0.0,0.0,0.0,0.0,0.0,0.0,0.0,0.0,0.0,0.0,0.0,0.0,0.0,0.0,0.0,0.0,0.0,0.0,0.0,0.0,0.0,0.0,0.0,0.0,0.0,0.0,0.0,0.0,0.0,0.0,0.0,0.0,0.0,0.0,0.0,0.0,0.0,0.0,0.0,0.0,0.0,0.0,0.0,0.0,0.0,0.0,0.0,0.0,0.0,0.0,0.0,0.0,0.0,0.0,0.0,0.0,0.0,0.0,0.0,0.0,0.0,0.0,0.0,0.0,0.0,0.0,0.0,0.0,0.0,0.0,0.0,0.0,0.0,0.0,0.0,0.0,0.0,0.0,0.0,0.0,0.0,0.0,0.0,0.0,0.0,0.0,0.0,0.0,0.0,0.0,0.0,0.0,0.0,0.0,0.0,0.0,0.0,0.0,0.0,0.0,0.0,0.0,0.0,0.0,0.0,0.0,0.0,0.0,0.0,0.0,0.0,0.0,0.0,0.0,0.0,0.0,0.0,0.0,0.0,0.0,0.0,0.0,0.0,0.0,0.0,0.0,0.0,0.0,0.0,0.0,0.0,0.0,0.0,0.0,0.0,0.0,0.0,0.0,0.0,0.0,0.0,0.0,0.0,0.0,0.0,0.0,0.0,0.0,0.0,0.0,0.0,0.0,0.0,0.0,0.0,0.0,0.0,0.0,0.0,0.0,0.0,0.0,0.0,0.0,0.0,0.0,0.0,0.0,0.0,0.0,0.0,0.0,0.0,0.0,0.0,0.0,0.0,0.0,0.0,0.0,0.0,0.0,0.0,0.0,0.0,0.0,0.0,0.0,0.0,0.0,0.0,0.0,0.0,0.0,0.0,0.0,0.0,0.0,0.0,0.0,0.0,0.0,0.0,0.0,0.0,0.0,0.0,0.0,0.0,0.0,0.0,0.0,0.0,0.0,0.0,0.0,0.0,0.0,0.0,0.0,0.0,0.0,0.0,0.0,0.0,0.0,0.0,0.0,0.0,0.0,0.0,0.0,0.0,0.0,0.0,0.0,0.0,0.0,0.0,0.0,0.0,0.0,0.0,0.0,0.0,0.0,0.0,0.0,0.0,0.0,0.0,0.0,0.0,0.0,0.0,0.0,0.0,0.0,0.0,0.0,0.0,0.0,0.0,0.0,0.0,0.0,0.0,0.0,0.0,0.0,0.0,0.0,0.0,0.0,0.0,0.0,0.0,0.0,0.0,0.0,0.0,0.0,0.0,0.0,0.0,0.0,0.0,0.0,0.0,0.0,0.0,0.0,0.0,0.0,0.0,0.0,0.0,0.0,0.0,0.0,0.0,0.0,0.0,0.0,0.0,0.0,0.0,0.0,0.0,0.0,0.0,0.0,0.0,0.0,0.0,0.0,0.0,0.0,0.0,0.0,0.0,0.0,0.0,0.0,0.0,0.0,0.0,0.0,0.0,0.0,0.0,0.0,0.0,0.0,0.0,0.0,0.0,0.0,0.0,0.0,0.0,0.0,0.0,0.0,0.0,0.0,0.0,0.0,0.0,0.0,0.0,0.0,0.0,0.0,0.0,0.0,0.0,0.0,0.0,0.0,0.0,0.0,0.0,0.0,0.0,0.0,0.0,0.0,0.0,0.0,0.0,0.0,0.0,0.0,0.0,0.0,0.0,0.0,0.0,0.0,0.0,0.0,0.0,0.0,0.0,0.0,0.0,0.0,0.0,0.0,0.0,0.0,0.0,0.0,0.0,0.0,0.0,0.0,0.0,0.0,0.0,0.0,0.0,0.0,0.0,0.0,0.0,0.0,0.0,0.0,0.0,0.0,0.0,0.0,0.0,0.0,0.0,0.0,0.0,0.0,0.0,0.0,0.0,0.0,0.0,0.0,0.0,0.0,0.0,0.0,0.0,0.0,0.0,0.0,0.0,0.0,0.0,0.0,0.0,0.0,0.0,0.0,0.0,0.0,0.0,0.0,0.0,0.0,0.0,0.0,0.0,0.0,0.0,0.0,0.0,0.0,0.0,0.0,0.0,0.0,0.0,0.0,0.0,0.0,0.0,0.0,0.0,0.0,0.0,0.0,0.0,0.0,0.0,0.0,0.0,0.0,0.0,0.0,0.0,0.0,0.0,0.0,0.0,0.0,0.0,0.0,0.0,0.0,0.0,0.0,0.0,0.0,0.0,0.0,0.0,0.0,0.0,0.0,0.0,0.0,0.0,0.0,0.0,0.0,0.0,0.0,0.0,0.0,0.0,0.0,0.0,0.0,0.0,0.0,0.0,0.0,0.0,0.0,0.0,0.0,0.0,0.0,0.0,0.0,0.0,0.0,0.0,0.0,0.0,0.0,0.0,0.0,0.0,0.0,0.0,0.0,0.0,0.0,0.0,0.0,0.0,0.0,0.0,0.0,0.0,0.0,0.0,0.0,0.0,0.0,0.0,0.0,0.0,0.0,0.0,0.0,0.0,0.0,0.0,0.0,0.0,0.0,0.0,0.0,0.0,0.0,0.0,0.0,0.0,0.0,0.0,0.0,0.0,0.0,0.0,0.0,0.0,0.0,0.0,0.0,0.0,0.0,0.0,0.0,0.0,0.0,0.0,0.0,0.0,0.0,0.0,0.0,0.0,0.0,0.0,0.0,0.0,0.0,0.0,0.0,0.0,0.0,0.0,0.0,0.0,0.0,0.0,0.0,0.0,0.0,0.0,0.0,0.0,0.0,0.0,0.0,0.0,0.0,0.0,0.0,0.0,0.0,0.0,0.0,0.0,0.0,0.0,0.0,-2.275,-2.2426,0.0,0.0,0.0,0.0,0.0,0.0,0.0,0.0,0.0,0.0,0.0,0.0,0.0,0.0,0.0,0.0,0.0,0.0,0.0,0.0,0.0,0.0,0.0,0.0,0.0,0.0,0.0,0.0,0.0,0.0,0.0,0.0,0.0,0.0,0.0,0.0,0.0,0.0,0.0,0.0,0.0,-1.5334,-1.533,-1.6015,0.0,0.0,0.0,0.0,0.0,0.0,0.0,0.0,0.0,0.0,0.0,0.0,0.0,0.0,0.0,0.0,0.0,0.0,0.0,0.0,0.0,0.0,0.0,0.0,0.0,0.0,0.0,0.0,0.0,0.0,0.0,0.0,0.0,0.0,0.0,0.0,0.0,0.0,0.0,0.0,0.0,0.0,0.0,0.0,0.0,0.0,0.0,0.0,0.0,0.0,0.0,0.0,0.0,0.0,0.0,0.0,0.0,0.0,0.0,0.0,0.0,0.0,0.0,0.0,0.0,0.0,0.0,0.0,0.0,0.0,-2.4156,-2.3389,0.0,0.0,0.0,0.0,0.0,0.0,0.0,0.0,0.0,0.0,0.0,0.0,0.0,0.0,0.0,0.0,0.0,0.0,0.0,0.0,0.0,0.0,0.0,0.0,-2.0634,-2.0299,-2.0501,0.0,0.0,0.0,0.0,0.0,0.0,0.0,0.0,0.0,0.0,0.0,0.0,0.0,0.0,-1.255,-1.3338,-1.5454,-1.5454,0.0,0.0,0.0,0.0,0.0,0.0,0.0,0.0,0.0,0.0,0.0,0.0,0.0,0.0,0.0,0.0,0.0,0.0,0.0,0.0,0.0,0.0,0.0,0.0,0.0,0.0,0.0,0.0,0.0,0.0,0.0,0.0,0.0,0.0,0.0,0.0,0.0,0.0,0.0,0.0,0.0,0.0,0.0,0.0,0.0,0.0,0.0,0.0,0.0,0.0,0.0,0.0,0.0,0.0,0.0,0.0,0.0,0.0,0.0,0.0,0.0,0.0,0.0,-2.6894,-2.7501,-2.8389,-2.8532,-2.8631,-2.856,-2.6351,-2.5229,-2.4835,-2.4052,0.0,0.0,0.0,0.0,0.0,0.0,0.0,0.0,0.0,0.0,0.0,0.0,0.0,0.0,0.0,0.0,0.0,0.0,0.0,0.0,0.0,-2.0249,-1.9908,-2.0187,-1.951,-1.9273,0.0,0.0,0.0,0.0,0.0,0.0,0.0,0.0,0.0,0.0,0.0,-1.3992,-1.211,-1.3082,-1.3993,-1.4835,-1.4835,-1.6404,-1.9045,0.0,0.0,0.0,0.0,0.0,0.0,0.0,0.0,0.0,0.0,0.0,0.0,0.0,0.0,0.0,0.0,0.0,0.0,0.0,0.0,0.0,0.0,0.0,0.0,0.0,0.0,0.0,0.0,0.0,0.0,0.0,0.0,0.0,0.0,0.0,0.0,0.0,0.0,0.0,0.0,0.0,-2.287,-2.1831,0.0,0.0,0.0,0.0,0.0,0.0,0.0,0.0,0.0,0.0,0.0,0.0,0.0,-2.5208,-2.6601,-2.7062,-2.7602,-2.8216,-2.9286,-2.9672,-2.952,-3.0206,-3.0694,-3.0899,-2.9893,0.0,-2.685,-2.6033,0.0,0.0,0.0,0.0,0.0,0.0,0.0,0.0,0.0,0.0,0.0,0.0,0.0,0.0,0.0,0.0,0.0,0.0,0.0,0.0,0.0,-1.9495,-1.9031,-1.9001,-1.8345,-1.8257,-1.9163,0.0,0.0,0.0,0.0,0.0,0.0,0.0,0.0,0.0,-1.4665,-1.3195,-1.2452,-1.2996,-1.3747,-1.4755,-1.5771,-1.7084,-1.856,-1.8934,0.0,0.0,0.0,0.0,0.0,0.0,0.0,0.0,0.0,0.0,0.0,0.0,0.0,0.0,0.0,0.0,0.0,0.0,0.0,0.0,0.0,0.0,0.0,0.0,0.0,0.0,0.0,0.0,0.0,0.0,0.0,0.0,0.0,0.0,0.0,0.0,0.0,0.0,0.0,-2.2515,-2.2529,-2.1404,-2.2067,-2.2373,0.0,0.0,0.0,0.0,0.0,0.0,0.0,0.0,0.0,-2.5236,-2.6182,-2.7215,-2.8279,-2.9417,-3.0621,-3.1889,-3.2402,-3.2907,-3.3405,-3.3259,-3.3287,-3.3385,-3.2577,-3.1474,-3.0111,-2.7958,-2.6871,-2.6612,0.0,0.0,0.0,0.0,-2.6081,-2.5815,0.0,0.0,0.0,0.0,0.0,0.0,0.0,0.0,0.0,0.0,0.0,0.0,-1.9641,-1.8935,-1.8317,-1.7933,-1.7504,-1.7652,-1.865,-1.9259,0.0,0.0,0.0,0.0,0.0,0.0,0.0,-1.4824,-1.3716,-1.3105,-1.29,-1.3311,-1.4201,-1.5485,-1.711,-1.8104,-1.8671,-1.9712,-2.0298,-2.0615,0.0,0.0,0.0,0.0,0.0,0.0,0.0,0.0,0.0,0.0,0.0,0.0,0.0,0.0,0.0,0.0,0.0,0.0,0.0,0.0,0.0,0.0,0.0,0.0,0.0,0.0,0.0,0.0,0.0,0.0,0.0,0.0,0.0,0.0,0.0,0.0,0.0,-2.2409,-2.2507,-2.1227,-2.2367,-2.3007,0.0,0.0,0.0,0.0,0.0,0.0,-2.6295,-2.6937,-2.7336,-2.7375,-2.8749,-2.992,-3.0872,-3.2036,-3.3427,-3.5051,-3.4994,-3.5301,-3.5954,-3.5312,-3.488,-3.4642,-3.4064,-3.3348,-3.2412,-2.9787,-2.8374,-2.7879,-2.8264,-2.8172,-2.7857,-2.7888,-2.7682,-2.7392,0.0,0.0,0.0,0.0,0.0,0.0,0.0,0.0,0.0,0.0,0.0,-2.0616,-1.9677,-1.8722,-1.7894,-1.7394,-1.7299,-1.7544,-1.8106,-1.9059,-2.0008,-2.0926,0.0,0.0,0.0,0.0,0.0,-1.2956,-1.3885,-1.3787,-1.2822,-1.4642,-1.6094,-1.7314,-1.8487,-1.9377,-2.0032,-2.0626,-2.1639,-2.2845,0.0,0.0,0.0,0.0,0.0,0.0,0.0,0.0,0.0,0.0,0.0,0.0,0.0,0.0,0.0,0.0,0.0,0.0,0.0,0.0,0.0,0.0,0.0,0.0,0.0,0.0,0.0,0.0,0.0,0.0,0.0,0.0,0.0,0.0,0.0,0.0,0.0,0.0,0.0,-2.1501,-2.4462,0.0,0.0,0.0,0.0,-2.7502,-2.7637,-2.8313,-2.9766,-3.0315,-3.1202,-3.2656,-3.323,-3.4215,-3.565,-3.5495,-3.5782,-3.6579,-3.6334,-3.5797,-3.5045,-3.5009,-3.4568,-3.3862,-3.3825,-3.3348,-3.254,-3.1604,-3.1201,-3.1091,-3.0356,-3.0522,-3.1029,-2.9966,-3.0052,-3.0405,0.0,0.0,0.0,0.0,0.0,0.0,0.0,0.0,0.0,-2.1275,-2.0813,-2.0078,-1.876,-1.7972,-1.73,-1.6824,-1.6769,-1.7246,-1.8464,-1.9439,-2.0405,-2.1337,0.0,0.0,0.0,0.0,-1.4983,-1.4018,-1.4021,-1.4169,-1.4564,-1.5617,-1.6779,-1.7994,-1.9544,-2.0642,-2.1269,-2.1815,-2.2286,-2.2598,-2.2598,-2.2579,0.0,0.0,0.0,0.0,0.0,0.0,0.0,0.0,0.0,0.0,0.0,0.0,0.0,0.0,0.0,0.0,0.0,0.0,0.0,0.0,0.0,0.0,0.0,0.0,0.0,0.0,0.0,0.0,0.0,0.0,0.0,0.0,0.0,0.0,0.0,0.0,0.0,-2.3531,-2.5726,0.0,-2.6254,-2.7569,-2.8682,-2.9225,-3.046,-3.1453,-3.2004,-3.2931,-3.3671,-3.4252,-3.522,-3.5978,-3.65,-3.7221,-3.7721,-3.7995,-3.7912,-3.7679,-3.7367,-3.6835,-3.645,-3.6138,-3.5624,-3.4926,-3.411,-3.3844,-3.2797,-3.1366,-3.1072,-3.1146,-3.1421,-3.1539,-3.1762,-3.2064,0.0,0.0,0.0,0.0,0.0,0.0,0.0,0.0,-2.1628,-2.1055,-2.0731,-1.9924,-1.8288,-1.7906,-1.7504,-1.6824,-1.7218,-1.7917,-1.8979,-2.007,-2.0879,-2.1368,-2.0879,0.0,0.0,-1.5752,-1.4879,-1.4376,-1.454,-1.5148,-1.615,-1.6741,-1.7909,-1.9493,-2.0712,-2.1713,-2.2512,-2.2834,-2.3005,-2.3011,-2.3459,-2.3654,-2.3614,0.0,0.0,0.0,0.0,0.0,0.0,0.0,0.0,0.0,0.0,0.0,0.0,0.0,0.0,0.0,0.0,0.0,0.0,0.0,0.0,0.0,0.0,0.0,0.0,0.0,0.0,0.0,0.0,0.0,0.0,0.0,0.0,0.0,0.0,-2.4545,-2.5697,-2.5621,-2.7783,-2.9243,-2.9113,-3.0542,-3.1698,-3.2173,-3.3455,-3.4422,-3.4856,-3.5794,-3.6434,-3.672,-3.7727,-3.8125,-3.7853,-3.8674,-3.8964,-3.8707,-3.8707,-3.856,-3.8267,-3.7546,-3.7064,-3.679,-3.6072,-3.5302,-3.454,-3.454,-3.3452,-3.1828,-3.2381,-3.2614,-3.2706,-3.355,-3.3862,-3.4009,0.0,0.0,0.0,0.0,0.0,0.0,0.0,-2.2003,-2.1991,-2.1134,-2.1007,-2.0268,-1.8352,-1.8612,-1.8496,-1.7422,-1.8745,-1.9606,-1.9641,-2.0863,-2.1399,-2.0959,0.0,0.0,-1.5536,-1.5843,-1.5324,-1.3815,-1.5473,-1.6684,-1.746,-1.8044,-1.9553,-2.1888,-2.1874,-2.254,-2.3595,-2.364,-2.3876,-2.426,-2.5584,-2.5922,-2.5558,0.0,0.0,0.0,0.0,0.0,0.0,0.0,0.0,0.0,0.0,0.0,0.0,0.0,0.0,0.0,0.0,0.0,0.0,0.0,0.0,0.0,0.0,0.0,0.0,0.0,0.0,0.0,0.0,0.0,0.0,0.0,0.0,0.0,-2.4462,-2.5758,-2.6998,-2.7705,-3.072,-3.2708,-3.2722,-3.451,-3.5905,-3.6444,-3.6468,-3.705,-3.8398,-3.8905,-3.9534,-4.0275,-4.0823,-4.0726,-3.99,-3.99,-3.9496,-3.8707,-3.8658,-3.8255,-3.7484,-3.6957,-3.6276,-3.5537,-3.5012,-3.4341,-3.3651,-3.3651,-3.3209,-3.269,-3.4357,-3.499,-3.51,-3.6009,-3.634,-3.6329,0.0,0.0,0.0,0.0,0.0,0.0,0.0,-2.2209,-2.2077,-2.1507,-2.1181,-2.0534,-1.9317,-1.9029,-1.875,-1.8426,-1.9119,-1.9858,-2.0442,-2.0895,-2.0797,0.0,0.0,0.0,-1.5536,-1.4811,-1.4439,-1.4468,-1.5336,-1.6544,-1.7965,-1.8111,-1.9447,-2.1744,-2.1774,-2.2438,-2.3698,-2.5129,-2.5686,-2.5654,-2.4952,-2.537,-2.6251,0.0,0.0,0.0,0.0,0.0,0.0,0.0,0.0,0.0,0.0,0.0,0.0,0.0,0.0,0.0,0.0,0.0,0.0,0.0,0.0,0.0,0.0,0.0,0.0,0.0,0.0,0.0,0.0,0.0,0.0,0.0,-2.6398,-2.7217,-2.6775,-2.8752,-3.0753,-3.1887,-3.4185,-3.5662,-3.5679,-3.6446,-3.7284,-3.8035,-3.8267,-3.8759,-3.9714,-4.0288,-4.0672,-4.0857,-4.1027,-4.0726,-3.99,-3.99,-3.9496,-3.8707,-3.83,-3.799,-3.7772,-3.7291,-3.6933,-3.6719,-3.6573,-3.5757,-3.4482,-3.4482,-3.3987,-3.3401,-3.4235,-3.4576,-3.4788,-3.6527,-3.7296,-3.7374,0.0,0.0,0.0,0.0,0.0,0.0,0.0,-2.2163,-2.2135,-2.1658,-2.1244,-2.0634,-1.9677,-1.9513,-1.9405,-1.9141,-1.9928,-2.0652,-2.11,-2.0847,-2.0104,0.0,0.0,-1.5651,-1.5184,-1.4538,-1.4468,-1.5062,-1.5688,-1.6878,-1.8569,-1.8838,-2.0104,-2.2118,-2.2367,-2.3209,-2.4463,-2.5589,-2.6651,-2.7445,-2.627,-2.6578,-2.7452,-2.5642,-2.5135,-2.5321,-2.4726,-2.4763,-2.5067,-2.4659,0.0,0.0,0.0,0.0,0.0,0.0,0.0,0.0,0.0,0.0,0.0,0.0,0.0,0.0,0.0,0.0,0.0,0.0,0.0,0.0,0.0,0.0,0.0,0.0,-2.9049,-3.0268,-3.0923,-3.1914,-3.314,-3.4787,-3.6336,-3.7433,-3.7703,-3.847,-3.9085,-3.9468,-3.9843,-4.0384,-4.1104,-4.1437,-4.1772,-4.2084,-4.2121,-4.1599,-4.0536,-4.0224,-3.9558,-3.8522,-3.79,-3.7614,-3.7578,-3.7097,-3.6865,-3.6843,-3.6643,-3.5809,-3.4644,-3.4332,-3.3949,-3.3587,0.0,0.0,0.0,0.0,-3.7981,-3.7839,0.0,0.0,0.0,0.0,0.0,0.0,0.0,-2.2032,-2.2135,-2.1658,-2.1275,-2.0732,-1.9854,-2.0128,-2.023,-1.9854,-2.0895,-2.1552,-2.1444,-2.049,0.0,-1.7712,-1.6156,-1.5095,-1.4606,-1.4652,-1.4971,-1.5499,-1.6225,-1.7408,-1.8989,-1.9726,-2.0968,-2.2634,-2.329,-2.4265,-2.5404,-2.567,-2.7112,-2.9138,-2.8599,-2.8657,-2.8755,-2.6657,-2.6201,-2.6522,-2.5234,-2.4842,-2.4924,-2.4839,0.0,0.0,0.0,0.0,0.0,0.0,0.0,0.0,0.0,0.0,0.0,0.0,0.0,0.0,0.0,0.0,0.0,0.0,0.0,0.0,0.0,0.0,0.0,0.0,-3.1841,-3.358,-3.5849,-3.5121,-3.5067,-3.6816,-3.7763,-3.8503,-3.9139,-4.0208,-4.0857,-4.0837,-4.1256,-4.176,-4.2381,-4.2399,0.0,0.0,0.0,-4.2668,-4.1317,-4.058,-3.9566,-3.8302,-3.7485,-3.7097,-3.7097,-3.6563,-3.6291,-3.6291,-3.5827,-3.5182,-3.4438,-3.3795,-3.3525,-3.3634,-3.4579,-3.5738,-3.7073,-3.8209,-3.8267,-3.7825,0.0,0.0,0.0,0.0,0.0,0.0,0.0,-2.2237,-2.2135,-2.1658,-2.1521,-2.129,-2.0781,-2.0829,-2.0943,-2.118,-2.1444,-2.1274,-2.0522,0.0,-1.7779,-1.6709,-1.5027,-1.4086,-1.3956,-1.4468,-1.4755,-1.488,-1.6403,-1.7529,-1.8325,-1.9424,-2.0648,-2.1944,-2.2989,-2.3875,-2.4735,-2.6808,-2.7951,-2.85,-2.9403,-2.9441,-2.8873,-2.7807,-2.7097,-2.6657,-2.637,-2.6872,-2.7543,-2.6954,-2.6974,-2.7098,-2.637,-2.5262,0.0,0.0,0.0,0.0,0.0,0.0,0.0,0.0,0.0,0.0,0.0,0.0,0.0,0.0,0.0,0.0,0.0,0.0,0.0,-3.2454,-3.4155,-3.5958,-3.807,-3.854,-3.8577,-3.8487,-3.9189,-3.9917,-4.0479,-4.0595,-4.1126,-4.221,-4.2178,-4.2459,-4.3222,-4.2869,-4.2701,-4.2864,-4.2364,-4.1688,-4.0783,-4.0042,-3.9181,-3.8263,-3.7091,0.0,-3.6539,-3.6028,-3.5739,-3.5739,-3.5667,-3.5182,-3.4472,-3.4336,-3.4286,-3.4398,-3.5384,-3.682,-3.8295,-3.8129,-3.7773,-3.7285,0.0,0.0,0.0,0.0,0.0,0.0,0.0,-2.2106,-2.1869,-2.1628,-2.1228,-2.0878,-2.0682,-2.0649,-2.0715,-2.0927,-2.1165,-2.0911,0.0,-1.8582,-1.725,-1.5997,-1.4562,-1.3815,-1.3815,-1.4376,-1.4835,-1.5141,-1.6574,-1.7585,-1.8145,-1.9536,-2.087,-2.2095,-2.3241,-2.468,-2.639,-2.765,-2.8799,-2.975,-3.0619,-3.0497,-2.9779,-2.9008,-2.8476,-2.8184,-2.8429,-2.8621,-2.8675,-2.832,-2.8053,-2.7756,-2.7022,-2.6242,-2.5427,0.0,0.0,0.0,0.0,0.0,0.0,0.0,0.0,0.0,0.0,0.0,0.0,0.0,0.0,-2.9644,-3.0078,0.0,-3.356,-3.5357,-3.6639,-3.8016,-3.9747,-4.0181,-4.0238,-3.9918,-4.0525,-4.1076,-4.1313,-4.154,-4.193,-4.2637,-4.2813,-4.3075,-4.3461,-4.2976,-4.2711,-4.2711,-4.2121,-4.1445,-4.0753,-3.9641,-3.8761,-3.8088,-3.6689,-3.6028,-3.5985,-3.5739,-3.5622,-3.5622,-3.5622,-3.5402,-3.5064,-3.5064,-3.4984,-3.4981,-3.6166,-3.7167,-3.7948,-3.7911,-3.7614,-3.7097,0.0,0.0,0.0,0.0,0.0,0.0,0.0,0.0,-2.146,-2.1352,-2.0813,-2.0416,-2.0314,-2.0382,-2.0449,-2.0449,-2.0698,-2.0467,0.0,-1.8323,-1.698,-1.5416,-1.4343,-1.3815,-1.3815,-1.4503,-1.5129,-1.5752,-1.6995,-1.7894,-1.8405,-2.0085,-2.1476,-2.2577,-2.4115,-2.604,-2.8135,-2.8628,-2.977,-3.1281,-3.1737,-3.1585,-3.0976,-3.0326,-2.9822,-2.9542,-2.9748,-2.9467,-2.8973,-2.9012,-2.8657,-2.8085,-2.7543,-2.7263,-2.6849,-2.5373,-2.526,0.0,0.0,0.0,0.0,0.0,0.0,0.0,0.0,-2.8315,-2.86,-3.0044,-3.1404,-3.2604,-3.37,-3.5059,-3.6518,-3.7889,-3.8814,-3.9734,-4.074,-4.1087,-4.1268,-4.1268,-4.1578,-4.1853,-4.1979,-4.2422,-4.275,-4.2864,-4.325,-4.3444,-4.3339,-4.2808,-4.248,-4.2342,-4.1768,-4.1241,-4.0733,-3.9433,-3.8523,-3.8108,-3.6569,-3.5842,-3.5842,-3.569,-3.5622,-3.5622,-3.5622,-3.5622,-3.5622,-3.5622,-3.5496,-3.5469,-3.6714,-3.719,-3.7266,-3.7614,-3.7506,-3.7097,0.0,0.0,0.0,0.0,0.0,0.0,0.0,0.0,0.0,-2.0516,-2.0715,-2.0748,-2.0348,-2.0682,-2.0926,-2.0926,-2.0583,0.0,-1.8941,-1.7863,-1.6528,-1.4869,-1.4133,-1.3815,-1.3815,-1.4858,-1.5704,-1.6305,-1.7946,-1.8977,-1.9456,-2.1323,-2.2504,-2.3147,-2.6027,-2.7485,-2.7911,-3.0121,-3.1167,-3.1447,-3.2135,-3.2364,-3.2272,-3.1888,-3.0648,-2.9083,-2.8393,-2.8316,-2.8502,-2.8749,-2.9012,-2.9254,-2.9345,-2.8894,-2.8123,-2.7167,-2.6317,-2.5597,-2.5216,-2.5729,-2.6879,-2.8815,-2.9074,-2.9871,0.0,-3.41,-3.3903,-3.4925,-3.5673,-3.6043,-3.569,-3.6712,-3.7922,-3.8734,-3.9898,-4.0723,-4.0886,-4.1793,-4.248,-4.248,-4.208,-4.2021,-4.2537,-4.2655,-4.2902,-4.3375,-4.3463,-4.3286,-4.2826,-4.2203,-4.1664,-4.1133,-4.0594,-4.0254,-4.0204,-3.9406,-3.895,-3.8853,-3.7364,-3.6654,-3.662,-3.5943,-3.5622,-3.5622,-3.5622,-3.5622,-3.5622,-3.5622,-3.5571,-3.5664,-3.6751,-3.719,-3.7228,-3.7266,-3.7266,-3.7076,0.0,0.0,0.0,0.0,0.0,0.0,0.0,0.0,0.0,0.0,-2.0124,-2.0054,-1.9528,-1.9949,-2.0243,-2.0243,-2.007,0.0,-1.8925,-1.7825,-1.6764,-1.5728,-1.4812,-1.4329,-1.4329,-1.5452,-1.6286,-1.6824,-1.8474,-1.9848,-2.0976,-2.2297,-2.3603,-2.4951,-2.6964,-2.843,-2.9501,-3.0987,-3.1971,-3.2552,-3.3131,-3.3378,-3.3277,-3.2434,-3.1298,-3.007,-2.9582,-2.912,0.0,-2.914,-2.8686,-2.8053,-2.8741,-2.8395,-2.7584,-2.6755,-2.654,-2.667,-2.7138,-2.7798,-2.856,-2.9365,-3.0589,-3.1938,-3.3395,-3.411,-3.4855,-3.6175,-3.7306,-3.801,-3.7733,-3.8503,-3.9389,-3.9983,-4.0607,-4.1213,-4.1853,-4.2382,-4.2645,-4.2504,-4.2668,-4.2903,-4.3124,-4.3178,-4.325,-4.3479,-4.3497,-4.325,-4.275,-4.2121,-4.1534,-4.0903,-4.0368,-4.007,-4.007,-3.936,-3.8988,-3.8988,-3.7939,-3.7212,-3.6772,-3.6451,-3.6045,-3.5622,-3.5622,-3.5622,-3.5622,-3.5622,-3.5766,-3.6139,-3.6904,-3.736,-3.7614,-3.7614,-3.7433,-3.7097,0.0,0.0,0.0,0.0,0.0,0.0,0.0,0.0,0.0,0.0,-1.966,-1.9566,-1.9169,-1.9479,-1.969,-1.969,0.0,0.0,0.0,-1.8129,-1.7356,-1.6663,-1.5847,-1.544,-1.5568,-1.6503,-1.7357,-1.8096,-1.9692,-2.1164,-2.2515,-2.3647,-2.515,-2.6872,-2.8344,-2.9816,-3.1279,-3.2206,-3.3029,-3.371,-3.406,-3.4035,-3.3683,-3.2353,-3.1299,-3.049,-3.0074,-2.9418,-2.8772,-2.8914,-2.8201,-2.7418,-2.7928,-2.7777,-2.7199,-2.6276,-2.632,-2.6805,-2.7474,-2.8433,-2.9248,-2.9379,-3.1133,-3.293,-3.3247,-3.4264,-3.5612,-3.7371,-3.8548,-3.9325,-3.9521,-3.9978,-4.0429,-4.0763,-4.0971,-4.1336,-4.1929,-4.2157,-4.2105,-4.1789,-4.2262,-4.2574,-4.2449,-4.3065,-4.3444,-4.3286,-4.3286,-4.2958,-4.2244,-4.181,-4.1268,-4.0703,-4.0286,-4.007,-4.007,-3.9546,-3.9292,-3.9276,-3.8565,-3.7922,-3.7381,-3.6975,-3.6468,-3.5926,-3.5723,-3.574,-3.5926,-3.5707,-3.5898,-3.6457,-3.6999,-3.7506,-3.7911,-3.8065,-3.7808,-3.7323,0.0,0.0,0.0,0.0,0.0,0.0,0.0,0.0,0.0,0.0,0.0,0.0,0.0,0.0,-1.969,-1.969,0.0,0.0,0.0,-1.8855,-1.8352,-1.722,-1.7124,-1.7303,-1.7685,-1.8266,-1.9209,-2.0591,-2.1935,-2.3102,-2.4076,-2.5664,-2.7204,-2.8706,-3.0631,-3.1986,-3.2907,-3.4099,-3.4615,-3.4655,-3.4674,-3.4183,-3.324,-3.1563,-3.0413,-2.953,-2.8738,-2.8315,-2.8053,-2.7464,-2.7754,-2.8244,-2.7557,-2.7592,-2.7631,-2.6375,-2.5647,-2.5239,-2.5128,-2.6261,-2.7654,-2.8445,-3.0052,-3.2208,-3.4956,-3.6207,-3.7352,-3.9547,-4.002,-4.022,-4.0814,-4.0874,-4.0798,-4.0651,-4.1042,-4.1121,-4.0401,-4.0775,-4.0964,-4.042,-4.0402,-4.0219,-3.9761,-4.1996,-4.3286,-4.275,-4.2732,-4.2203,-4.1041,-4.0949,-4.0703,-4.0121,-4.0121,-4.007,-4.007,-4.0054,-4.0054,-4.0037,-3.9309,-3.8937,-3.887,-3.7432,-3.6772,-3.6705,-3.5943,-3.6045,-3.6688,-3.5926,-3.5898,-3.6457,-3.6999,-3.7506,-3.798,-3.8496,-3.835,-3.7825,0.0,0.0,0.0,0.0,0.0,0.0,0.0,0.0,0.0,0.0,0.0,0.0,0.0,0.0,0.0,0.0,-1.969,-1.9603,0.0,-1.9095,-1.8864,-1.8792,-1.8436,-1.8456,-1.8841,-1.9611,-2.0367,-2.1105,-2.2788,-2.4329,-2.5746,-2.7518,-2.9045,-3.0372,-3.2133,-3.3214,-3.377,-3.4695,-3.5533,-3.6116,-3.5031,-3.5031,-3.535,-3.1934,-3.0409,-2.986,0.0,-2.6795,-2.6524,-2.6582,-2.6254,-2.5897,-2.6321,-2.6008,-2.5329,-2.4413,-2.452,-2.4916,-2.4876,-2.6833,-2.8934,-2.9042,-3.1702,-3.4514,-3.5538,-3.7049,-3.8543,-3.9851,-3.8903,-3.8044,-3.8498,-3.8182,-3.8074,-3.8645,-3.9768,-4.0509,-4.0293,-4.0437,-4.0203,-3.9149,-3.9504,-3.9572,-3.8862,-4.0527,-4.1576,-4.1377,-4.1818,-4.175,-4.0949,-4.0903,-4.0655,-4.0121,-4.007,-4.007,-4.007,-4.007,-4.007,-4.007,-3.9343,-3.8988,-3.8954,-3.7973,-3.7533,-3.7516,-3.7246,-3.6992,-3.6755,-3.6502,-3.6603,-3.696,-3.7152,-3.7703,-3.8465,-3.8627,-3.8596,-3.835,0.0,0.0,0.0,0.0,0.0,0.0,0.0,0.0,0.0,0.0,0.0,0.0,0.0,0.0,0.0,0.0,0.0,-1.969,0.0,0.0,-1.9528,-1.9834,-1.9682,-1.9778,-2.0177,-2.0861,-2.1453,-2.1966,-2.3598,-2.5012,-2.6245,-2.783,-2.9342,-3.0784,-3.1935,-3.2912,-3.3713,-3.4217,-3.469,-3.5014,-3.3936,-3.3916,-3.4231,-3.1079,-2.9691,0.0,0.0,-2.5611,-2.5133,-2.5396,-2.515,-2.4745,-2.4783,-2.4168,-2.3464,-2.3524,-2.3912,-2.4462,-2.5254,-2.7268,-2.9275,-2.9645,-3.2191,-3.487,-3.5942,-3.7179,-3.8463,-3.9712,-3.8376,-3.7072,-3.7434,-3.693,-3.6445,-3.6374,-3.7482,-3.8301,-3.8164,-3.8164,-3.8026,-3.7743,-3.8139,-3.8204,-3.7469,-3.8796,-3.9896,-4.0355,-4.0805,-4.0944,-4.0638,-4.0607,-4.0449,-4.0121,-4.007,-4.007,-4.007,-4.007,-4.007,-4.007,-3.9597,-3.9242,-3.8971,-3.8244,-3.8041,-3.8261,-3.7432,-3.7127,-3.7144,-3.6586,-3.6586,-3.6921,-3.7152,-3.7703,-3.8433,-3.8627,-3.8707,-3.8658,0.0,0.0,0.0,0.0,0.0,0.0,0.0,0.0,0.0,0.0,0.0,0.0,0.0,0.0,0.0,0.0,0.0,0.0,0.0,0.0,0.0,-2.0348,-2.0797,-2.1213,-2.1628,-2.1972,-2.246,-2.3165,-2.4334,-2.515,-2.5685,-2.6733,-2.8218,-2.998,-3.0241,-3.1232,-3.2724,-3.2744,-3.234,-3.1686,-3.1616,-3.1162,-3.0349,-2.9202,0.0,0.0,0.0,-2.482,-2.3986,-2.3969,-2.4443,-2.479,-2.3112,-2.2302,-2.2265,-2.3726,-2.3859,-2.4018,-2.6113,-2.7471,-2.8691,-3.0188,-3.1638,-3.3385,-3.6102,-3.6753,-3.7319,-3.9147,-3.8215,-3.7165,-3.7506,-3.6944,-3.5883,-3.4128,-3.4578,-3.4976,-3.4537,-3.4492,-3.4972,-3.6238,-3.6374,-3.6182,-3.5667,-3.6941,-3.8312,-3.96,-3.9766,-3.9915,-4.0087,-4.007,-4.007,-4.007,-4.007,-4.007,-4.002,-4.002,-4.002,-4.002,-4.007,-3.9715,-3.9022,-3.8328,-3.8396,-3.892,-3.6738,-3.6586,-3.7787,-3.6299,-3.5932,-3.6457,-3.696,-3.747,-3.7946,-3.8465,-3.8676,-3.8707,0.0,0.0,0.0,0.0,0.0,0.0,0.0,0.0,0.0,0.0,0.0,0.0,0.0,0.0,0.0,0.0,0.0,0.0,0.0,0.0,0.0,0.0,0.0,0.0,0.0,0.0,0.0,-2.2822,-2.4157,-2.4893,-2.5079,-2.6726,-2.7791,-2.8342,-2.9303,-2.999,-3.0471,-3.0715,-3.1073,-3.1412,0.0,-3.0873,-3.1278,0.0,0.0,0.0,0.0,-2.4464,-2.3914,-2.3365,-2.3316,-2.3381,-2.2677,-2.2708,-2.308,-2.3439,-2.4435,-2.5639,-2.6365,-2.8151,-2.9943,-3.0339,-3.2305,-3.4284,-3.5005,-3.5987,-3.6844,-3.7067,-3.5497,-3.4132,-3.4214,-3.4181,-3.4256,-3.4623,-3.5917,-3.6888,-3.6952,-3.6958,-3.6827,-3.647,-3.6374,-3.6182,-3.5667,-3.5977,-3.6785,-3.8278,-3.9384,-4.005,-4.0121,-4.007,-4.007,-4.007,-4.007,-3.9782,-3.9193,-3.9209,-3.9209,-3.9193,-3.9782,-3.9986,-3.9783,-3.9597,-3.9631,-3.9732,-3.8616,-3.8041,-3.7838,-3.6874,-3.6471,-3.6416,-3.6539,-3.7117,-3.7911,-3.8047,-3.835,-3.8707,0.0,0.0,0.0,0.0,0.0,0.0,0.0,0.0,0.0,0.0,0.0,0.0,0.0,0.0,0.0,0.0,0.0,0.0,0.0,0.0,0.0,0.0,0.0,0.0,0.0,0.0,0.0,0.0,0.0,0.0,-2.3559,-2.4716,-2.5543,-2.6149,-2.6916,-2.7601,-2.8161,-2.8347,0.0,0.0,0.0,0.0,0.0,0.0,0.0,0.0,0.0,0.0,0.0,0.0,0.0,-2.2686,-2.3076,-2.3503,-2.4037,-2.4847,-2.5878,-2.6885,-2.7589,-2.9039,-3.0446,-3.0768,-3.2226,-3.37,-3.3993,-3.484,-3.5463,-3.5127,-3.3666,-3.2535,-3.2792,-3.2619,-3.2575,-3.2863,-3.4284,-3.5444,-3.5742,-3.6092,-3.6345,-3.6417,-3.6374,-3.6182,-3.5667,-3.5926,-3.6375,-3.6898,-3.8301,-3.9411,-4.0054,-3.9496,-3.9292,-3.9542,-3.8947,-3.8611,-3.8414,-3.8745,-3.8908,-3.8908,-3.9731,-4.007,-4.007,-3.9749,-3.9597,-3.9546,-3.8481,-3.7787,-3.7347,-3.6586,-3.6174,-3.6054,-3.6291,-3.6904,-3.7614,-3.7825,-3.8099,-3.835,0.0,0.0,0.0,0.0,0.0,0.0,0.0,0.0,0.0,0.0,0.0,0.0,0.0,0.0,0.0,0.0,0.0,0.0,0.0,0.0,0.0,0.0,0.0,0.0,0.0,-2.2439,-2.2361,-2.1938,-2.2248,0.0,0.0,0.0,0.0,0.0,0.0,0.0,0.0,0.0,0.0,0.0,0.0,0.0,0.0,0.0,0.0,0.0,0.0,0.0,0.0,0.0,-2.2657,-2.2774,-2.3861,-2.4458,-2.5105,-2.6944,-2.751,-2.7833,-2.921,-2.9955,-3.0493,-3.1084,-3.1758,-3.2463,-3.2908,-3.3322,-3.3564,-3.3422,-3.2474,-3.182,-3.2352,-3.1788,-3.1146,-3.0889,-3.1843,-3.2885,-3.3743,-3.429,-3.5079,-3.6359,-3.6357,-3.6079,-3.5498,-3.6013,-3.6133,-3.563,-3.672,-3.8068,-3.948,-3.8347,-3.7998,-3.8581,-3.7399,-3.7052,-3.7632,-3.8302,-3.8635,-3.8745,-3.9558,-4.002,-4.0054,-3.9326,-3.9039,-3.9056,-3.7584,-3.6924,-3.6874,-3.6096,-3.5751,-3.5739,-3.6139,-3.6724,-3.7323,-3.7685,-3.7911,-3.798,0.0,0.0,0.0,0.0,0.0,0.0,0.0,0.0,0.0,0.0,0.0,0.0,0.0,0.0,0.0,0.0,0.0,0.0,0.0,0.0,0.0,0.0,0.0,0.0,-2.1718,-2.1761,-2.1595,-2.1197,-2.1243,-2.1227,0.0,0.0,0.0,0.0,0.0,0.0,0.0,0.0,0.0,0.0,0.0,0.0,0.0,0.0,0.0,0.0,0.0,0.0,0.0,0.0,-2.341,-2.3909,-2.4131,-2.5022,-2.6246,-2.7545,-2.7958,-2.8454,-3.0172,-3.0386,-3.0174,-3.0308,-3.1104,-3.1768,-3.121,-3.1411,-3.1784,-3.2107,-3.1523,-3.1092,-3.1528,-3.0944,-3.1237,-3.3743,-3.3285,-3.3817,-3.7241,-3.688,-3.6466,-3.7011,-3.617,-3.5346,-3.483,-3.4415,-3.4374,-3.4816,-3.5082,-3.5623,-3.6486,-3.6314,-3.6464,-3.7157,-3.6837,-3.6658,-3.6783,-3.6964,-3.7306,-3.7978,-3.8745,-3.9437,-4.0054,-3.9326,-3.9326,-3.9817,-3.8345,-3.7719,-3.7652,-3.6891,-3.645,-3.6224,-3.5854,-3.6568,-3.7755,-3.7433,-3.7861,-3.8496,0.0,0.0,0.0,0.0,0.0,0.0,0.0,0.0,0.0,0.0,0.0,0.0,0.0,0.0,0.0,0.0,0.0,0.0,0.0,0.0,0.0,0.0,0.0,0.0,0.0,-2.1399,-2.107,-2.0616,0.0,-2.0616,-2.0616,-2.0616,-2.0975,-2.1628,-2.1757,-2.2091,-2.25,-2.266,-2.2721,-2.2808,-2.3578,-2.3624,0.0,0.0,0.0,0.0,0.0,0.0,0.0,0.0,-2.3851,-2.4779,-2.569,-2.6673,-2.7711,-2.8798,-2.9127,-2.9471,-3.0767,-3.0612,-3.0214,-3.063,-3.0837,-3.0712,-2.9924,0.0,-3.0308,-3.0114,-2.997,-3.0043,-3.0662,-3.0467,-3.0852,-3.2816,-3.2834,-3.3359,-3.5526,-3.5648,-3.5401,-3.5074,-3.4538,-3.3795,-3.283,-3.2835,-3.2933,-3.2912,-3.3333,-3.4413,-3.6197,-3.622,-3.6021,-3.5608,-3.5875,-3.6054,-3.6054,-3.6384,-3.6783,-3.7203,-3.8342,-3.9086,-3.9489,-3.9531,-3.9546,-3.9462,-3.8379,-3.7686,-3.7263,-3.6485,-3.6123,-3.5985,-3.6028,-3.6626,-3.7542,-3.7542,-3.7703,-3.7913,0.0,0.0,0.0,0.0,0.0,0.0,0.0,0.0,-1.893,-1.9043,-1.8968,-1.9118,-1.9767,-1.9854,0.0,0.0,0.0,0.0,0.0,0.0,0.0,0.0,0.0,0.0,0.0,0.0,0.0,-2.0193,-2.0193,0.0,0.0,0.0,0.0,0.0,-2.143,-2.1675,-2.202,-2.202,-2.2077,0.0,0.0,-2.2981,0.0,0.0,0.0,0.0,0.0,0.0,0.0,0.0,-2.4211,-2.5141,-2.6618,-2.7675,-2.8613,-2.9484,-2.9796,-3.0048,-3.0951,-3.0535,-3.0,-3.0663,-3.0393,-2.9816,-2.9047,-2.9169,-2.9347,-2.8884,-2.8901,-2.9255,-3.0063,-2.9916,-3.0063,-3.1201,-3.1572,-3.2138,-3.3309,-3.3617,-3.3482,-3.288,-3.2491,-3.1793,-3.0557,-3.1026,-3.1232,-3.0819,-3.1766,-3.3391,-3.5758,-3.6053,-3.5629,-3.455,-3.5145,-3.5429,-3.5295,-3.5978,-3.6369,-3.6383,-3.7735,-3.8564,-3.8908,-3.9391,-3.9446,-3.9191,-3.8464,-3.7719,-3.6975,-3.6366,-3.5955,-3.581,-3.6224,-3.6803,-3.7396,-3.7649,-3.7649,-3.7578,0.0,0.0,0.0,0.0,0.0,0.0,0.0,0.0,-1.908,-1.9566,-1.9207,-1.9251,-2.0143,-2.0246,0.0,0.0,0.0,0.0,0.0,0.0,0.0,0.0,0.0,0.0,0.0,0.0,0.0,-1.9747,-1.9747,0.0,0.0,0.0,0.0,0.0,0.0,-2.1071,-2.1134,-2.1134,0.0,0.0,0.0,0.0,0.0,0.0,0.0,0.0,0.0,0.0,0.0,0.0,0.0,-2.4632,-2.516,-2.6493,-2.7959,-2.8407,0.0,0.0,-3.0514,-2.9993,-2.9124,-2.9195,-2.944,-2.9431,-2.863,0.0,-2.9245,-2.9905,-2.9489,-2.9255,-3.0063,-2.8998,-2.876,-3.1017,-2.9926,-3.0114,-3.3844,-3.2446,-3.1359,-3.2182,-3.0673,-2.9306,-2.8675,-2.8611,-2.8745,-2.9154,-3.0761,-3.2031,-3.2841,-3.4059,-3.4658,-3.4472,-3.5145,-3.5205,-3.4577,-3.5239,-3.5639,-3.5701,-3.6426,-3.7526,-3.8891,-3.8302,-3.8718,-3.9935,-3.9208,-3.8481,-3.7787,-3.7736,-3.716,-3.6333,-3.6374,-3.6981,-3.779,-3.7396,-3.7826,-3.8542,0.0,0.0,0.0,0.0,0.0,0.0,0.0,-1.953,-1.9442,-1.969,-1.9702,-1.9884,-2.028,-2.0765,0.0,0.0,0.0,0.0,0.0,0.0,0.0,0.0,0.0,0.0,0.0,0.0,-1.9874,-1.969,-1.969,0.0,0.0,0.0,0.0,0.0,0.0,-2.0991,-2.0991,-2.0991,0.0,0.0,0.0,0.0,0.0,0.0,0.0,0.0,0.0,0.0,-2.4881,-2.4608,0.0,0.0,-2.4348,-2.5005,0.0,0.0,-2.7983,-2.8576,-3.0054,-2.9722,-2.9112,-2.9608,-2.9105,-2.8567,-2.8713,0.0,-2.8521,-2.9329,-2.9237,-2.9085,-2.9439,-2.8962,-2.8764,-2.9464,-2.8684,-2.8523,-3.006,-2.8721,-2.7795,-2.8401,-2.7327,-2.6437,-2.6232,-2.7222,-2.8472,-2.9873,-3.0979,-3.1694,-3.1952,-3.3042,-3.4124,-3.5085,-3.4966,-3.4951,-3.51,-3.537,-3.5484,-3.5563,-3.6261,-3.6888,-3.7526,-3.7729,-3.839,-3.9335,-3.8619,-3.8372,-3.8481,-3.7584,-3.7267,-3.7267,-3.6969,-3.7185,-3.7676,-3.763,-3.7703,-3.7845,0.0,0.0,0.0,0.0,0.0,0.0,-1.9874,-1.9782,-1.9747,-1.9874,-2.0124,-2.0416,-2.0682,-2.1134,-2.1368,-2.1181,0.0,0.0,0.0,0.0,0.0,0.0,0.0,0.0,0.0,0.0,-1.969,-1.969,-1.969,-1.9839,0.0,0.0,-2.0416,-2.0632,0.0,0.0,0.0,0.0,0.0,0.0,0.0,0.0,0.0,0.0,0.0,0.0,0.0,0.0,0.0,0.0,0.0,0.0,0.0,0.0,0.0,0.0,-2.703,-2.7894,-2.9028,-2.9167,-2.9145,-2.9812,-2.8864,-2.8029,-2.8927,-2.8441,-2.8099,-2.9145,-2.9342,-2.9342,-2.9342,-2.9253,-2.8955,-2.8298,-2.7701,-2.7232,-2.6969,-2.5589,-2.4762,-2.5146,-2.4331,-2.3846,-2.4078,-2.6055,-2.8051,-2.9731,-3.0636,-3.1141,-3.1235,-3.1875,-3.299,-3.461,-3.4171,-3.4054,-3.4347,-3.4537,-3.4537,-3.4347,-3.5379,-3.5948,-3.6245,-3.7068,-3.7847,-3.8564,-3.8003,-3.8121,-3.8556,-3.7297,-3.7074,-3.7526,-3.7126,-3.7056,-3.721,-3.7537,-3.7578,-3.7505,0.0,0.0,0.0,0.0,0.0,0.0,0.0,-1.998,-1.9839,-2.0246,-2.0314,-2.0634,-2.1491,-2.1244,-2.115,-2.1552,0.0,0.0,0.0,0.0,0.0,0.0,0.0,0.0,0.0,0.0,-1.969,-1.969,-1.969,-1.969,-1.9711,-2.0124,-2.0089,-1.9726,0.0,0.0,0.0,0.0,0.0,0.0,0.0,0.0,0.0,0.0,0.0,0.0,0.0,0.0,0.0,0.0,0.0,0.0,0.0,0.0,0.0,0.0,-2.5792,-2.7302,-2.732,-2.8148,-2.9085,-2.933,-2.8593,-2.8077,-2.9165,-2.8574,-2.8246,-2.9861,-3.0191,-3.0191,-3.0191,-2.9846,-2.9188,-2.7911,-2.6978,-2.6206,-2.5615,-2.3857,-2.2815,-2.3244,-2.206,-2.1526,-2.2412,-2.4943,-2.6943,-2.8025,-2.9151,-2.9973,-3.0388,-3.0263,-3.1007,-3.2579,-3.2593,-3.2303,-3.164,-3.2303,-3.2303,-3.164,-3.3235,-3.4426,-3.5254,-3.6183,-3.7024,-3.7806,-3.7806,-3.7785,-3.7735,-3.6995,-3.6721,-3.6797,-3.6534,-3.6433,-3.6474,-3.6999,-3.7506,-3.802,0.0,0.0,0.0,0.0,0.0,0.0,0.0,0.0,-2.0158,-2.028,-2.0314,-2.0416,-2.0667,-2.0878,-2.1055,-2.1181,0.0,0.0,0.0,0.0,0.0,0.0,0.0,0.0,0.0,0.0,-1.969,-1.969,-1.969,-1.969,-1.969,-1.9839,-1.9818,-1.9726,-1.9839,-1.9818,0.0,0.0,0.0,0.0,0.0,0.0,-2.3026,0.0,0.0,0.0,0.0,0.0,0.0,0.0,0.0,0.0,0.0,0.0,0.0,0.0,0.0,0.0,-2.6393,-2.6752,-2.7091,-2.7411,-2.6825,-2.6544,-2.7991,-2.7613,-2.7519,-2.9395,-2.9797,-2.9863,-3.0091,-2.9708,-2.8945,-2.7772,-2.6222,-2.4805,-2.3799,-2.2297,-2.1576,-2.2242,-2.2382,-2.3173,-2.5059,-2.597,-2.7256,-2.9124,-2.9591,-2.9858,-2.9973,-2.9948,-3.0725,-3.2522,-3.2136,-3.2026,-3.2303,-3.251,-3.2496,-3.2317,-3.3433,-3.4134,-3.4441,-3.54,-3.6228,-3.6964,-3.6964,-3.7313,-3.7713,-3.7,-3.7034,-3.7436,-3.6679,-3.6686,-3.7151,-3.7175,-3.7506,-3.7929,0.0,0.0,0.0,0.0,0.0,0.0,0.0,0.0,-2.0124,-2.028,-2.0314,-2.0382,-2.055,-2.0665,-2.0731,-2.0731,0.0,0.0,0.0,0.0,0.0,0.0,0.0,0.0,0.0,-1.9839,-1.9839,-1.969,-1.969,-1.969,-1.969,-1.969,-1.969,-1.969,-1.969,-1.969,0.0,0.0,0.0,0.0,0.0,0.0,-2.2446,0.0,0.0,0.0,0.0,0.0,0.0,0.0,0.0,0.0,0.0,0.0,0.0,0.0,-2.4219,-2.5205,0.0,-2.5821,-2.5991,-2.6289,-2.5903,0.0,-2.7223,-2.7058,-2.7163,-2.9035,-2.9643,-2.9822,-2.979,-2.9369,-2.844,-2.67,-2.5014,-2.3464,-2.2201,-2.1039,-2.0545,-2.1202,-2.2203,-2.373,-2.6028,-2.6371,-2.7383,-2.9624,-2.9792,-2.9792,-2.9792,-2.9792,-3.0458,-3.1795,-3.1462,-3.1343,-3.1549,-3.1776,-3.1897,-3.2105,-3.3255,-3.3899,-3.4027,-3.5318,-3.6023,-3.6165,-3.6165,-3.6631,0.0,-3.689,-3.6947,-3.7329,-3.6775,-3.6758,-3.7099,-3.7158,-3.7506,-3.7946,0.0,0.0,0.0,0.0,0.0,0.0,0.0,0.0,0.0,0.0,0.0,-2.0416,-2.0862,-2.0516,0.0,0.0,0.0,0.0,0.0,0.0,0.0,0.0,0.0,0.0,-1.9726,-2.007,-2.0054,-1.969,-1.969,-1.969,-1.9639,-1.969,-1.969,-1.9639,-1.969,-1.9726,0.0,0.0,0.0,0.0,0.0,0.0,0.0,0.0,0.0,0.0,0.0,0.0,0.0,0.0,0.0,0.0,0.0,0.0,0.0,0.0,0.0,0.0,0.0,-2.5216,-2.5547,-2.5876,-2.5739,-2.5762,-2.6831,-2.6897,0.0,-2.8729,-2.9566,-2.9843,-2.9316,-2.8795,-2.7608,-2.4967,-2.3464,-2.2138,-2.0841,-2.0083,-1.982,-2.0227,-2.173,-2.3502,-2.5527,-2.624,-2.7464,-2.9624,-2.9856,-2.9882,-2.9842,-2.9919,-3.0171,-3.0658,-3.067,-3.0407,-2.9854,-3.0435,-3.0906,-3.1254,-3.2882,-3.379,-3.4056,-3.5688,-3.6088,-3.5504,-3.5504,-3.5894,-3.6507,-3.6637,-3.668,-3.6715,-3.676,-3.6703,-3.6568,-3.7055,-3.7506,-3.8013,0.0,0.0,0.0,0.0,0.0,0.0,0.0,0.0,0.0,0.0,0.0,-1.9874,-1.998,-1.9909,0.0,0.0,0.0,0.0,0.0,0.0,0.0,0.0,0.0,0.0,-1.969,-1.9782,-1.9782,-1.969,-1.969,-1.9479,-1.9095,-1.953,-1.9479,-1.9132,-1.953,-1.9874,0.0,0.0,0.0,0.0,0.0,0.0,0.0,0.0,0.0,0.0,-2.2535,-2.2682,0.0,0.0,0.0,0.0,0.0,0.0,0.0,0.0,-2.3511,-2.3676,-2.3777,0.0,-2.4506,-2.5409,-2.5569,-2.5747,0.0,-2.6756,-2.7049,-2.8307,0.0,0.0,-2.8378,-2.705,-2.5526,-2.4284,-2.2318,-2.0773,-2.0183,-2.0501,-2.0973,-2.1457,-2.3167,-2.4523,-2.5251,-2.6759,-2.8279,-2.9714,-3.0495,-3.0751,-3.0394,-3.1061,-3.137,-3.1185,-3.121,-3.0947,-3.0432,-3.1267,-3.1533,-3.1254,-3.303,-3.3951,-3.4027,-3.5215,-3.5654,-3.5504,-3.5504,-3.5619,-3.5785,-3.642,-3.671,-3.6712,-3.6751,-3.7231,-3.7809,-3.7365,-3.7756,-3.8546,0.0,0.0,0.0,0.0,0.0,0.0,0.0,0.0,0.0,0.0,0.0,0.0,0.0,0.0,0.0,0.0,0.0,0.0,0.0,0.0,0.0,0.0,0.0,-1.9874,-1.9711,-1.9874,-1.9752,-1.9332,-1.9332,-1.9043,-1.8535,-1.908,-1.9169,-1.8945,-2.0047,-2.074,0.0,0.0,0.0,0.0,-2.2687,0.0,0.0,0.0,0.0,0.0,-2.2453,-2.2398,0.0,-2.231,-2.231,-2.231,0.0,0.0,0.0,0.0,-2.3376,-2.3816,-2.3477,-2.3283,-2.3309,-2.388,-2.4356,-2.4778,-2.5219,0.0,0.0,0.0,0.0,0.0,0.0,0.0,-2.3891,-2.1993,-2.0801,-2.0183,-2.0237,-2.0976,-2.1689,-2.2119,-2.3543,-2.4866,-2.5721,-2.7195,-2.873,-3.033,-3.1232,-3.1402,-3.0868,-3.1627,-3.1759,-3.1022,-3.1035,-3.0896,-3.062,-3.1539,-3.1973,-3.1888,-3.3593,-3.452,-3.4706,-3.5591,-3.5954,-3.6006,-3.6006,-3.618,-3.6631,-3.7374,-3.754,-3.7221,-3.7668,-3.8025,-3.8267,-3.7842,-3.815,-3.8707,0.0,0.0,0.0,0.0,0.0,0.0,0.0,0.0,0.0,0.0,0.0,0.0,0.0,0.0,0.0,0.0,0.0,0.0,0.0,0.0,0.0,0.0,0.0,-2.007,-1.9726,-2.0035,-1.9793,-1.8893,-1.8893,-1.8612,-1.8106,-1.865,-1.9049,-1.9353,-2.0947,-2.194,0.0,-2.3271,-2.3884,-2.418,-2.3443,0.0,0.0,0.0,0.0,0.0,0.0,0.0,0.0,-2.231,-2.2237,-2.218,-2.218,0.0,0.0,0.0,0.0,0.0,-2.3422,-2.2878,-2.2496,-2.2615,-2.3262,-2.3885,-2.3885,0.0,0.0,0.0,0.0,0.0,0.0,-2.3326,-2.2132,-1.9286,-1.9328,-1.9961,-2.0654,-2.1465,-2.2173,-2.2616,-2.3742,-2.506,-2.6389,-2.7749,-2.9319,-3.1093,-3.2017,-3.2123,-3.1325,-3.2013,-3.19,-3.0733,-3.0804,-3.0833,-3.0833,-3.1757,-3.2408,-3.282,-3.4352,-3.5219,-3.5534,-3.6088,-3.6425,-3.6615,-3.6615,-3.704,-3.7863,-3.858,-3.8562,-3.8055,-3.8823,-3.8915,-3.8638,-3.8468,-3.8617,-3.8872,0.0,0.0,0.0,0.0,0.0,0.0,0.0,0.0,0.0,0.0,0.0,0.0,0.0,0.0,0.0,0.0,0.0,0.0,0.0,0.0,0.0,-1.969,-1.9747,-1.9747,-1.969,-1.9747,-1.95,-1.8893,-1.8893,-1.8612,-1.8106,-1.865,-1.9708,-2.1157,-2.2067,-2.2916,-2.3704,-2.5145,-2.5777,-2.5816,-2.5282,0.0,0.0,0.0,0.0,0.0,0.0,0.0,0.0,-2.231,-2.2032,-2.1718,-2.1718,0.0,0.0,0.0,0.0,0.0,-2.2599,-2.2959,-2.3376,-2.4002,-2.4396,-2.4641,-2.4641,0.0,0.0,0.0,0.0,0.0,0.0,-2.0624,-1.9083,-1.8217,-1.8438,-1.938,-2.1413,-2.2109,-2.2621,-2.3246,-2.5044,-2.63,-2.6706,-2.9164,-3.0869,-3.118,-3.2761,-3.3211,-3.1955,-3.2725,-3.2631,-3.1329,-3.1642,-3.1757,-3.1757,-3.2704,-3.3417,-3.3808,-3.4875,-3.5448,-3.5504,-3.5609,-3.5985,-3.6615,-3.6615,-3.704,-3.7863,-3.858,-3.8842,-3.8784,-3.943,-3.9922,-4.0147,-3.9299,-3.9291,-3.9625,0.0,0.0,0.0,0.0,0.0,0.0,0.0,0.0,0.0,0.0,0.0,0.0,0.0,0.0,0.0,0.0,0.0,0.0,0.0,0.0,0.0,-1.969,-1.969,-1.969,-1.969,-1.969,-1.9281,-1.8458,-1.8458,-1.8185,-1.7706,-1.8774,-2.0419,-2.2506,-2.3264,-2.4316,-2.5527,-2.6662,-2.711,-2.704,0.0,0.0,0.0,0.0,0.0,0.0,0.0,0.0,0.0,0.0,-2.1628,-2.1275,-2.1275,0.0,0.0,0.0,0.0,0.0,-2.2092,-2.2995,-2.3866,-2.3427,-2.3603,-2.3867,-2.3832,-2.3552,0.0,0.0,0.0,0.0,0.0,-1.9693,-1.9299,-1.9347,-1.9258,-1.9845,-2.1685,-2.2601,-2.3279,-2.379,-2.5788,-2.7522,-2.8651,-3.0622,-3.2165,-3.3162,-3.4413,-3.4497,-3.3179,-3.383,-3.355,-3.2124,-3.2219,-3.2586,-3.3093,-3.3522,-3.3802,-3.4027,-3.4986,-3.5504,-3.5504,-3.5504,-3.6133,-3.7279,-3.7279,-3.7905,-3.9049,-3.9385,-3.9715,-4.0017,-4.0289,-4.0656,-4.0927,-3.991,-3.9685,-3.9772,0.0,0.0,0.0,0.0,0.0,0.0,0.0,0.0,0.0,0.0,0.0,0.0,0.0,0.0,0.0,0.0,0.0,0.0,0.0,0.0,-1.9874,-2.0015,-1.9909,-1.9782,-1.969,-1.969,-1.9244,-1.8302,-1.8302,-1.8131,-1.788,-1.9645,-2.1569,-2.3595,-2.4521,-2.5738,-2.7093,-2.7649,-2.7897,-2.7798,0.0,0.0,0.0,0.0,0.0,0.0,0.0,0.0,0.0,0.0,0.0,0.0,0.0,0.0,0.0,-2.087,-2.1585,-2.2212,-2.1804,-2.2948,-2.3951,-2.2673,0.0,-2.3239,-2.2833,-2.2278,0.0,0.0,0.0,0.0,0.0,-1.8889,-1.9364,-2.0033,-1.9949,-2.03,-2.187,-2.3053,-2.4037,-2.4644,-2.6678,-2.87,-3.0482,-3.1863,-3.3252,-3.4663,-3.5488,-3.5343,-3.407,-3.4266,-3.3875,-3.2621,-3.2593,-3.3031,-3.4027,-3.4245,-3.4327,-3.4394,-3.5133,-3.5504,-3.5504,-3.5668,-3.6477,-3.7822,-3.7978,-3.8816,-4.0121,-4.0254,-4.0528,-4.0949,-4.1223,-4.1422,-4.1506,-4.0522,-4.0065,-3.9772,0.0,0.0,0.0,0.0,0.0,0.0,0.0,0.0,0.0,0.0,0.0,0.0,0.0,0.0,0.0,0.0,0.0,0.0,0.0,0.0,-2.0449,-2.0894,-2.0483,-2.0089,-1.9726,-1.969,-1.9406,-1.8855,-1.8855,-1.9051,-1.9498,-2.1905,-2.3477,-2.439,-2.595,-2.7055,-2.7809,-2.788,-2.7897,-2.7826,-2.701,0.0,0.0,0.0,0.0,0.0,0.0,0.0,0.0,0.0,0.0,0.0,0.0,0.0,-1.9918,-2.055,-2.0887,-2.1231,-2.1807,-2.2716,-2.3338,-2.2712,-2.3317,-2.3687,-2.2375,-2.2106,0.0,-2.0612,0.0,-1.9552,-1.8126,-1.7327,-1.7241,-1.8437,-1.9286,-2.0402,-2.2175,-2.3778,-2.5125,-2.6168,-2.81,-2.9834,-3.1057,-3.2804,-3.3948,-3.4085,-3.4957,-3.509,-3.4041,-3.3213,-3.272,-3.2593,-3.2593,-3.3031,-3.4027,-3.492,-3.5359,-3.5359,-3.5439,-3.5504,-3.5504,-3.6228,-3.698,-3.7806,-3.8525,-3.9315,-4.0121,-4.0655,-4.0874,-4.0995,-4.2121,-4.2449,-4.2161,-4.1299,-4.0543,-3.9772,0.0,0.0,0.0,0.0,0.0,0.0,0.0,0.0,0.0,0.0,0.0,0.0,0.0,0.0,0.0,0.0,0.0,0.0,0.0,-2.0583,-2.0682,-2.0583,-2.0382,-2.0124,-1.9726,-1.969,-1.9442,-1.8893,-1.92,-1.9682,-2.0358,-2.164,-2.3177,-2.4867,-2.5481,-2.6282,-2.7252,-2.7703,-2.7632,-2.7207,-2.7128,-2.6161,0.0,0.0,0.0,0.0,0.0,0.0,0.0,0.0,-2.0813,-2.0246,-2.0,-1.9818,-1.9807,-2.032,-2.0512,-2.0679,-2.1213,-2.228,-2.2964,-2.1877,-2.2378,0.0,0.0,-2.129,-2.0161,-1.9393,-1.9114,-1.8858,-1.8384,-1.8453,-1.8993,-2.0001,-2.0948,-2.202,-2.3713,-2.5019,-2.6509,-2.816,-2.9642,-3.132,-3.3334,-3.4241,-3.4907,-3.551,-3.536,-3.4816,-3.4041,-3.3101,-3.289,-3.3449,-3.3449,-3.3959,-3.4905,-3.5785,-3.6165,-3.6165,-3.5733,-3.5718,-3.6165,-3.6508,-3.7306,-3.8525,-3.9163,-3.9884,-4.0655,-4.1223,-4.1664,-4.2121,-4.2884,-4.3156,-4.2947,-4.2139,-4.1662,-4.1203,0.0,0.0,0.0,0.0,0.0,0.0,0.0,0.0,0.0,0.0,0.0,0.0,0.0,0.0,0.0,0.0,0.0,0.0,-2.0516,-2.0943,-2.1055,-2.0732,-2.0699,-2.0583,-2.0296,-2.0174,-1.9844,-1.9346,-1.9924,-2.0505,-2.1068,-2.1943,-2.3129,-2.4551,-2.4917,-2.5439,-2.6076,-2.6825,-2.6842,-2.6411,-2.693,-2.607,0.0,0.0,0.0,0.0,0.0,0.0,0.0,0.0,-2.0878,-2.0483,-2.0208,-2.012,-2.0139,-2.0246,-2.0416,-2.0516,-2.0534,-2.1484,-2.2113,-2.0843,0.0,0.0,-2.1436,-2.0254,-1.9064,-1.8444,-1.8223,-1.8268,-1.8546,-1.9111,-1.9795,-2.0674,-2.1543,-2.2655,-2.4211,-2.5765,-2.7413,-2.9272,-3.1014,-3.2759,-3.4548,-3.4965,-3.5336,-3.5651,-3.5034,-3.4335,-3.3616,-3.2961,-3.3031,-3.3959,-3.4027,-3.4581,-3.5846,-3.6122,-3.644,-3.6837,-3.6201,-3.6385,-3.7255,-3.7504,-3.8267,-3.9461,-4.0163,-4.0723,-4.1223,-4.1853,-4.2422,-4.2976,-4.3375,-4.3497,-4.3387,-4.2598,-4.2304,-4.2066,0.0,0.0,0.0,0.0,0.0,0.0,0.0,0.0,0.0,0.0,0.0,0.0,0.0,0.0,0.0,0.0,0.0,0.0,-2.0959,-2.1368,-2.1598,-2.1582,-2.1598,-2.1598,-2.1598,-2.1229,-2.0797,-2.0314,-2.1165,-2.1582,-2.1628,-2.3209,-2.3746,-2.334,-2.4469,-2.4746,-2.4428,-2.5159,-2.5484,-2.5552,-2.6352,-2.5916,-2.4724,0.0,0.0,0.0,0.0,0.0,0.0,0.0,-2.1337,-2.1007,-2.0991,-2.0991,-2.0894,-2.0449,-2.0616,-2.0781,-1.9854,-2.0258,-2.0722,-1.9712,0.0,0.0,-1.927,-1.9092,-1.8737,-1.798,-1.7574,-1.7646,-1.8486,-1.8643,-1.8926,-1.9785,-2.0654,-2.176,-2.328,-2.5654,-2.775,-2.9363,-3.214,-3.4013,-3.4027,-3.492,-3.5067,-3.4095,-3.4027,-3.3587,-3.2664,-3.2593,-3.3017,-3.393,-3.4013,-3.4853,-3.66,-3.5888,-3.62,-3.7452,-3.7068,-3.7469,-3.8649,-3.9429,-4.0109,-4.0683,-4.1472,-4.1793,-4.1877,-4.248,-4.3014,-4.3513,-4.3513,-4.3513,-4.3422,-4.2598,-4.2304,-4.2084,0.0,0.0,0.0,0.0,0.0,0.0,0.0,0.0,0.0,0.0,0.0,0.0,0.0,0.0,0.0,0.0,0.0,0.0,-2.0959,-2.1118,-2.1306,-2.1582,-2.1337,-2.1407,-2.1924,-2.2671,-2.2427,-2.1228,-2.146,-2.1582,-2.1628,-2.2095,-2.2355,-2.2475,-2.2814,-2.3054,-2.3245,-2.403,-2.424,-2.4052,-2.4544,-2.4296,-2.3568,0.0,0.0,0.0,0.0,0.0,0.0,0.0,0.0,0.0,-2.1086,-2.0991,-2.0959,-2.0829,-2.0434,-1.9838,-1.9111,-1.9194,0.0,-1.8029,0.0,0.0,0.0,-1.7961,0.0,0.0,-1.7652,-1.7988,-1.8535,-1.9131,-1.9717,-2.0283,-2.1446,-2.3023,-2.5188,-2.6653,-2.8664,-3.1694,-3.2812,-3.3781,-3.4942,-3.5344,-3.5067,-3.4095,-3.338,-3.2427,-3.1106,-3.0935,-3.1148,-3.1758,-3.3282,-3.4925,-3.6521,-3.7872,-3.9043,-4.0092,-4.0468,-4.0267,-3.9596,-4.0039,-4.0931,-4.2193,-4.2845,-4.3143,-4.3177,-4.3794,-4.4128,-4.428,-4.428,-4.428,-4.4261,-4.4018,-4.3722,-4.3274,0.0,0.0,0.0,0.0,0.0,0.0,0.0,0.0,0.0,0.0,0.0,0.0,0.0,0.0,0.0,0.0,0.0,0.0,0.0,-2.115,-2.1499,-2.2024,-2.1995,-2.2292,-2.303,-2.3783,-2.3584,-2.2437,-2.2172,-2.1892,-2.1582,-2.1227,-2.1167,-2.1365,-2.1198,-2.1334,-2.1795,-2.2785,-2.3159,-2.317,-2.3861,-2.3984,-2.3735,0.0,0.0,0.0,0.0,0.0,0.0,0.0,0.0,0.0,-2.1584,0.0,-2.1181,-2.0782,-1.9982,-1.9016,-1.8202,-1.8057,0.0,-1.6738,-1.7339,-1.8008,-1.7379,-1.7461,-1.7647,-1.7668,-1.7832,-1.8135,-1.8555,-1.9199,-1.9954,-2.0747,-2.1783,-2.3406,-2.6224,-2.7448,-2.9148,-3.2302,-3.3021,-3.3647,-3.4603,-3.4711,-3.4139,-3.2862,-3.2748,-3.211,-3.0519,-3.1253,-3.182,-3.2117,-3.4328,-3.6122,-3.7347,-3.9084,-4.0456,-4.153,-4.1915,-4.1926,-4.1552,-4.1738,-4.2402,-4.3553,-4.3903,-4.4064,-4.4093,-4.4444,-4.458,-4.458,-4.458,-4.458,-4.458,-4.458,-4.4364,-4.3774,0.0,0.0,0.0,0.0,0.0,0.0,0.0,0.0,0.0,0.0,0.0,0.0,0.0,0.0,0.0,0.0,0.0,0.0,0.0,0.0,-2.1864,-2.2712,-2.3268,-2.384,-2.4498,-2.4534,-2.4246,-2.3652,-2.2981,-2.2243,-2.1464,-2.0567,-2.0128,-2.0093,-1.9752,-1.9859,-2.0311,-2.1514,-2.2216,-2.2696,-2.3785,-2.4362,-2.4543,-2.3934,0.0,0.0,0.0,0.0,0.0,0.0,0.0,0.0,-2.2429,-2.2074,-2.1495,-2.0505,-1.945,-1.8352,-1.7326,-1.7002,0.0,-1.5902,-1.6736,0.0,-1.753,-1.7375,-1.7397,-1.7736,-1.7872,-1.8046,-1.8424,-1.885,-1.9624,-2.1147,-2.184,-2.3338,-2.6648,-2.7939,-2.9463,-3.1853,-3.2845,-3.3335,-3.3456,-3.3456,-3.2698,-3.1065,-3.217,-3.2199,-3.0521,-3.2665,-3.393,-3.4025,-3.6321,-3.7978,-3.8802,-3.9821,-4.0979,-4.2281,-4.216,-4.2784,-4.4053,-4.3988,-4.4226,-4.4701,-4.4701,-4.4682,-4.4682,-4.4682,-4.4682,-4.4682,-4.4682,-4.4682,-4.4682,-4.4682,-4.4428,-4.3845,0.0,0.0,0.0,0.0,0.0,0.0,0.0,0.0,0.0,0.0,0.0,0.0,0.0,0.0,0.0,0.0,0.0,0.0,0.0,0.0,-2.1376,-2.3177,-2.4031,-2.4563,-2.4728,-2.4958,-2.4473,-2.3224,-2.2511,-2.1671,-2.0727,-2.0049,-1.9306,-1.8598,-1.9343,-1.9706,-1.9814,-2.0791,-2.1471,-2.1859,-2.2115,-2.2549,-2.3014,-2.2571,-2.2637,0.0,0.0,0.0,0.0,0.0,0.0,0.0,-2.3342,-2.2839,-2.2179,-2.0646,-1.942,-1.8221,-1.6696,-1.6441,0.0,0.0,-1.6505,-1.754,-1.7841,-1.73,-1.6661,-1.6422,-1.689,-1.7376,-1.7458,-1.788,-1.887,-2.1063,-2.2644,-2.4558,-2.7087,-2.8406,-2.9954,-3.2095,-3.2088,-3.2314,-3.3307,-3.2989,-3.2476,-3.184,-3.1618,-3.1297,-3.0757,-3.2407,-3.3321,-3.3307,-3.6355,-3.8468,-3.9542,-4.1113,-4.2779,-4.4416,-4.4387,-4.4704,-4.5207,-4.4632,-4.4804,-4.5534,-4.5438,-4.5381,-4.5381,-4.5381,-4.5381,-4.5381,-4.5381,-4.5381,-4.5381,-4.5381,-4.5161,-4.4583,0.0,0.0,0.0,0.0,0.0,0.0,0.0,0.0,0.0,0.0,0.0,0.0,0.0,0.0,0.0,0.0,0.0,0.0,0.0,0.0,-2.2216,-2.3996,-2.491,-2.5261,-2.5009,-2.4812,-2.4104,-2.2787,-2.1469,-2.0542,-1.9924,-1.9124,-1.8484,-1.8002,-1.9266,-1.9713,-1.9671,-2.0708,-2.1229,-2.1306,-2.1306,-2.1729,-2.2329,-2.2131,-2.2523,-2.3161,-2.2783,0.0,0.0,0.0,0.0,0.0,0.0,0.0,-2.1341,-2.0243,-1.8864,-1.7552,-1.6667,0.0,0.0,-1.5998,0.0,-1.6792,-1.6807,-1.6499,-1.5797,-1.4259,-1.4787,-1.5668,-1.6323,-1.665,-1.7752,-2.0494,-2.2501,-2.4534,-2.7023,-2.8418,-2.9956,-3.1782,-3.1689,-3.1766,-3.2446,-3.19,-3.1336,-3.0733,-3.1397,-3.1794,-3.1838,-3.3671,-3.5069,-3.5785,-3.7746,-3.9314,-4.0533,-4.2212,-4.3326,-4.3876,-4.4861,-4.5477,-4.568,-4.5238,-4.5315,-4.5796,-4.5643,-4.5586,-4.5586,-4.5586,-4.5586,-4.5586,-4.5586,-4.5586,-4.5586,-4.5586,-4.5015,-4.4033,0.0,0.0,0.0,0.0,0.0,0.0,0.0,0.0,0.0,0.0,0.0,0.0,0.0,0.0,0.0,0.0,0.0,0.0,0.0,0.0,0.0,-2.4576,-2.5321,-2.5486,-2.4918,-2.4153,-2.3139,-2.1939,-2.0133,-1.9081,-1.88,-1.8084,-1.7654,-1.7612,-1.9064,-1.9556,-1.9419,-2.0605,-2.1033,-2.0894,-2.0959,-2.1375,-2.1905,-2.1905,-2.254,-2.3309,-2.2652,-2.2504,-2.2504,-2.1899,0.0,0.0,0.0,0.0,-2.04,-1.9758,-1.8381,-1.702,-1.6729,0.0,-1.5625,-1.6504,-1.6455,0.0,-1.5633,-1.5573,-1.485,-1.234,-1.2642,-1.365,-1.4553,-1.4998,-1.6195,-1.9454,-2.1766,-2.4082,-2.6862,-2.8392,-2.9841,-3.1388,-3.1351,-3.1307,-3.1507,-3.09,-3.0253,-2.972,-3.131,-3.2602,-3.3275,-3.5268,-3.7153,-3.8785,-3.939,-4.0236,-4.1343,-4.2784,-4.3232,-4.2677,-4.4402,-4.5355,-4.5605,-4.547,-4.5547,-4.5796,-4.5643,-4.5586,-4.5586,-4.5586,-4.5586,-4.5586,-4.5586,-4.5586,-4.5586,-4.5586,-4.4688,-4.3264,0.0,0.0,0.0,0.0,0.0,0.0,0.0,0.0,0.0,0.0,0.0,0.0,0.0,0.0,0.0,0.0,0.0,0.0,-2.0959,0.0,0.0,-2.3852,-2.435,-2.4318,-2.3746,-2.2566,-2.1336,-2.0066,-1.8529,-1.7483,-1.6885,-1.6919,-1.6815,-1.6548,-1.817,-1.8674,-1.8405,-1.9818,-2.0426,-2.0449,-2.0829,-2.1055,-2.1135,-2.1135,-2.1263,-2.136,-2.1263,-2.1649,-2.2165,-2.2085,-2.2422,0.0,0.0,0.0,-2.112,-1.9944,-1.8675,-1.7472,0.0,0.0,-1.5625,0.0,-1.6689,-1.6398,-1.5643,-1.4902,-1.3889,-1.2165,-1.2089,-1.2151,-1.1508,-1.2322,-1.4216,-1.7606,-2.0805,-2.3946,-2.6938,-2.8561,-2.9953,-3.118,-3.084,-3.0778,-3.1287,-3.0794,-3.0766,-3.1544,-3.1359,-3.235,-3.4934,-3.6088,-3.7387,-3.893,-4.0002,-4.0874,-4.1553,-4.2068,-4.2648,-4.327,-4.3555,-4.4109,-4.4837,-4.4722,-4.5068,-4.5796,-4.5643,-4.5586,-4.5586,-4.5586,-4.5586,-4.5586,-4.5586,-4.5586,-4.5586,-4.5586,-4.4844,-4.3599,0.0,0.0,0.0,0.0,0.0,0.0,0.0,0.0,0.0,0.0,0.0,0.0,0.0,0.0,0.0,-1.969,-2.0296,-2.1053,-2.189,-2.2508,-2.2844,-2.2968,-2.3521,-2.3396,-2.2512,-2.1527,-2.0414,-1.908,-1.7664,-1.6778,-1.6472,-1.6613,-1.682,-1.7228,-1.9278,-1.9936,-1.9493,-2.0451,-2.0655,-2.0314,-2.0261,-2.0277,-2.0277,-2.0277,-2.0398,-2.0616,-2.0616,-2.0805,-2.109,-2.109,-2.1174,-2.1217,-2.1133,0.0,0.0,0.0,-1.9128,-1.7909,-1.6598,-1.5911,-1.5713,0.0,-1.6172,-1.5744,-1.4983,-1.4199,-1.3087,-1.0911,-1.0277,-1.0176,-1.0144,-0.9986,-1.1322,-1.5698,-1.9106,-2.2396,-2.591,-2.8767,-3.0892,-3.1955,-3.1965,-3.1941,-3.2076,-3.1233,-3.1241,-3.2647,-3.2927,-3.4103,-3.6671,-3.7612,-3.883,-4.0419,-4.0522,-4.0971,-4.1874,-4.2034,-4.254,-4.3395,-4.2892,-4.3388,-4.4705,-4.4647,-4.5056,-4.5796,-4.5643,-4.5586,-4.5605,-4.568,-4.5719,-4.5719,-4.5719,-4.5719,-4.5642,-4.5066,-4.402,-4.2678,0.0,0.0,0.0,0.0,0.0,0.0,0.0,0.0,0.0,0.0,0.0,0.0,0.0,0.0,0.0,0.0,-2.0413,-2.1231,-2.2213,-2.2036,-2.1979,-2.2102,-2.2648,-2.2445,-2.1283,-2.0671,-1.971,-1.8417,-1.7324,-1.6856,-1.7047,-1.7176,-1.7752,-1.8731,-2.0213,-2.0721,-2.0464,-2.0865,-2.0744,-2.028,-1.9874,-1.969,-1.969,-1.969,-1.9874,-2.0158,-2.0158,-2.0158,-2.0158,-2.0158,-2.0035,-1.9894,-2.0227,-2.0314,0.0,0.0,0.0,0.0,0.0,0.0,-1.5581,-1.5851,-1.5654,-1.5177,-1.4392,-1.3883,-1.2893,-1.0286,-0.9197,-0.8897,-0.9552,-0.902,-0.9925,-1.4584,-1.84,-2.2106,-2.5843,-2.9303,-3.1884,-3.293,-3.3055,-3.302,-3.2944,-3.2031,-3.1968,-3.3318,-3.427,-3.5729,-3.7785,-3.8732,-3.9897,-4.1405,-4.0875,-4.0985,-4.1864,-4.1863,-4.2195,-4.2825,-4.2175,-4.2773,-4.445,-4.4431,-4.482,-4.5547,-4.5624,-4.568,-4.568,-4.5776,-4.5811,-4.58,-4.58,-4.5635,-4.5316,-4.4495,-4.3193,-4.1574,0.0,0.0,0.0,0.0,0.0,0.0,0.0,0.0,0.0,0.0,0.0,0.0,-1.9603,-1.969,-1.969,-1.969,-2.0089,-2.0565,-2.1055,-2.1258,-2.1337,-2.1347,-2.1606,0.0,-2.0043,-1.9846,-1.9139,-1.7914,-1.7668,-1.7861,-1.8519,-1.8957,-1.9827,-2.0996,-1.989,-1.9706,-2.0218,-2.0296,-2.0345,-2.028,-1.9874,-1.969,-1.969,-1.969,-1.9711,-1.9711,-1.9711,-1.9711,-1.9711,-1.9711,-1.9965,-2.028,-2.028,-2.0314,-2.0314,0.0,0.0,0.0,0.0,-1.5579,0.0,-1.5407,-1.543,-1.5177,-1.4392,-1.4163,-1.3466,-1.1122,-0.982,-0.9214,-0.9546,-1.0252,-1.1732,-1.4688,-1.969,-2.4463,-2.8062,-3.0514,-3.2492,-3.3836,-3.3358,-3.3096,-3.3596,-3.3126,-3.3039,-3.3651,-3.4739,-3.6101,-3.782,-3.8734,-3.9762,-4.0981,-4.0986,-4.1053,-4.125,-4.125,-4.1269,-4.1308,-4.1269,-4.2119,-4.3741,-4.3683,-4.409,-4.4895,-4.5566,-4.5873,-4.5873,-4.5892,-4.5847,-4.5801,-4.5801,-4.5225,-4.4338,-4.4019,-4.2661,-4.0678,0.0,0.0,0.0,0.0,0.0,0.0,0.0,0.0,0.0,0.0,0.0,0.0,0.0,-1.969,-1.969,-1.969,-2.007,-2.0382,-2.055,-2.0615,-2.0547,-2.0294,-2.0768,-2.0671,-1.9793,-2.0117,-1.986,-1.9052,-1.889,-1.9343,-2.0404,-2.0098,-2.086,-2.2483,-2.1368,-2.1042,-2.1316,-2.0938,-2.0583,-2.028,-1.9874,-1.969,-1.969,-1.969,-1.969,-1.969,-1.969,-1.969,-1.969,-1.969,-1.9965,-2.0348,-2.0649,-2.0764,-2.0567,-1.9611,-1.8617,0.0,0.0,0.0,0.0,-1.6299,-1.6863,-1.7192,-1.6108,-1.6092,-1.5489,-1.2822,-1.1859,-1.149,-1.1603,-1.129,-1.238,-1.6607,-2.1008,-2.5291,-2.9187,-3.1757,-3.346,-3.4089,-3.3996,-3.3894,-3.4,-3.3651,-3.3988,-3.5376,-3.6006,-3.6869,-3.8155,-3.8512,-3.8922,-3.9438,-3.9388,-3.9394,-3.9531,-3.9531,-3.9805,-4.0371,-4.0371,-4.1246,-4.2887,-4.3414,-4.4138,-4.4943,-4.521,-4.5239,-4.513,-4.5121,-4.5128,-4.5032,-4.4375,-4.3814,-4.3253,-4.2487,-4.1307,-3.9758,0.0,0.0,0.0,0.0,0.0,0.0,0.0,0.0,0.0,-1.8249,0.0,0.0,0.0,0.0,-1.969,-1.969,-2.007,-2.0246,-2.0089,-2.0089,-1.9965,-1.9711,-2.0348,-2.041,-1.9764,-2.057,-2.0685,-2.0114,-2.0188,-2.0885,-2.2093,-2.1278,-2.1804,-2.3391,-2.2215,-2.1811,-2.1972,-2.1279,-2.0731,-2.028,-2.0,-1.9909,-1.9909,-1.9909,-2.0015,-2.012,-1.9818,-1.9782,-1.9874,-1.9747,-1.9965,-2.0348,-2.0665,-2.0764,-2.0467,-1.8993,-1.8338,-1.7855,-1.6868,0.0,0.0,-1.7113,-1.797,-1.859,-1.7333,-1.7624,-1.7421,-1.5067,-1.4634,-1.4697,-1.4811,-1.4932,-1.6097,-1.9329,-2.3329,-2.7233,-3.0735,-3.2915,-3.4356,-3.4839,-3.4661,-3.4592,-3.4777,-3.4437,-3.4754,-3.6061,-3.6625,-3.7262,-3.7984,-3.8273,-3.8436,-3.8539,-3.8492,-3.8516,-3.8594,-3.8594,-3.9043,-3.9902,-3.9902,-4.0781,-4.2422,-4.3008,-4.3574,-4.414,-4.4406,-4.4614,-4.4738,-4.4452,-4.427,-4.4119,-4.3363,-4.2738,-4.2174,-4.1113,-4.0064,-3.8847,0.0,0.0,0.0,0.0,0.0,0.0,0.0,0.0,-1.8302,-1.8817,0.0,0.0,0.0,0.0,0.0,-1.9711,-2.0089,-2.0158,-1.9747,-1.9711,-1.9711,-1.969,-2.0348,-2.0463,-1.9926,-2.111,-2.1481,-2.0945,-2.1467,-2.2366,-2.3473,-2.2483,-2.2623,-2.3622,-2.2207,-2.1757,-2.2023,-2.1305,-2.0715,-2.028,-2.0314,-2.0314,-2.0314,-2.0314,-2.0583,-2.0862,-2.0015,-1.9945,-2.0243,-1.9869,-2.001,-2.0376,-2.0376,-2.0361,-2.0039,-1.8574,-1.8159,-1.7976,0.0,0.0,0.0,-1.7741,-1.8634,-1.9258,-1.7989,-1.8671,-1.9183,-1.7656,-1.7903,-1.8545,-1.9096,-2.115,-2.2793,-2.2999,-2.6741,-3.0472,-3.283,-3.405,-3.5096,-3.6138,-3.5343,-3.5044,-3.5914,-3.5509,-3.5279,-3.5499,-3.6501,-3.7153,-3.7226,-3.7886,-3.8257,-3.8235,-3.8375,-3.8457,-3.8476,-3.8476,-3.8945,-3.9824,-3.9843,-4.0722,-4.2324,-4.2383,-4.2402,-4.244,-4.3225,-4.4045,-4.4755,-4.391,-4.3381,-4.3124,-4.2831,-4.21,-4.1083,-3.9974,-3.9038,-3.7958,0.0,0.0,0.0,0.0,0.0,0.0,-1.7229,-1.7747,-1.8302,0.0,0.0,0.0,-1.969,-1.9965,-2.0124,-2.0124,-2.0565,-2.0632,-2.0158,-2.0124,-2.0,-1.9711,-2.0348,-2.0631,-2.0463,-2.1736,-2.2359,-2.2217,-2.2776,-2.321,-2.3416,-2.2594,-2.263,-2.3268,-2.1805,-2.135,-2.1615,-2.0846,-2.0261,-1.9909,-2.0193,-2.0314,-2.0314,-2.0314,-2.0382,-2.0416,-1.9874,-2.0062,-2.0557,-2.046,-2.1007,-2.1744,-2.1744,-2.1425,-2.0829,-1.9725,-1.9059,-1.8563,-1.7963,0.0,0.0,0.0,0.0,0.0,-2.0278,-2.0918,-2.1293,-1.9495,-1.9577,-2.0283,-2.1277,-2.2966,-2.5017,-2.7545,-2.98,-3.1955,-3.3979,-3.4679,-3.5132,-3.5455,-3.5073,-3.4961,-3.5461,-3.5464,-3.5518,-3.5775,-3.5542,-3.5408,-3.543,-3.5001,-3.4756,-3.4702,-3.4789,-3.5137,-3.5762,-3.5781,-3.6523,-3.8027,-3.8556,-3.9447,-4.0625,-4.1797,-4.2344,-4.2401,-4.2574,-4.2742,-4.2857,-4.2553,-4.2249,-4.1915,-4.113,-4.0174,-3.9175,-3.8829,-3.7998,-3.6788,0.0,0.0,0.0,0.0,0.0,0.0,-1.7867,-1.8224,-1.8612,0.0,0.0,0.0,-1.969,-2.0227,-2.0516,-2.0314,-2.0731,-2.0797,-2.0348,-2.0158,-2.0066,-2.0109,-2.0767,-2.1261,-2.153,-2.2532,-2.3056,-2.3056,-2.2933,-2.2951,-2.3029,-2.2041,-2.1882,-2.2375,-2.1214,-2.083,-2.0974,-2.0333,-1.9909,-1.9762,-2.0158,-2.0196,-2.0024,-2.0024,-2.0126,-2.0182,-1.9595,-1.9895,-2.0552,-2.0382,-2.0735,-2.1296,-2.1535,-2.1345,-2.0953,-2.0462,-1.9854,-1.9315,-1.9296,-1.9767,-2.0359,-2.0626,0.0,0.0,-2.1378,-2.2041,-2.2551,-2.1021,-2.1427,-2.2338,-2.3223,-2.4694,-2.6754,-2.9745,-3.129,-3.2754,-3.4641,-3.5039,-3.5207,-3.5348,-3.5133,-3.5086,-3.5391,-3.5504,-3.5496,-3.5379,-3.4902,-3.4454,-3.4083,-3.361,-3.3339,-3.3305,-3.3373,-3.3633,-3.4141,-3.4488,-3.5352,-3.6721,-3.7852,-3.8902,-3.9857,-4.1221,-4.1822,-4.1786,-4.1353,-4.104,-4.0778,-4.0334,-4.046,-4.0822,-3.9792,-3.8968,-3.8334,-3.7783,-3.7084,-3.6271,0.0,0.0,0.0,0.0,-1.7353,-1.7747,-1.8727,-1.8893,-1.9095,0.0,-1.969,-1.969,-1.969,-2.0431,-2.0764,-2.0348,-2.0682,-2.0764,-2.0348,-1.997,-2.0079,-2.0692,-2.141,-2.2084,-2.2709,-2.3281,-2.3595,-2.3595,-2.2511,-2.2157,-2.2475,-2.115,-2.0749,-2.1163,0.0,0.0,-2.0196,-1.9702,-1.9413,-1.9346,-1.9904,-1.9838,-1.9396,-1.9345,-1.9516,-1.9715,-1.8975,-1.9321,-2.0133,-2.0004,-2.0007,-2.0196,-2.0883,-2.1054,-2.1039,-2.1233,-2.0823,-2.0429,-2.1006,-2.1222,-2.1377,-2.1784,-2.2821,0.0,-2.1969,-2.2623,-2.3281,-2.2515,-2.3355,-2.4381,-2.4832,-2.6199,-2.7987,-3.0369,-3.1737,-3.3129,-3.4939,-3.5231,-3.5335,-3.5568,-3.5389,-3.5339,-3.5582,-3.552,-3.523,-3.462,-3.4439,-3.3946,-3.2967,-3.3074,-3.3103,-3.3008,-3.3064,-3.3159,-3.3237,-3.4041,-3.4885,-3.5771,-3.7434,-3.8656,-3.9463,-4.0432,-4.0825,-4.065,-3.9761,-3.918,-3.8785,-3.7833,-3.8308,-3.9556,-3.8637,-3.8175,-3.7921,-3.672,-3.6232,-3.6061,0.0,0.0,0.0,0.0,0.0,-1.8185,-1.8817,-1.8893,-1.9095,-1.9639,-1.969,-1.969,-1.969,-2.0139,-2.0416,-2.0314,-2.0382,-2.0416,-2.0314,-2.0425,-2.0572,-2.0707,-2.1859,-2.2589,-2.2724,-2.3281,-2.3595,-2.3595,-2.2882,-2.2301,-2.1869,-2.1036,-2.0606,-2.0485,-2.0025,-1.9773,-1.9677,-1.8717,-1.7769,-1.7008,-1.8394,-1.8596,-1.8114,-1.7619,-1.7476,-1.7505,-1.7334,-1.7753,-1.8662,-2.0532,-2.1374,-2.1912,-2.3307,-2.3392,-2.3045,-2.3564,-2.3228,-2.2717,-2.275,-2.3159,-2.3472,-2.3142,-2.3983,0.0,-2.3958,-2.4343,-2.478,-2.4623,-2.4782,-2.5142,-2.5675,-2.7046,-2.8717,-3.0698,-3.2238,-3.3652,-3.493,-3.5346,-3.5542,-3.5582,-3.5541,-3.5549,-3.5667,-3.5095,-3.467,-3.4538,-3.3859,-3.2786,-3.1262,-3.1864,-3.1929,-3.123,-3.1222,-3.1555,-3.2271,-3.307,-3.3906,-3.4787,-3.6472,-3.7422,-3.7705,-3.8509,-3.8884,-3.8873,-3.8316,-3.8016,-3.7871,-3.6807,-3.6578,-3.6904,-3.7301,-3.6826,-3.5875,-3.5677,-3.5301,-3.4938,0.0,0.0,0.0,0.0,0.0,0.0,-1.9834,-1.9743,-1.9687,-1.9965,-1.9803,-1.969,-1.969,-2.0054,-2.0314,-2.0314,-2.0314,-2.0454,-2.0794,-2.0743,-2.1006,-2.1665,-2.2323,-2.2817,-2.3131,-2.3445,-2.3595,-2.3595,-2.2372,-2.1613,-2.1274,-2.025,-1.9738,-1.96,-1.9376,-1.8941,-1.8242,-1.7424,-1.6023,-1.4471,-1.6223,-1.6414,-1.5624,-1.5325,-1.5306,-1.5394,-1.5378,-1.6311,-1.7709,-1.9057,-2.0241,-2.1466,-2.3337,-2.3961,-2.4283,-2.5544,-2.5211,-2.4449,-2.4675,-2.4473,-2.4223,-2.4293,-2.4563,0.0,0.0,-2.4617,-2.4783,-2.531,-2.5401,-2.5587,-2.623,-2.7435,-2.8908,-3.0636,-3.1829,-3.3157,-3.4872,-3.5416,-3.5655,-3.5645,-3.5643,-3.5465,-3.4995,-3.4578,-3.4013,-3.3211,-3.2781,-3.1999,-3.072,-3.1499,-3.1596,-3.0683,-3.068,-3.0902,-3.1299,-3.2095,-3.2954,-3.3878,-3.5589,-3.6648,-3.7124,-3.7962,-3.832,-3.8262,-3.7443,-3.6862,-3.6406,-3.5303,-3.4304,-3.3628,-3.4783,-3.5066,-3.4746,-3.4189,-3.4251,-3.4657,-1.7188,0.0,0.0,0.0,0.0,0.0,0.0,-2.0695,-2.0292,-2.0192,-1.9827,-1.9582,-1.9723,-1.9801,-1.9975,-2.0197,-2.0021,-2.0203,-2.097,-2.0842,-2.1208,-2.2248,-2.267,-2.3041,-2.3415,-2.3535,-2.3595,-2.3595,-2.1865,-2.1044,-2.1015,-1.9706,-1.9006,-1.8878,-1.8788,-1.7979,-1.6658,-1.5842,-1.4072,-1.1978,-1.3267,-1.3468,-1.2953,-1.2973,-1.3066,-1.3187,-1.3366,-1.4791,-1.6638,-1.7216,-1.8692,-2.0629,-2.276,-2.4177,-2.5384,-2.7148,-2.7042,-2.6425,-2.6727,-2.5864,-2.5005,-2.5438,-2.5297,-2.5098,0.0,0.0,0.0,-2.5883,-2.6031,-2.6218,-2.6793,-2.7756,-2.8924,-3.0431,-3.1343,-3.2542,-3.4518,-3.521,-3.5625,-3.5873,-3.5473,-3.5063,-3.4716,-3.4539,-3.366,-3.1725,-3.2074,-3.1874,-3.0684,-3.1485,-3.155,-3.0625,-3.0661,-3.0641,-3.0583,-3.1379,-3.2167,-3.2949,-3.4532,-3.5727,-3.6535,-3.714,-3.7478,-3.7563,-3.6309,-3.5463,-3.489,-3.3606,-3.2237,-3.105,-3.2635,-3.3457,-3.3679,-3.2902,-3.3316,-3.4324,-1.7188,-1.7666,0.0,0.0,0.0,0.0,0.0,-2.1027,-2.0167,-1.9822,-1.9315,-1.9208,-1.9753,-1.8918,-1.8761,-1.9753,-1.8916,-1.8817,-1.9878,-2.0526,-2.0889,-2.0922,-2.2594,-2.3266,-2.2787,-2.3325,-2.3595,-2.3595,-2.2267,-2.1615,-2.1585,-2.0229,-1.9369,-1.8893,-1.8349,-1.7155,-1.5456,-1.3697,-1.1766,-0.9822,-0.8882,-0.9497,-1.1021,-1.1098,-1.0856,-1.0546,-1.1426,-1.2945,-1.4819,-1.6651,-1.8711,-2.0968,-2.3295,-2.5397,-2.7208,-2.8013,-2.8931,-2.9609,-2.8862,-2.807,-2.7324,-2.6953,-2.7155,-2.732,-2.6945,0.0,-2.8275,-2.7671,0.0,-2.757,-2.7637,0.0,0.0,-3.0376,-3.162,-3.2728,-3.365,-3.4413,-3.5319,-3.6445,-3.4655,-3.4127,-3.6202,-3.5811,-3.4129,-3.0968,-3.2839,-3.3119,-3.0813,-3.147,-3.1515,-3.0625,-3.0622,-3.0583,-3.0506,-3.1314,-3.1782,-3.1975,-3.2996,-3.3945,-3.4768,-3.4083,-3.4434,-3.5454,-3.3834,-3.3393,-3.3652,-3.2004,-3.113,-3.1033,-3.2461,-3.2558,-3.1871,-3.2421,-3.268,-3.2912,-1.7585,-1.7947,0.0,0.0,0.0,0.0,0.0,-2.0986,-2.0206,-1.9746,-1.9553,-1.9545,-1.9757,-1.9359,-1.9305,-1.977,-1.9058,-1.9072,-2.0295,-2.0713,-2.1196,-2.1815,-2.2979,-2.3475,-2.3221,-2.346,-2.3595,-2.3595,-2.2323,-2.152,-2.1219,-2.0191,-1.9244,-1.8405,-1.7397,-1.5715,-1.3507,-1.1622,-0.9445,-0.72,-0.7084,-0.7287,-0.7723,-0.8193,-0.8421,-0.8631,-1.0174,-1.1918,-1.3793,-1.599,-1.8426,-2.1169,-2.4288,-2.6228,-2.7724,-2.9547,-3.0182,-3.0137,-2.9753,-2.8555,-2.7414,-2.7487,-2.7197,-2.7031,-2.7414,-2.8055,-2.8661,-2.9036,0.0,0.0,0.0,0.0,0.0,0.0,-3.1402,-3.2201,-3.3733,-3.3128,-3.3364,-3.5561,-3.4931,-3.4425,-3.4652,-3.4339,-3.3186,-3.0837,-3.2558,-3.2829,-3.0801,-3.1513,-3.1527,-3.0625,-3.057,-3.0527,-3.0506,-3.0814,-3.1256,-3.1857,-3.2264,-3.29,-3.3732,-3.3201,-3.3113,-3.3279,-3.239,-3.1854,-3.1551,-3.0768,-3.007,-2.9613,-3.0583,-3.0927,-3.0977,-3.1317,-3.2137,-3.3294,-1.8399,0.0,0.0,-2.0767,-2.0956,0.0,-2.1231,-2.0635,-2.0084,-1.9754,-1.9633,-1.9638,-1.9766,-1.9672,-1.9645,-1.9793,-1.9391,-1.9602,-2.0724,-2.1156,-2.1713,-2.2421,-2.3541,-2.3894,-2.3355,-2.3554,-2.3555,-2.3363,-2.1907,-2.1029,-2.0612,-1.9691,-1.8688,-1.7585,-1.6317,-1.4306,-1.1816,-0.9857,-0.7664,-0.5542,-0.5873,-0.5714,-0.5281,-0.5879,-0.6439,-0.7099,-0.8425,-1.0511,-1.2989,-1.5206,-1.8151,-2.1498,-2.4771,-2.6889,-2.8599,-3.0793,-3.1375,-3.1231,-3.0603,-2.9243,-2.7982,-2.7919,-2.7509,-2.7313,-2.8035,-2.8452,-2.8965,-2.9914,-2.9499,0.0,0.0,0.0,-3.0593,-3.1282,0.0,-3.1939,-3.3525,-3.2633,-3.2727,-3.5198,-3.5607,-3.5034,-3.3354,-3.376,-3.329,-3.1188,-3.2577,-3.2692,-3.081,-3.1283,-3.128,-3.058,-3.0525,-3.0501,-3.0501,-3.0443,-3.0693,-3.1207,-3.1168,-3.1579,-3.2365,-3.1762,-3.1523,-3.1551,-3.0857,-3.0311,-2.9877,-2.9486,-2.8984,-2.851,-2.8858,-2.9473,-3.0258,-3.0716,-3.2002,-3.3693,-1.9628,-1.8907,-1.8821,-2.1085,-2.0848,-2.0343,-2.0408,-2.0002,-1.9656,-1.9774,-1.9364,-1.9222,-1.9737,-1.9346,-1.9246,-1.9749,-1.9787,-2.008,-2.0769,-2.1956,-2.2342,-2.1757,-2.419,-2.4657,-2.2783,-2.3361,-2.336,-2.274,-2.0864,-1.9945,-1.9917,-1.8699,-1.7558,-1.6421,-1.5112,-1.3154,-1.0623,-0.8567,-0.6811,-0.5433,-0.4842,-0.4574,-0.4546,-0.4703,-0.5303,-0.6059,-0.5996,-0.8419,-1.2052,-1.4053,-1.7845,-2.2041,-2.4424,-2.7561,-3.0545,-3.1277,-3.285,-3.392,-3.1911,-3.0797,-2.9887,-2.8619,-2.8695,-2.914,-2.914,-2.9605,-3.0036,-3.0108,-2.9499,-2.9211,-2.9973,-2.9831,-2.9983,-3.1111,-3.1721,0.0,0.0,-3.3488,-3.4636,-3.6098,-3.6497,-3.5762,-3.3414,-3.5374,-3.541,-3.2109,-3.3412,-3.328,-3.0821,-3.0593,-3.0529,-3.0498,-3.0498,-3.0503,-3.0509,-3.0505,-3.0153,-2.9473,-2.9273,-2.9582,-3.0243,-2.8818,-2.9049,-3.0458,-2.8815,-2.8492,-2.9072,-2.8025,-2.7922,-2.8415,-2.7875,-2.8434,-2.972,-3.1052,-3.2442,-3.3716,-1.9697,0.0,-1.9748,-2.1115,-2.1164,-2.0842,-2.0217,-1.9707,-1.9667,-2.0482,-2.0444,-2.0754,-2.1863,-2.1845,-2.1613,-2.1481,-2.1581,-2.1734,-2.1982,-2.2908,-2.3488,-2.3677,-2.4899,-2.5038,-2.3941,-2.3786,-2.334,-2.2636,-2.1222,-2.0298,-1.9965,-1.9392,-1.8412,-1.6979,-1.5126,-1.2919,-1.0417,-0.7992,-0.6136,-0.4838,-0.5058,-0.5567,-0.6032,-0.4529,-0.4515,-0.5384,-0.631,-0.8946,-1.2428,-1.544,-1.8899,-2.2377,-2.5584,-2.7655,-2.9337,-3.1475,-3.2241,-3.2205,-3.141,-3.0479,-2.9485,-2.8404,-2.8735,-2.9318,-2.9223,-2.9655,-2.9977,-2.9655,-2.8976,-2.8693,-2.9426,-2.9943,-3.0677,-3.1903,-3.2259,-3.2647,0.0,-3.4099,-3.4858,-3.5573,-3.5862,-3.5535,-3.4257,-3.4778,-3.4262,-3.2083,-3.2441,-3.2112,-3.0652,-3.0571,-3.0558,-3.05,-3.0458,-3.0476,-3.056,-3.0474,-3.002,-2.9202,-2.8875,-2.8539,-2.8246,-2.7342,-2.7181,-2.7542,-2.6954,-2.6659,-2.6667,-2.6811,-2.7031,-2.7288,-2.7495,-2.867,-3.0275,-3.1211,-3.24,-3.3712,-2.0059,-2.0202,-2.0406,-2.0989,-2.07,-2.0244,-1.9816,-1.9859,-2.0195,-2.0876,-2.1595,-2.2323,-2.2992,-2.353,-2.3654,-2.309,-2.3781,-2.4218,-2.3998,-2.4915,-2.54,-2.5399,-2.5976,-2.5657,-2.4264,-2.382,-2.3182,-2.2251,-2.1032,-2.0276,0.0,0.0,0.0,-1.7242,-1.5472,-1.3227,-1.0655,-0.8078,-0.6303,-0.5281,-0.571,-0.6439,-0.7118,-0.5478,-0.5314,-0.5994,-0.6913,-0.9925,-1.3888,-1.7116,-2.055,-2.3976,-2.7211,-2.8812,-2.9879,-3.1978,-3.265,-3.2407,-3.1193,-3.0734,-3.0282,-2.8896,-2.9279,-2.9983,-2.9962,-2.9828,-2.9673,-2.9665,-2.8516,-2.7823,-2.8805,-2.9762,-3.0664,-3.1481,-3.2135,-3.2756,0.0,-3.4195,-3.4832,-3.4858,-3.5338,-3.5367,-3.4641,-3.4661,-3.393,-3.2,-3.2104,-3.1898,-3.1038,-3.0987,-3.0983,-3.0963,-3.0895,-3.0721,-3.0469,-3.0228,-2.9541,-2.8428,-2.7957,-2.7362,-2.6615,-2.6004,-2.5732,-2.569,-2.5516,-2.5285,-2.5162,-2.592,-2.6378,-2.6662,-2.737,-2.8483,-2.9926,-3.0862,-3.2343,-3.4022,-2.0817,-2.0861,-2.0858,-2.0826,-1.9555,-1.8744,-1.9322,-2.0289,-2.1043,-2.1151,-2.2849,-2.3854,-2.3389,-2.452,-2.5124,-2.4642,-2.6298,-2.7229,-2.6746,-2.7787,-2.7944,-2.6811,-2.7305,-2.6396,-2.3817,-2.3657,-2.2929,-2.1602,-2.0476,-1.9888,0.0,0.0,0.0,0.0,-1.6148,-1.4131,-1.1477,-0.8896,-0.7362,-0.6642,-0.6707,-0.7128,-0.7717,-0.7588,-0.7761,-0.8102,-0.7954,-1.1314,-1.6267,-1.8974,-2.2738,-2.6714,-2.9013,-3.0729,-3.2055,-3.2849,-3.4042,-3.4425,-3.1455,-3.1645,-3.219,-3.0221,-3.0475,-3.1248,-3.145,-3.0208,-2.9205,-2.9972,-2.807,-2.667,-2.8089,-2.9201,-2.9932,-3.0054,-3.1464,-3.2474,-3.2428,-3.384,-3.4653,-3.4151,-3.493,-3.5261,-3.4629,-3.5059,-3.4397,-3.202,-3.2454,-3.2522,-3.1852,-3.1735,-3.168,-3.1652,-3.1582,-3.1071,-3.0057,-2.9633,-2.8632,-2.7066,-2.6493,-2.5885,-2.5231,-2.4645,-2.4567,-2.4846,-2.4486,-2.4405,-2.4581,-2.5282,-2.5923,-2.6549,-2.7255,-2.7974,-2.8746,-3.0083,-3.2241,-3.4607,-2.1406,-2.1733,-2.1983,-2.1974,-2.0759,-1.9944,-2.0469,-2.097,-2.1786,-2.3268,-2.4309,-2.5444,-2.6972,-2.7092,-2.7067,-2.7201,-2.8155,-2.8541,-2.7963,-2.8767,-2.9163,-2.8831,-2.7983,-2.6741,-2.5054,-2.4014,-2.2839,-2.1542,-2.1275,-2.1134,-2.1146,0.0,0.0,0.0,-1.8127,-1.5963,-1.3519,-1.1344,-0.9271,-0.7521,-0.8329,-0.9247,-1.019,-1.1312,-1.2548,-1.3559,-1.251,-1.4697,-1.8513,-2.145,-2.4746,-2.7904,-2.9626,-3.1086,-3.2447,-3.3789,-3.3942,-3.3413,-3.2457,-3.2866,-3.3316,-3.2256,-3.2971,-3.3772,-3.3042,-3.1619,-3.0023,-2.8391,-2.6785,-2.6029,-2.734,-2.8143,-2.9198,-3.1053,-3.1987,-3.2556,-3.2748,-3.35,-3.4022,-3.409,-3.4114,-3.4459,-3.532,-3.4295,-3.3242,-3.2445,-3.2025,-3.1448,-3.0671,-3.1271,-3.1015,-2.9679,-2.9627,-2.9055,-2.792,-2.7309,-2.6422,-2.524,-2.4354,-2.3531,-2.2825,-2.2813,-2.2951,-2.3238,-2.3516,-2.3695,-2.3772,-2.4441,-2.4793,-2.5109,-2.6303,-2.7763,-2.9495,-3.1286,-3.3062,-3.4607,-2.1594,-2.2188,-2.2776,-2.302,-2.2505,-2.1922,-2.1796,-2.225,-2.3159,-2.4609,-2.5928,-2.7212,-2.8558,-2.9029,-2.9412,-2.9924,-3.0433,-3.0675,-3.0632,-3.0758,-3.0731,-3.0447,-2.8554,-2.6857,-2.5536,-2.3809,-2.26,-2.1845,-2.1665,-2.1746,-2.1957,0.0,0.0,0.0,-1.9871,-1.8041,-1.5811,-1.3278,-1.099,-0.9234,-1.0185,-1.1436,0.0,-1.4233,-1.6207,-1.8264,-1.8708,-1.9881,-2.1665,-2.4693,-2.7314,-2.9588,-3.1028,-3.1987,-3.28,-3.3862,-3.3992,-3.3634,-3.283,-3.3671,-3.4679,-3.4354,-3.501,-3.5493,-3.4774,-3.2817,-3.0531,-2.8223,-2.6535,-2.5712,-2.6419,-2.7261,-2.8486,-3.0406,-3.1147,-3.1351,-3.1133,-3.225,-3.2958,-3.2732,-3.3217,-3.3876,-3.4661,-3.3298,-3.2305,-3.2128,-3.1542,-3.0915,-3.0271,-3.0646,-3.0099,-2.8348,-2.8087,-2.7222,-2.5626,-2.5236,-2.4507,-2.3448,-2.305,-2.2461,-2.1843,-2.1911,-2.2052,-2.22,-2.2545,-2.2798,-2.31,-2.3771,-2.4171,-2.4542,-2.5825,-2.7219,-2.8695,-3.0767,-3.2272,-3.3342,-2.2008,-2.2698,-2.3514,-2.4129,-2.4542,-2.4536,-2.375,-2.4323,-2.5135,-2.6108,-2.7826,-2.9107,-2.9356,-3.0444,-3.1339,-3.2043,-3.2254,-3.2662,-3.332,-3.2751,-3.2109,-3.1485,-2.8924,-2.6818,-2.537,-2.3404,-2.2317,-2.2209,-2.1859,-2.1931,-2.239,0.0,0.0,0.0,-2.1352,-1.998,-1.7823,-1.4975,-1.2788,-1.1415,-1.2236,-1.3742,-1.5571,-1.6811,-1.9094,-2.2047,-2.4875,-2.5409,-2.5203,-2.8059,-3.0019,-3.1487,-3.2697,-3.3141,-3.3303,-3.3643,-3.4189,-3.4374,-3.3064,-3.4251,-3.5961,-3.6393,-3.661,-3.6583,-3.6163,-3.3599,-3.0708,-2.8497,-2.6741,-2.5579,-2.5618,-2.6796,-2.8105,-2.922,-2.9691,-2.9681,-2.8976,-3.0641,-3.1603,-3.0751,-3.1961,0.0,-3.2872,-3.2199,-3.1678,-3.1431,-3.1084,-3.0585,-2.9869,-2.9716,-2.875,-2.6887,-2.6354,-2.5179,-2.3266,-2.3085,-2.2557,-2.1636,-2.1773,-2.1619,-2.1191,-2.1224,-2.1304,-2.1372,-2.1453,-2.1793,-2.2398,-2.2989,-2.3595,-2.4258,-2.5442,-2.6353,-2.7257,-2.9137,-3.035,-3.127,-2.4167,-2.4393,-2.4735,-2.5615,-2.6607,-2.7578,-2.8552,-2.8053,-2.8119,-2.9821,-3.0294,-3.0738,-3.149,-3.0912,-3.0788,-3.1545,-3.1647,-3.1988,-3.2647,-3.2078,-3.156,-3.1235,-2.8763,-2.6475,-2.4654,-2.3096,-2.2097,-2.1631,-2.2066,-2.2325,-2.239,-2.2512,-2.2546,-2.2507,-2.2423,-2.0825,-1.8117,-1.7027,-1.5243,-1.3202,-1.47,-1.5807,-1.6945,-1.992,-2.214,-2.4015,-2.6992,-2.8,-2.8192,-2.9999,-3.1798,-3.3307,-3.3389,-3.3904,-3.4507,-3.4562,-3.4509,-3.4431,-3.4324,-3.5234,-3.6508,-3.7713,-3.7675,-3.7069,-3.6029,-3.3248,-3.0081,-2.7255,-2.6046,-2.5633,-2.6064,-2.7756,-2.9127,-2.9345,-2.9464,-2.946,-2.9331,-2.992,-3.0132,-2.9508,-2.9391,-2.942,-2.9524,-3.1049,-3.1735,-3.0981,-3.0866,-2.9861,-2.7608,-2.7527,-2.6248,-2.3458,-2.2692,-2.1862,-2.083,-1.9965,-1.9542,-1.967,-1.8827,-1.8419,-1.8359,-1.8803,-1.9223,-1.9587,-2.0006,-2.0484,-2.0973,-2.1067,-2.1732,-2.2774,-2.3838,-2.5192,-2.6685,-2.7345,-2.8001,-2.9073,-2.5121,-2.56,-2.622,-2.7248,-2.8504,-2.9937,-3.1406,-3.1431,-3.1186,-3.1044,-3.1061,-3.1268,-3.1728,-3.1571,-3.1737,-3.2452,-3.2243,-3.2317,-3.2976,-3.1989,-3.117,-3.0823,-2.8163,-2.5967,-2.4439,-2.2744,-2.1895,-2.192,-2.1962,-2.2285,-2.285,-2.2953,-2.2853,-2.2611,-2.1713,-2.0568,-1.9295,-1.8121,-1.6854,-1.568,-1.6483,-1.7617,-1.9071,-2.1254,-2.3504,-2.573,-2.7924,-2.927,-3.0169,-3.0992,-3.2384,-3.3758,-3.3504,-3.4041,-3.4787,-3.4926,-3.4861,-3.4796,-3.5052,-3.5843,-3.6846,-3.7831,-3.7441,-3.6445,-3.4943,-3.2332,-2.9364,-2.6332,-2.5887,-2.6211,-2.6836,-2.7769,-2.8336,-2.7966,-2.7917,-2.7739,-2.736,-2.8104,-2.8416,-2.7769,-2.8158,-2.8464,-2.8527,-2.9544,-2.9954,-2.9436,-2.8811,-2.7637,-2.5788,-2.5295,-2.3603,-2.0511,-1.951,-1.8396,-1.7065,-1.6722,-1.6582,-1.6571,-1.6821,-1.697,-1.6991,-1.7967,-1.8518,-1.8695,-1.9186,-1.9678,-2.0158,-2.0478,-2.1043,-2.1789,-2.2592,-2.3899,-2.5448,-2.6324,-2.7311,-2.8616,-2.6105,-2.6791,-2.7761,-2.9187,-3.0457,-3.1829,-3.3282,-3.3972,-3.3732,-3.2014,-3.182,-3.1821,-3.175,-3.2078,-3.2512,-3.3036,-3.2602,-3.2527,-3.3036,-3.164,-3.0542,-2.9961,-2.7223,-2.5196,-2.3979,-2.2252,-2.1531,-2.1958,-2.1712,-2.2059,-2.2932,-2.3219,-2.3098,-2.2572,-2.1326,-2.0607,-2.0307,-1.9177,-1.8422,-1.7921,-1.8024,-1.9209,-2.0925,-2.1837,-2.4011,-2.674,-2.8044,-2.9688,-3.1226,-3.1294,-3.2423,-3.3758,-3.3506,-3.403,-3.4769,-3.4982,-3.5043,-3.5081,-3.529,-3.589,-3.655,-3.6977,-3.6141,-3.4814,-3.3139,-3.0849,-2.8357,-2.5762,-2.5929,-2.6721,-2.7458,-2.7625,-2.7312,-2.6495,-2.6424,-2.6187,-2.5328,-2.626,-2.6763,-2.6079,-2.6933,-2.7506,-2.7202,-2.7268,-2.7253,-2.6944,-2.6541,-2.5757,-2.4505,-2.3259,-2.1214,-1.824,-1.7088,-1.5751,-1.4197,-1.4329,-1.4285,-1.4134,-1.5371,-1.5975,-1.6144,-1.7312,-1.7915,-1.8132,-1.844,-1.8862,-1.9402,-1.9846,-2.0347,-2.0823,-2.1479,-2.2556,-2.3921,-2.5465,-2.6797,-2.8009,-2.8127,-2.8503,-2.9214,-3.1474,-3.2507,-3.3296,-3.4252,-3.4927,-3.5076,-3.4256,-3.3707,-3.308,-3.2497,-3.1943,-3.1601,-3.1661,-3.1601,-3.1601,-3.1661,-3.0382,-2.9197,-2.8432,-2.595,-2.389,-2.2513,-2.136,-2.0819,-2.0869,-2.1259,-2.1567,-2.168,-2.276,-2.3085,-2.2614,-2.3082,-2.2088,-2.0101,-2.1036,-2.0424,-1.8933,-1.9393,-2.0408,-2.1633,-2.1973,-2.3787,-2.6265,-2.7261,-2.9052,-3.0903,-3.0736,-3.2078,-3.376,-3.3556,-3.4105,-3.4805,-3.4902,-3.4883,-3.4826,-3.4866,-3.4932,-3.4954,-3.4769,-3.341,-3.1765,-3.0387,-2.8565,-2.6831,-2.563,-2.6,-2.6721,-2.7458,-2.7625,-2.7214,-2.5952,-2.6188,-2.603,-2.4785,-2.5228,-2.5409,-2.4774,-2.4843,-2.4492,-2.3361,-2.3691,-2.3731,-2.3166,-2.5265,-2.576,-2.3884,-2.1652,-1.9436,-1.7101,-1.5985,-1.512,-1.4453,-1.3842,-1.3741,-1.4097,-1.4294,-1.4625,-1.5053,-1.5904,-1.6743,-1.7516,-1.7491,-1.7747,-1.8142,-1.8182,-1.8755,-1.9571,-2.0532,-2.1426,-2.2414,-2.4374,-2.5241,-2.5807,-2.7971,-2.9094,-3.0455,-3.1969,-3.3206,-3.4258,-3.4961,-3.5325,-3.525,-3.4562,-3.3903,-3.3245,-3.2587,-3.1928,-3.1482,-3.1482,-3.1482,-3.1172,-3.0308,-2.9256,-2.8001,-2.6492,-2.4629,-2.3051,-2.1845,-2.0656,-2.0043,-2.0043,-2.0286,-2.0914,-2.1799,-2.2161,-2.2204,-2.189,-2.1146,-2.0692,-2.0438,-2.0206,-1.9889,-1.951,-1.971,-2.0557,-2.1749,-2.2161,-2.3452,-2.5144,-2.6178,-2.721,-2.8183,-2.8876,-3.1023,-3.3331,-3.274,-3.3449,-3.4464,-3.4335,-3.4429,-3.445,-3.3916,-3.3347,-3.262,-3.1539,-3.0016,-2.8444,-2.7208,-2.6148,-2.5327,-2.4898,-2.5678,-2.6721,-2.7458,-2.7625,-2.7282,-2.6335,-2.6019,-2.5504,-2.4595,-2.4657,-2.462,-2.3975,-2.3992,-2.3839,-2.3346,-2.3447,-2.3621,-2.3699,-2.4298,-2.4141,-2.2963,-2.1088,-1.9044,-1.6944,-1.4789,-1.3403,-1.2972,-1.1819,-1.1667,-1.2489,-1.3591,-1.4238,-1.4521,-1.6607,-1.792,-1.8522,-1.8522,-1.8302,-1.8008,-1.8008,-1.8516,-1.936,-1.9703,-2.0739,-2.2178,-2.3599,-2.5004,-2.6631,-2.8452,-2.982,-3.1324,-3.2919,-3.4046,-3.4936,-3.5429,-3.5504,-3.5325,-3.4846,-3.4203,-3.3455,-3.2602,-3.2093,-3.1676,-3.1497,-3.1482,-3.0849,-2.9233,-2.8355,-2.7037,-2.5031,-2.3641,-2.2447,-2.1506,-2.0256,-1.9507,-1.9352,-1.9342,-2.0018,-2.1308,-2.1524,-2.1541,-2.1192,-2.0024,-1.9851,-2.0385,-1.9812,-1.9609,-1.9813,-2.0001,-2.0744,-2.1702,-2.1924,-2.2829,-2.4137,-2.4895,-2.5464,-2.6023,-2.7304,-2.9461,-3.1594,-3.1644,-3.2666,-3.3756,-3.3405,-3.35,-3.3508,-3.2694,-3.1886,-3.0943,-2.9519,-2.794,-2.6426,-2.5458,-2.484,-2.4605,-2.4944,-2.5839,-2.6762,-2.7479,-2.7625,-2.7297,-2.6422,-2.5941,-2.534,-2.4307,-2.4302,-2.4221,-2.3569,-2.3425,-2.331,-2.3155,-2.3252,-2.3389,-2.363,-2.3458,-2.3076,-2.251,-2.0795,-1.8878,-1.6712,-1.4497,-1.291,-1.2063,-1.098,-1.0842,-1.1557,-1.3274,-1.414,-1.438,-1.7406,-1.9114,-1.9694,-1.9431,-1.8977,-1.8327,-1.7784,-1.8075,-1.8839,-1.8516,-1.9531,-2.1257,-2.2584,-2.4441,-2.6866,-3.0349,-3.0985,-3.1938,-3.4961,-3.5489,-3.5489,-3.5504,-3.5504,-3.5504,-3.5489,-3.4891,-3.3963,-3.2662,-3.2497,-3.2243,-3.1541,-3.1482,-3.0598,-2.8553,-2.7694,-2.6407,-2.4403,-2.3019,-2.2058,-2.1493,-2.0256,-1.9328,-1.8727,-1.8609,-1.8873,-1.9682,-2.0897,-2.1204,-2.0731,-2.0706,-2.0335,-1.986,-2.0509,-2.0417,-1.9856,-2.0547,-2.1153,-2.1619,-2.0954,-2.1858,-2.342,-2.3439,-2.4065,-2.5132,-2.6457,-2.7278,-2.8171,-3.0402,-3.1858,-3.2608,-3.2071,-3.1968,-3.1888,-3.1219,-3.0779,-3.0303,-2.9313,-2.7752,-2.6247,-2.5626,-2.4977,-2.4867,-2.6292,-2.6602,-2.6797,-2.7505,-2.7625,-2.7199,-2.5894,-2.6159,-2.5802,-2.3885,-2.4098,-2.4253,-2.3574,-2.3037,-2.2452,-2.1805,-2.2242,-2.2315,-2.168,-2.2681,-2.3076,-2.2604,-2.0783,-1.8593,-1.6172,-1.553,-1.4219,-1.2298,-1.2011,-1.1864,-1.1935,-1.3382,-1.4338,-1.4823,-1.7915,-1.9748,-2.0526,-1.9683,-1.9299,-1.9166,-1.7385,-1.7045,-1.7626,-1.6615,-1.7381,-1.9256,-2.1222,-2.3116,-2.5542,-3.0594,-3.2005,-3.3422,-3.4594,-3.519,-3.5504,-3.5504,-3.51,-3.4966,-3.5444,-3.4517,-3.3649,-3.323,-3.2781,-3.2243,-3.1541,-3.1106,-2.991,-2.7794,-2.7025,-2.5751,-2.3569,-2.2715,-2.2058,-2.1493,-1.974,-1.8531,-1.7961,-1.801,-1.864,-1.992,-2.0989,-2.0978,-2.0075,-2.0075,-2.0233,-2.0469,-2.021,-2.0239,-2.0446,-2.0233,-2.0462,-2.1011,-2.0783,-2.1057,-2.1592,-2.1866,-2.2036,-2.2384,-2.4147,-2.5068,-2.5797,-2.7319,-2.9181,-3.0663,-2.9998,-2.9969,-2.9892,-2.8732,-2.7753,-2.6814,-2.5697,-2.4636,-2.3839,-2.3634,-2.4119,-2.4946,-2.6314,-2.6587,-2.6782,-2.7505,-2.7625,-2.7449,-2.7089,-2.6316,-2.5596,-2.5019,-2.4317,-2.3607,-2.3022,-2.2413,-2.1771,-2.1161,-2.2011,-2.2497,-2.23,-2.4243,-2.4703,-2.3157,-2.1331,-1.9437,-1.762,-1.5312,-1.3652,-1.2681,-1.1626,-1.1487,-1.2158,-1.3964,-1.6215,-1.8809,-2.0362,-2.1239,-2.1428,-2.059,-1.9814,-1.9187,-1.7567,-1.7225,-1.7626,-1.6606,-1.7381,-1.9289,-2.1597,-2.4117,-2.6986,-3.1439,-3.2787,-3.3972,-3.4748,-3.4996,-3.5115,-3.5115,-3.4547,-3.4262,-3.4696,-3.4023,-3.3395,-3.3155,-3.2766,-3.2138,-3.1225,-3.0686,-2.9421,-2.7137,-2.6534,-2.5335,-2.3163,-2.2611,-2.2058,-2.1493,-1.9514,-1.8194,-1.7578,-1.7676,-1.8203,-1.9114,-2.0324,-2.0476,-1.9798,-1.9798,-2.018,-2.0777,-2.0368,-2.0397,-2.072,-2.0331,-2.0371,-2.0694,-2.0698,-2.071,-2.0745,-2.0983,-2.0872,-2.0892,-2.2631,-2.3555,-2.4214,-2.5496,-2.691,-2.8048,-2.7742,-2.784,-2.7864,-2.6784,-2.6049,-2.5347,-2.4619,-2.3917,-2.3376,-2.3127,-2.3659,-2.4612,-2.5944,-2.6213,-2.6497,-2.7445,-2.7625,-2.7625,-2.7625,-2.6642,-2.583,-2.5642,-2.4646,-2.3601,-2.2781,-2.2311,-2.178,-2.1188,-2.225,-2.3013,-2.3026,-2.5131,-2.5744,-2.4177,-2.2383,-2.0238,-1.7823,-1.5424,-1.3717,-1.2654,-1.1783,-1.1961,-1.3128,-1.5605,-1.8223,-2.1043,-2.2145,-2.2825,-2.317,-2.1992,-2.098,-2.003,-1.7751,-1.7018,-1.7329,-1.5963,-1.7037,-1.9638,-2.1809,-2.4921,-2.8563,-3.2673,-3.3295,-3.3828,-3.5255,-3.4936,-3.4472,-3.4472,-3.3873,-3.344,-3.3546,-3.3471,-3.314,-3.2631,-3.2467,-3.1855,-3.0556,-3.028,-2.9211,-2.6703,-2.6223,-2.5162,-2.3238,-2.2623,-2.2058,-2.1493,-1.9514,-1.8194,-1.7578,-1.7578,-1.7633,-1.7797,-1.915,-1.9798,-1.9798,-1.985,-2.0247,-2.0864,-2.0868,-2.0836,-2.0763,-2.0759,-2.0725,-2.0633,-2.067,-2.0722,-2.0722,-2.0722,-2.0561,-2.0586,-2.1951,-2.2697,-2.3315,-2.4637,-2.5105,-2.5166,-2.5595,-2.5794,-2.5814,-2.5377,-2.5378,-2.5465,-2.5465,-2.5016,-2.4388,-2.3744,-2.3595,-2.3984,-2.533,-2.5615,-2.6019,-2.732,-2.758,-2.755,-2.755,-2.6916,-2.6243,-2.563,-2.4971,-2.4044,-2.2766,-2.2662,-2.2415,-2.1773,-2.292,-2.3722,-2.3817,-2.5524,-2.6303,-2.5675,-2.3903,-2.1152,-1.7317,-1.6076,-1.4577,-1.2546,-1.2546,-1.3262,-1.4708,-1.7851,-2.0254,-2.1896,-2.3306,-2.4498,-2.537,-2.3755,-2.259,-2.1513,-1.7994,-1.6756,-1.7018,-1.5176,-1.6863,-2.0504,-2.2066,-2.5687,-3.0151,-3.2458,-3.396,-3.51,-3.5409,-3.4936,-3.4472,-3.4472,-3.3499,-3.3081,-3.4115,-3.2927,-3.2269,-3.315,-3.2367,-3.1188,-2.9697,-2.958,-2.9052,-2.7825,-2.6243,-2.4879,-2.3803,-2.2836,-2.2058,-2.1493,-1.9514,-1.8194,-1.7578,-1.7578,-1.8178,-1.9307,-1.9643,-1.9798,-1.9798,-2.0346,-2.0899,-2.1476,-2.1487,-2.1484,-2.145,-2.1476,-2.0855,-1.9983,-2.0497,-2.0722,-2.0722,-2.0722,-2.1008,-2.1514,-2.2345,-2.2697,-2.2915,-2.3747,-2.3991,-2.4074,-2.4585,-2.4735,-2.4673,-2.4149,-2.4041,-2.4073,-2.4073,-2.3954,-2.3804,-2.364,-2.3595,-2.3984,-2.533,-2.5615,-2.6019,-2.732,-2.7156,-2.6826,-2.6826,-2.5854,-2.5031,-2.4836,-2.4268,-2.3349,-2.2114,-2.2852,-2.2985,-2.1897,-2.337,-2.4675,-2.5199,-2.6556,-2.7233,-2.7025,-2.5837,-2.3566,-2.0031,-1.8884,-1.7243,-1.4982,-1.4982,-1.5652,-1.7116,-1.9417,-2.1504,-2.3431,-2.501,-2.5849,-2.6005,-2.4399,-2.3334,-2.2445,-1.9173,-1.8329,-1.8894,-1.7572,-1.9192,-2.2492,-2.4818,-2.7951,-3.1483,-3.2202,-3.3835,-3.4936,-3.4637,-3.4277,-3.3918,-3.3619,-3.2721,-3.2402,-3.3512,-3.2118,-3.157,-3.2925,-3.1875,-3.0672,-2.9824,-2.9377,-2.8577,-2.7216,-2.5765,-2.4668,-2.4017,-2.2673,-2.1794,-2.1493,-1.9268,-1.7745,-1.709,-1.7786,-1.8501,-1.9307,-1.9631,-1.9798,-1.985,-2.0497,-2.1113,-2.1688,-2.1366,-2.1593,-2.2084,-2.1485,-2.0812,-2.0228,-2.0902,-2.0976,-2.0752,-2.1051,-2.1395,-2.1799,-2.2458,-2.2724,-2.2828,-2.34,-2.3595,-2.3681,-2.3948,-2.4032,-2.3948,-2.3681,-2.3819,-2.4073,-2.4073,-2.3837,-2.3628,-2.3583,-2.3342,-2.3519,-2.4803,-2.5325,-2.5894,-2.6909,-2.6822,-2.6587,-2.6587,-2.548,-2.4582,-2.4582,-2.4029,-2.3334,-2.2682,-2.3469,-2.382,-2.3164,-2.4597,-2.5705,-2.6079,-2.7333,-2.8033,-2.8003,-2.7653,-2.5814,-2.2166,-2.0059,-1.8223,-1.6515,-1.6821,-1.7497,-1.8441,-2.1491,-2.3796,-2.5453,-2.7272,-2.8126,-2.8122,-2.665,-2.5398,-2.4173,-2.1432,-2.0775,-2.1416,-2.0569,-2.2309,-2.553,-2.7394,-3.034,-3.3704,-3.1789,-3.326,-3.4158,-3.3589,-3.341,-3.3155,-3.2602,-3.1958,-3.1739,-3.2477,-3.1435,-3.1147,-3.247,-3.1308,-3.0395,-3.0151,-2.9317,-2.8058,-2.6298,-2.532,-2.4619,-2.4142,-2.2435,-2.1493,-2.1493,-1.9042,-1.7468,-1.681,-1.807,-1.8768,-1.8874,-1.9527,-1.9798,-1.985,-2.0597,-2.1197,-2.1675,-2.1183,-2.1647,-2.2619,-2.1455,-2.0946,-2.0932,-2.1605,-2.15,-2.1081,-2.165,-2.1904,-2.2069,-2.2622,-2.2858,-2.2906,-2.343,-2.3595,-2.3595,-2.3595,-2.3595,-2.3595,-2.3595,-2.4103,-2.4612,-2.461,-2.418,-2.3774,-2.3535,-2.3084,-2.3055,-2.4171,-2.4882,-2.5563,-2.6328,-2.6381,-2.64,-2.6707,-2.5555,-2.4657,-2.4851,-2.4328,-2.3881,-2.3873,-2.4433,-2.4823,-2.4823,-2.5872,-2.6608,-2.6718,-2.7799,-2.8532,-2.8742,-2.9112,-2.782,-2.4541,-2.1363,-1.9133,-1.7896,-1.8745,-1.9453,-1.9962,-2.4001,-2.6662,-2.8003,-2.9909,-3.0752,-3.0703,-2.9463,-2.7981,-2.6249,-2.416,-2.3689,-2.4327,-2.3987,-2.58,-2.8845,-2.9971,-3.2582,-3.5762,-3.0901,-3.242,-3.3619,-3.3514,-3.3036,-3.2632,-3.2527,-3.1958,-3.1739,-3.2477,-3.186,-3.1675,-3.2532,-3.123,-3.0033,-2.924,-2.8427,-2.7775,-2.7472,-2.5767,-2.4782,-2.4695,-2.2636,-2.1493,-2.1493,-1.9534,-1.8489,-1.834,-1.8608,-1.9044,-1.9631,-1.9747,-1.9798,-1.985,-2.1037,-2.1615,-2.1749,-2.2178,-2.2536,-2.2667,-2.2458,-2.2039,-2.162,-2.2278,-2.2499,-2.2383,-2.2488,-2.2862,-2.331,-2.343,-2.346,-2.3475,-2.3565,-2.3595,-2.3595,-2.3595,-2.3595,-2.3595,-2.3595,-2.4103,-2.4565,-2.45,-2.4437,-2.4226,-2.3562,-2.3358,-2.3513,-2.4254,-2.4498,-2.4973,-2.6275,-2.5582,-2.5383,-2.7181,-2.5854,-2.5016,-2.6123,-2.5719,-2.5082,-2.4617,-2.557,-2.6066,-2.5524,-2.6144,-2.6817,-2.738,-2.767,-2.8233,-2.937,-2.936,-2.9254,-2.9247,-2.6039,-2.3176,-2.0606,-2.1922,-2.3055,-2.4131,-2.7343,-2.9822,-3.1463,-3.279,-3.2872,-3.189,-3.1044,-2.9633,-2.7867,-2.649,-2.6531,-2.7534,-2.7865,-2.9426,-3.1617,-3.2631,-3.3968,-3.5541,-2.9776,-3.1531,-3.2856,-3.2497,-3.2482,-3.2392,-3.2033,-3.1676,-3.1739,-3.2477,-3.1617,-3.1388,-3.2501,-3.0891,-2.9594,-2.9038,-2.8182,-2.755,-2.7095,-2.5608,-2.482,-2.482,-2.2975,-2.1475,-2.0477,-1.9724,-1.9097,-1.8715,-1.9097,-1.9475,-1.9798,-1.9798,-1.9798,-1.985,-2.0769,-2.139,-2.1716,-2.2017,-2.2359,-2.2724,-2.2724,-2.2278,-2.1799,-2.2802,-2.2966,-2.2727,-2.3056,-2.3355,-2.3595,-2.3595,-2.3595,-2.3595,-2.3595,-2.3595,-2.3595,-2.3595,-2.3864,-2.4238,-2.4582,-2.4667,-2.4707,-2.4976,-2.446,-2.3863,-2.381,-2.3503,-2.3393,-2.404,-2.4253,-2.4556,-2.519,-2.5131,-2.5452,-2.6769,-2.5957,-2.5495,-2.6452,-2.6019,-2.564,-2.5726,-2.6247,-2.6624,-2.6701,-2.6946,-2.7395,-2.8068,-2.8128,-2.8697,-3.0013,-3.0007,-3.0032,-3.0315,-2.6924,-2.4079,-2.2015,-2.3058,-2.4767,-2.7121,-2.9319,-3.1548,-3.3775,-3.4213,-3.4104,-3.3549,-3.2427,-3.1251,-2.9997,-2.9124,-2.9346,-3.0302,-3.0794,-3.198,-3.3502,-3.4749,-3.5593,-3.6384,-2.8864,-3.0582,-3.1884,-3.139,-3.1839,-3.2123,-3.1556,-3.1482,-3.1682,-3.2272,-3.1384,-3.108,-3.1957,-3.0397,-2.912,-2.8707,-2.792,-2.7162,-2.6521,-2.5435,-2.482,-2.482,-2.3088,-2.143,-1.9891,-1.9825,-1.9527,-1.898,-1.9527,-1.9798,-1.9798,-1.9798,-1.9798,-1.985,-2.0497,-2.1113,-2.1716,-2.1693,-2.2162,-2.2877,-2.2783,-2.2458,-2.2248,-2.3236,-2.321,-2.2782,-2.3199,-2.3275,-2.3172,-2.3319,-2.3275,-2.3216,-2.3508,-2.3508,-2.3451,-2.3746,-2.4433,-2.5151,-2.551,-2.5246,-2.5005,-2.5383,-2.4614,-2.3853,-2.4021,-2.3777,-2.3653,-2.4104,-2.4205,-2.4269,-2.4432,-2.4915,-2.5569,-2.6597,-2.6232,-2.6183,-2.7156,-2.6587,-2.6318,-2.6976,-2.6916,-2.7021,-2.7565,-2.7724,-2.8038,-2.8562,-2.8876,-2.9475,-3.0447,-3.0657,-3.0539,-3.0084,-2.7174,-2.5011,-2.3788,-2.5007,-2.7039,-2.9937,-3.1692,-3.3658,-3.5876,-3.5631,-3.5372,-3.5023,-3.3671,-3.2598,-3.1795,-3.1497,-3.1807,-3.2517,-3.3145,-3.392,-3.4842,-3.6013,-3.6528,-3.6888,-2.8339,-2.9618,-3.0627,-3.0582,-3.115,-3.1541,-3.1482,-3.1482,-3.1524,-3.1582,-3.1495,-3.116,-3.0555,-2.9586,-2.8693,-2.7855,-2.704,-2.6589,-2.6533,-2.5435,-2.482,-2.482,-2.2723,-2.1267,-2.0623,-2.01,-1.9747,-1.9695,-1.9747,-1.9798,-1.9798,-1.9798,-1.9798,-1.985,-2.0497,-2.1113,-2.1716,-2.1693,-2.2396,-2.3475,-2.2906,-2.2996,-2.3475,-2.3565,-2.3216,-2.2727,-2.2725,-2.2346,-2.1932,-2.2543,-2.2346,-2.2025,-2.3216,-2.3201,-2.3006,-2.4178,-2.545,-2.6318,-2.5764,-2.5521,-2.5449,-2.5396,-2.5189,-2.4805,-2.4151,-2.433,-2.4707,-2.4757,-2.4381,-2.4226,-2.4917,-2.4703,-2.5115,-2.7118,-2.6909,-2.7186,-2.9086,-2.8248,-2.7679,-2.8368,-2.7889,-2.7565,-2.7625,-2.8143,-2.8547,-2.8607,-2.9699,-3.0402,-3.0492,-3.1106,-3.0806,-2.9493,-2.8489,-2.7684,-2.7078,-2.9471,-3.1428,-3.2991,-3.5653,-3.7362,-3.8144,-3.7822,-3.7045,-3.5944,-3.4769,-3.3555,-3.2482,-3.3103,-3.3574,-3.3942,-3.4783,-3.5327,-3.563,-3.5869,-3.5881,-3.6045,-2.8677,-2.9748,-3.0525,-3.0525,-3.1006,-3.1298,-3.0953,-3.1255,-3.1482,-3.1482,-3.1087,-3.0644,-3.0329,-2.8733,-2.7728,-2.7696,-2.664,-2.6076,-2.6508,-2.5737,-2.4845,-2.3816,-2.2309,-2.1393,-2.1179,-2.0275,-1.9798,-1.9798,-1.9798,-1.9798,-1.9798,-1.9798,-1.9798,-1.9798,-2.0055,-2.0534,-2.1148,-2.1125,-2.1647,-2.244,-2.26,-2.2571,-2.2469,-2.2863,-2.262,-2.21,-2.21,-2.2193,-2.23,-2.2146,-2.2193,-2.2392,-2.2875,-2.2875,-2.296,-2.4238,-2.5257,-2.5842,-2.5593,-2.5478,-2.5409,-2.5243,-2.5336,-2.5345,-2.5048,-2.5435,-2.5737,-2.5372,-2.4883,-2.4747,-2.5568,-2.595,-2.6706,-2.8383,-2.8567,-2.8712,-2.9475,-2.9146,-2.8607,-2.8038,-2.8472,-2.8652,-2.8248,-2.8816,-2.937,-2.9759,-3.0238,-3.0687,-3.112,-3.1332,-3.1081,-3.0098,-3.0122,-2.9882,-2.9347,-3.0534,-3.2441,-3.5087,-3.6609,-3.7856,-3.8813,-3.7668,-3.6905,-3.6366,-3.4734,-3.3738,-3.3314,-3.3607,-3.3887,-3.419,-3.4752,-3.5153,-3.5482,-3.6294,-3.6207,-3.595,-2.9342,-2.9882,-3.0217,-3.042,-3.0623,-3.0698,-3.0516,-3.0709,-3.0926,-3.0926,-3.0221,-2.9604,-2.9366,-2.748,-2.6349,-2.6601,-2.5438,-2.5135,-2.5988,-2.5615,-2.477,-2.3464,-2.2171,-2.1493,-2.1493,-2.0225,-1.9635,-1.9798,-1.9635,-1.9635,-1.9798,-1.9798,-1.9798,-1.9798,-1.9798,-2.0144,-2.0795,-2.0795,-2.1125,-2.1749,-2.2175,-2.209,-2.1764,-2.2189,-2.196,-2.1424,-2.1424,-2.1582,-2.1724,-2.1486,-2.1582,-2.188,-2.2253,-2.2686,-2.3264,-2.455,-2.5198,-2.5509,-2.545,-2.5369,-2.5273,-2.5104,-2.5332,-2.5598,-2.5598,-2.605,-2.6352,-2.595,-2.5435,-2.5241,-2.5844,-2.6606,-2.751,-2.8566,-2.9195,-2.9654,-2.9849,-2.9699,-2.931,-2.8577,-2.9146,-2.94,-2.8951,-2.949,-3.0043,-3.0477,-3.0717,-3.1031,-3.1452,-3.1482,-3.1315,-3.0851,-3.1442,-3.1651,-3.1497,-3.2031,-3.3736,-3.6587,-3.7564,-3.851,-3.9376,-3.8009,-3.7211,-3.6756,-3.505,-3.4115,-3.3807,-3.3876,-3.4043,-3.4246,-3.4736,-3.5032,-3.5311,-3.6296,-3.6411,-3.6337,-3.0211,-2.9856,-2.9571,-3.0288,-2.9781,-2.9585,-3.0381,-2.9963,-2.9579,-2.9579,-2.8887,-2.8111,-2.7252,-2.5778,-2.4611,-2.4241,-2.3374,-2.3509,-2.4886,-2.4865,-2.4569,-2.4004,-2.2385,-2.1493,-2.1481,-1.9874,-1.9284,-1.9798,-1.9284,-1.9296,-1.9798,-1.9798,-1.9798,-1.9798,-1.9798,-2.0156,-2.0795,-2.0795,-2.1161,-2.1697,-2.1697,-2.1697,-2.1697,-2.1697,-2.1342,-2.0795,-2.0795,-2.0346,-1.9901,-2.0547,-2.0346,-2.0042,-2.128,-2.2616,-2.3963,-2.5203,-2.5551,-2.5454,-2.5397,-2.5226,-2.509,-2.509,-2.5345,-2.5598,-2.5598,-2.605,-2.6533,-2.6533,-2.6,-2.5598,-2.5598,-2.6516,-2.7221,-2.7221,-2.8581,-2.9804,-3.0417,-2.9983,-2.9819,-3.0417,-2.9968,-2.9594,-2.9594,-3.0148,-3.0507,-3.0507,-3.115,-3.1482,-3.1467,-3.1482,-3.1482,-3.1467,-3.2216,-3.2933,-3.3582,-3.4556,-3.5887,-3.7605,-3.8958,-3.9775,-4.0062,-3.9261,-3.827,-3.7133,-3.5974,-3.4853,-3.3815,-3.4074,-3.42,-3.4265,-3.4926,-3.5209,-3.5245,-3.5724,-3.6367,-3.7144,-3.1429,-3.1307,-3.0838,-3.105,-3.0523,-3.0004,-2.9847,-2.9674,-2.9401,-2.8832,-2.8068,-2.7252,-2.6485,-2.4595,-2.355,-2.4148,-2.3041,-2.2685,-2.3739,-2.3802,-2.3469,-2.2815,-2.1958,-2.1305,-2.097,-1.9673,-1.9284,-1.9798,-1.9284,-1.9296,-1.9798,-1.9798,-1.9798,-1.9798,-1.9798,-1.9901,-2.0105,-2.0105,-2.0484,-2.1077,-2.1077,-2.1077,-2.1077,-2.1077,-2.0683,-2.0105,-2.0105,-2.0258,-2.0446,-2.0207,-2.0308,-2.0547,-2.093,-2.1972,-2.3168,-2.3964,-2.4107,-2.4096,-2.452,-2.4491,-2.4351,-2.4351,-2.5291,-2.6101,-2.5686,-2.6339,-2.6929,-2.6609,-2.6395,-2.6392,-2.6958,-2.783,-2.8649,-2.9274,-3.0265,-3.0851,-3.0552,-3.0761,-3.0687,-2.9939,-3.0507,-3.0761,-3.0283,-3.0836,-3.1225,-3.1225,-3.1362,-3.1258,-3.0836,-3.127,-3.1258,-3.0821,-3.1911,-3.2847,-3.3582,-3.5047,-3.6415,-3.7605,-3.8958,-3.9775,-4.0062,-3.8439,-3.7522,-3.7074,-3.4829,-3.3704,-3.339,-3.3486,-3.3496,-3.3588,-3.4505,-3.4888,-3.498,-3.5496,-3.6317,-3.7187,-3.2784,-3.2717,-3.2197,-3.2215,-3.1459,-3.0513,-2.9506,-2.9011,-2.8481,-2.7641,-2.6685,-2.5773,-2.4979,-2.3067,-2.2093,-2.2695,-2.2114,-2.1962,-2.2451,-2.2838,-2.2742,-2.2001,-2.1669,-2.1129,-2.0338,-1.9472,-1.9183,-1.9497,-1.9183,-1.9296,-1.9798,-1.9798,-1.9798,-1.9798,-1.9798,-1.9798,-1.9798,-1.9798,-2.0055,-2.0396,-2.0396,-2.0396,-2.0396,-2.0396,-2.0144,-1.9798,-1.9798,-2.0055,-2.0346,-1.9952,-2.0055,-2.0446,-2.0709,-2.1479,-2.2423,-2.3358,-2.3487,-2.3514,-2.4134,-2.3978,-2.3653,-2.3653,-2.4895,-2.6025,-2.5674,-2.6302,-2.6791,-2.6239,-2.6302,-2.6582,-2.6786,-2.8007,-2.9192,-2.969,-3.0777,-3.139,-3.0971,-3.127,-3.124,-3.0447,-3.1046,-3.1317,-3.0941,-3.1228,-3.1482,-3.1482,-3.1482,-3.1287,-3.0941,-3.13,-3.1345,-3.0926,-3.2201,-3.3166,-3.3582,-3.5351,-3.6675,-3.7605,-3.8507,-3.9109,-3.9369,-3.7697,-3.669,-3.6152,-3.4365,-3.334,-3.2952,-3.3105,-3.3214,-3.3284,-3.4176,-3.4597,-3.4813,-3.5277,-3.6357,-3.7595,-3.4199,-3.4006,-3.3493,-3.3571,-3.2353,-3.0864,-2.9361,-2.8152,-2.71,-2.618,-2.5043,-2.3962,-2.3012,-2.1495,-2.0578,-2.0537,-2.0958,-2.12,-2.123,-2.2008,-2.2223,-2.1556,-2.1443,-2.0891,-1.9761,-1.9271,-1.8995,-1.9046,-1.8995,-1.9296,-1.9798,-1.9798,-1.9798,-1.9798,-1.9798,-1.9798,-1.9798,-1.9798,-1.9798,-1.9798,-1.9798,-1.9798,-1.9798,-1.9798,-1.9798,-1.9798,-1.9798,-1.9798,-1.9811,-1.9861,-1.9911,-2.0053,-2.0653,-2.1222,-2.1864,-2.313,-2.3353,-2.3345,-2.4006,-2.3662,-2.3078,-2.3078,-2.4305,-2.5473,-2.5523,-2.5937,-2.6176,-2.5686,-2.6013,-2.6282,-2.569,-2.7417,-2.8925,-2.8996,-3.036,-3.1409,-3.1482,-3.1482,-3.1482,-3.1482,-3.1482,-3.1482,-3.1482,-3.1482,-3.1482,-3.1482,-3.1482,-3.1452,-3.1377,-3.1437,-3.1452,-3.1377,-3.2795,-3.3479,-3.3479,-3.5318,-3.6663,-3.7536,-3.7687,-3.7972,-3.8324,-3.6913,-3.5755,-3.4798,-3.425,-3.3391,-3.2484,-3.2921,-3.3105,-3.3196,-3.3887,-3.436,-3.4735,-3.5063,-3.6474,-3.8232,-3.4931,-3.4747,-3.4216,-3.4076,-3.208,-3.0128,-2.8987,-2.747,-2.618,-2.5434,-2.4707,-2.3741,-2.2286,-2.1215,-2.0435,-2.0075,-1.9859,-2.0165,-2.1152,-2.1014,-2.1067,-2.1475,-2.1079,-2.0326,-1.9221,-1.9033,-1.9233,-1.9635,-1.9233,-1.9296,-1.9798,-1.9798,-1.9798,-1.9798,-1.9798,-1.9798,-1.9798,-1.9798,-1.9798,-1.9798,-1.9798,-1.9798,-1.9798,-1.9798,-1.9798,-1.9798,-1.9798,-1.9798,-1.9874,-2.0326,-2.0765,-2.1171,-2.1281,-2.1424,-2.1682,-2.2342,-2.2541,-2.2655,-2.3213,-2.3245,-2.3078,-2.3078,-2.374,-2.4456,-2.4895,-2.5084,-2.5259,-2.5536,-2.5699,-2.5798,-2.5844,-2.701,-2.8278,-2.9114,-2.9997,-3.0777,-3.1409,-3.1482,-3.1482,-3.1482,-3.1482,-3.1482,-3.1482,-3.1482,-3.1482,-3.1482,-3.1482,-3.13,-3.0746,-3.124,-3.1285,-3.0746,-3.209,-3.2841,-3.2841,-3.4137,-3.5522,-3.7075,-3.6862,-3.7266,-3.8079,-3.5758,-3.4877,-3.509,-3.3155,-3.2179,-3.1951,-3.2057,-3.2332,-3.2727,-3.346,-3.412,-3.4734,-3.5013,-3.6427,-3.8402,-3.3801,-3.3778,-3.3534,-3.3681,-3.2254,-3.0476,-2.885,-2.7441,-2.6169,-2.5071,-2.4236,-2.3088,-2.1479,-2.0846,-2.0172,-1.9104,-1.9003,-1.9534,-2.0797,-2.0362,-2.0511,-2.1462,-2.0966,-2.0275,-1.9409,-1.9397,-1.9409,-1.9434,-1.9409,-1.9535,-1.9798,-1.9798,-1.9798,-1.9798,-1.9798,-1.9798,-1.9798,-1.9798,-1.9798,-1.9798,-1.9798,-1.9798,-1.9798,-1.9798,-1.9798,-1.9798,-1.9798,-1.9987,-2.0263,-2.0618,-2.1041,-2.1443,-2.1179,-2.1455,-2.1882,-2.1907,-2.2297,-2.2761,-2.299,-2.3078,-2.3078,-2.3078,-2.3364,-2.374,-2.4305,-2.4632,-2.482,-2.4833,-2.5234,-2.5555,-2.5371,-2.7008,-2.8511,-2.9083,-3.0113,-3.1029,-3.1409,-3.1482,-3.1482,-3.1482,-3.1482,-3.1482,-3.1482,-3.1482,-3.1482,-3.1482,-3.1482,-3.1375,-3.1016,-3.1345,-3.1317,-3.1001,-3.2032,-3.2586,-3.2586,-3.3502,-3.4426,-3.5321,-3.526,-3.5573,-3.6041,-3.4047,-3.3179,-3.3179,-3.1725,-3.1304,-3.1585,-3.1428,-3.1908,-3.2792,-3.322,-3.3721,-3.4232,-3.4555,-3.5685,-3.7294,-3.1837,-3.217,-3.2338,-3.2703,-3.2115,-3.0862,-2.8752,-2.7484,-2.6349,-2.496,-2.3929,-2.2604,-2.0985,-2.059,-1.9759,-1.8134,-1.833,-1.9107,-2.0484,-1.9968,-2.013,-2.145,-2.0865,-2.0288,-1.9811,-1.9798,-1.9585,-1.9158,-1.9585,-1.9798,-1.9798,-1.9798,-1.9798,-1.9798,-1.9798,-1.9798,-1.9798,-1.9798,-1.9798,-1.9798,-1.9798,-1.9798,-1.9798,-1.9798,-1.9798,-1.9798,-1.9798,-2.0238,-2.0869,-2.097,-2.1317,-2.1694,-2.123,-2.1719,-2.2359,-2.1895,-2.2422,-2.3078,-2.3078,-2.3078,-2.3078,-2.3078,-2.3078,-2.3203,-2.374,-2.4205,-2.4431,-2.4067,-2.4782,-2.5363,-2.4963,-2.7006,-2.8834,-2.9053,-3.0317,-3.1306,-3.1317,-3.1302,-3.1315,-3.121,-3.13,-3.1347,-3.1467,-3.1482,-3.1482,-3.1482,-3.1482,-3.1482,-3.1482,-3.1482,-3.1482,-3.1482,-3.212,-3.2437,-3.2437,-3.2986,-3.3219,-3.3219,-3.3419,-3.3599,-3.3824,-3.2475,-3.1658,-3.1218,-3.0762,-3.09,-3.1375,-3.1074,-3.1703,-3.2807,-3.29,-3.3164,-3.356,-3.408,-3.4853,-3.5816,-2.9863,-3.0768,-3.1367,-3.1075,-3.0405,-2.9469,-2.8333,-2.7253,-2.611,-2.4958,-2.4268,-2.3306,-2.1862,-2.0398,-1.911,-1.8076,-1.8057,-1.8782,-2.0473,-1.9594,-1.976,-2.1437,-2.0476,-1.9874,-1.9798,-1.9798,-1.9761,-1.9698,-1.9761,-1.9798,-1.9798,-1.9798,-1.9798,-1.9798,-1.9798,-1.9798,-1.9798,-1.9798,-1.9798,-1.9798,-1.9798,-1.9798,-1.9798,-1.9798,-1.9798,-1.9798,-1.9798,-2.0476,-2.1443,-2.1933,-2.246,-2.2899,-2.2824,-2.284,-2.2952,-2.2877,-2.2965,-2.3078,-2.3078,-2.3078,-2.3078,-2.3078,-2.3078,-2.309,-2.3226,-2.3253,-2.3489,-2.3916,-2.4494,-2.4937,-2.5023,-2.6614,-2.8201,-2.9103,-2.9909,-3.0499,-3.0604,-3.0642,-3.0447,-2.9909,-3.0313,-3.0881,-3.1422,-3.1482,-3.1482,-3.1482,-3.1482,-3.1482,-3.1482,-3.1482,-3.1482,-3.1482,-3.1582,-3.164,-3.164,-3.1739,-3.1781,-3.1781,-3.1799,-3.2462,-3.3595,-3.2144,-3.1807,-3.2255,-3.1566,-3.131,-3.1389,-3.1275,-3.1583,-3.2049,-3.1994,-3.2409,-3.3132,-3.4147,-3.4647,-3.4903,-2.7679,-2.8049,-2.829,-2.8226,-2.8274,-2.7952,-2.6931,-2.6317,-2.5699,-2.4921,-2.4054,-2.3108,-2.2037,-2.0333,-1.8977,-1.8076,-1.8008,-1.8721,-2.0462,-1.9527,-1.9691,-2.1425,-2.0413,-1.9798,-1.9798,-1.9798,-1.9798,-1.9798,-1.9798,-1.9798,-1.9798,-1.9798,-1.9798,-1.9798,-1.9798,-1.9798,-1.9798,-1.9798,-1.9798,-1.9798,-1.9798,-1.9798,-1.9798,-1.9798,-1.9798,-1.9798,-1.9798,-2.0326,-2.1066,-2.1305,-2.197,-2.2623,-2.2309,-2.2636,-2.3015,-2.2761,-2.2899,-2.3078,-2.3078,-2.3078,-2.3078,-2.3078,-2.3078,-2.3078,-2.3078,-2.3389,-2.369,-2.3954,-2.4669,-2.5302,-2.5358,-2.7048,-2.8589,-2.9091,-3.0156,-3.0984,-3.1063,-3.0746,-3.022,-2.9545,-3.0374,-3.082,-3.0179,-3.097,-3.1278,-3.0837,-3.1219,-3.1482,-3.1482,-3.1482,-3.1482,-3.1482,-3.1482,-3.1482,-3.1482,-3.1482,-3.1482,-3.1482,-3.1482,-3.1838,-3.2376,-3.1374,-3.1096,-3.1327,-3.0294,-3.0452,-3.1432,-3.0624,-3.0824,-3.1687,-3.1466,-3.1466,-3.1742,-3.2244,-3.2636,-3.2987]}]]